<?xml version="1.0" encoding="UTF-8" standalone="no" ?>
<gpx xmlns="http://www.topografix.com/GPX/1/1" xmlns:xsi="http://www.w3.org/2001/XMLSchema-instance" xsi:schemaLocation="http://www.topografix.com/GPX/1/1 http://www.topografix.com/GPX/1/1/gpx.xsd" version="1.1" creator="VisuGPX - https://www.visugpx.com">
  <metadata>
    <name>Nangy Nature NN26 </name>
    <desc><![CDATA[Parcours Course et Marche nordique NANGY NATURE le 7 juin 2026]]></desc>
  </metadata>
  <trk>
    <name><![CDATA[Monday Afternoon Cycle]]></name>
    <trkseg>
      <trkpt lat="46.15476" lon="6.3059">
        <ele>478</ele>
        <time>2026-01-12T14:28:13.745Z</time>
      </trkpt>
      <trkpt lat="46.15485" lon="6.30603">
        <ele>478</ele>
        <time>2026-01-12T14:28:24.999Z</time>
      </trkpt>
      <trkpt lat="46.15488" lon="6.30609">
        <ele>478</ele>
        <time>2026-01-12T14:28:26.999Z</time>
      </trkpt>
      <trkpt lat="46.15494" lon="6.3061">
        <ele>478</ele>
        <time>2026-01-12T14:28:28.999Z</time>
      </trkpt>
      <trkpt lat="46.15502" lon="6.30606">
        <ele>478</ele>
        <time>2026-01-12T14:28:30.999Z</time>
      </trkpt>
      <trkpt lat="46.15508" lon="6.306">
        <ele>478</ele>
        <time>2026-01-12T14:28:32.999Z</time>
      </trkpt>
      <trkpt lat="46.15516" lon="6.30597">
        <ele>478</ele>
        <time>2026-01-12T14:28:34.999Z</time>
      </trkpt>
      <trkpt lat="46.15523" lon="6.30599">
        <ele>478</ele>
        <time>2026-01-12T14:28:36.999Z</time>
      </trkpt>
      <trkpt lat="46.1553" lon="6.30602">
        <ele>478</ele>
        <time>2026-01-12T14:28:38.999Z</time>
      </trkpt>
      <trkpt lat="46.15536" lon="6.30605">
        <ele>478</ele>
        <time>2026-01-12T14:28:40.999Z</time>
      </trkpt>
      <trkpt lat="46.15542" lon="6.30609">
        <ele>478</ele>
        <time>2026-01-12T14:28:42.998Z</time>
      </trkpt>
      <trkpt lat="46.15549" lon="6.3061">
        <ele>479</ele>
        <time>2026-01-12T14:28:45.000Z</time>
      </trkpt>
      <trkpt lat="46.15554" lon="6.30612">
        <ele>479</ele>
        <time>2026-01-12T14:28:47.000Z</time>
      </trkpt>
      <trkpt lat="46.15562" lon="6.30614">
        <ele>479</ele>
        <time>2026-01-12T14:28:49.000Z</time>
      </trkpt>
      <trkpt lat="46.15569" lon="6.30616">
        <ele>479</ele>
        <time>2026-01-12T14:28:51.000Z</time>
      </trkpt>
      <trkpt lat="46.15575" lon="6.30618">
        <ele>479</ele>
        <time>2026-01-12T14:28:53.000Z</time>
      </trkpt>
      <trkpt lat="46.15583" lon="6.30619">
        <ele>480</ele>
        <time>2026-01-12T14:28:54.999Z</time>
      </trkpt>
      <trkpt lat="46.1559" lon="6.30621">
        <ele>480</ele>
        <time>2026-01-12T14:28:56.999Z</time>
      </trkpt>
      <trkpt lat="46.15597" lon="6.30623">
        <ele>480</ele>
        <time>2026-01-12T14:28:58.999Z</time>
      </trkpt>
      <trkpt lat="46.15612" lon="6.30621">
        <ele>480</ele>
        <time>2026-01-12T14:29:02.999Z</time>
      </trkpt>
      <trkpt lat="46.15619" lon="6.3062">
        <ele>480</ele>
        <time>2026-01-12T14:29:04.999Z</time>
      </trkpt>
      <trkpt lat="46.15627" lon="6.3062">
        <ele>480</ele>
        <time>2026-01-12T14:29:06.999Z</time>
      </trkpt>
      <trkpt lat="46.15633" lon="6.30619">
        <ele>480</ele>
        <time>2026-01-12T14:29:08.999Z</time>
      </trkpt>
      <trkpt lat="46.1564" lon="6.30618">
        <ele>480</ele>
        <time>2026-01-12T14:29:10.999Z</time>
      </trkpt>
      <trkpt lat="46.15647" lon="6.30617">
        <ele>480</ele>
        <time>2026-01-12T14:29:12.999Z</time>
      </trkpt>
      <trkpt lat="46.15654" lon="6.30617">
        <ele>480</ele>
        <time>2026-01-12T14:29:14.999Z</time>
      </trkpt>
      <trkpt lat="46.1566" lon="6.30616">
        <ele>480</ele>
        <time>2026-01-12T14:29:16.999Z</time>
      </trkpt>
      <trkpt lat="46.15667" lon="6.30615">
        <ele>480</ele>
        <time>2026-01-12T14:29:18.999Z</time>
      </trkpt>
      <trkpt lat="46.15673" lon="6.30615">
        <ele>480</ele>
        <time>2026-01-12T14:29:20.999Z</time>
      </trkpt>
      <trkpt lat="46.1568" lon="6.30614">
        <ele>480</ele>
        <time>2026-01-12T14:29:22.999Z</time>
      </trkpt>
      <trkpt lat="46.15688" lon="6.30613">
        <ele>480</ele>
        <time>2026-01-12T14:29:24.999Z</time>
      </trkpt>
      <trkpt lat="46.15693" lon="6.30613">
        <ele>480</ele>
        <time>2026-01-12T14:29:26.999Z</time>
      </trkpt>
      <trkpt lat="46.157" lon="6.30612">
        <ele>481</ele>
        <time>2026-01-12T14:29:28.999Z</time>
      </trkpt>
      <trkpt lat="46.15706" lon="6.30611">
        <ele>481</ele>
        <time>2026-01-12T14:29:30.999Z</time>
      </trkpt>
      <trkpt lat="46.15712" lon="6.3061">
        <ele>482</ele>
        <time>2026-01-12T14:29:32.999Z</time>
      </trkpt>
      <trkpt lat="46.15718" lon="6.3061">
        <ele>483</ele>
        <time>2026-01-12T14:29:34.999Z</time>
      </trkpt>
      <trkpt lat="46.15723" lon="6.30611">
        <ele>484</ele>
        <time>2026-01-12T14:29:36.999Z</time>
      </trkpt>
      <trkpt lat="46.1573" lon="6.3061">
        <ele>485</ele>
        <time>2026-01-12T14:29:38.999Z</time>
      </trkpt>
      <trkpt lat="46.15736" lon="6.30608">
        <ele>486</ele>
        <time>2026-01-12T14:29:40.999Z</time>
      </trkpt>
      <trkpt lat="46.15743" lon="6.30607">
        <ele>486</ele>
        <time>2026-01-12T14:29:42.999Z</time>
      </trkpt>
      <trkpt lat="46.15749" lon="6.30606">
        <ele>487</ele>
        <time>2026-01-12T14:29:44.999Z</time>
      </trkpt>
      <trkpt lat="46.15755" lon="6.30606">
        <ele>487</ele>
        <time>2026-01-12T14:29:46.999Z</time>
      </trkpt>
      <trkpt lat="46.15761" lon="6.30605">
        <ele>487</ele>
        <time>2026-01-12T14:29:48.999Z</time>
      </trkpt>
      <trkpt lat="46.15767" lon="6.30605">
        <ele>488</ele>
        <time>2026-01-12T14:29:50.999Z</time>
      </trkpt>
      <trkpt lat="46.15771" lon="6.30605">
        <ele>488</ele>
        <time>2026-01-12T14:29:52.999Z</time>
      </trkpt>
      <trkpt lat="46.15778" lon="6.30604">
        <ele>488</ele>
        <time>2026-01-12T14:29:54.999Z</time>
      </trkpt>
      <trkpt lat="46.15785" lon="6.30603">
        <ele>488</ele>
        <time>2026-01-12T14:29:56.999Z</time>
      </trkpt>
      <trkpt lat="46.15791" lon="6.30602">
        <ele>488</ele>
        <time>2026-01-12T14:29:58.999Z</time>
      </trkpt>
      <trkpt lat="46.15797" lon="6.30601">
        <ele>488</ele>
        <time>2026-01-12T14:30:00.999Z</time>
      </trkpt>
      <trkpt lat="46.15803" lon="6.30601">
        <ele>488</ele>
        <time>2026-01-12T14:30:02.999Z</time>
      </trkpt>
      <trkpt lat="46.15809" lon="6.306">
        <ele>488</ele>
        <time>2026-01-12T14:30:04.999Z</time>
      </trkpt>
      <trkpt lat="46.15815" lon="6.306">
        <ele>488</ele>
        <time>2026-01-12T14:30:06.999Z</time>
      </trkpt>
      <trkpt lat="46.15821" lon="6.30599">
        <ele>488</ele>
        <time>2026-01-12T14:30:08.999Z</time>
      </trkpt>
      <trkpt lat="46.15828" lon="6.30598">
        <ele>488</ele>
        <time>2026-01-12T14:30:10.999Z</time>
      </trkpt>
      <trkpt lat="46.15833" lon="6.30596">
        <ele>488</ele>
        <time>2026-01-12T14:30:12.999Z</time>
      </trkpt>
      <trkpt lat="46.15839" lon="6.30595">
        <ele>489</ele>
        <time>2026-01-12T14:30:14.999Z</time>
      </trkpt>
      <trkpt lat="46.15845" lon="6.30594">
        <ele>489</ele>
        <time>2026-01-12T14:30:16.999Z</time>
      </trkpt>
      <trkpt lat="46.1585" lon="6.30592">
        <ele>489</ele>
        <time>2026-01-12T14:30:18.999Z</time>
      </trkpt>
      <trkpt lat="46.15856" lon="6.3059">
        <ele>489</ele>
        <time>2026-01-12T14:30:20.999Z</time>
      </trkpt>
      <trkpt lat="46.15862" lon="6.30588">
        <ele>490</ele>
        <time>2026-01-12T14:30:22.999Z</time>
      </trkpt>
      <trkpt lat="46.15868" lon="6.30586">
        <ele>490</ele>
        <time>2026-01-12T14:30:24.999Z</time>
      </trkpt>
      <trkpt lat="46.15874" lon="6.30584">
        <ele>490</ele>
        <time>2026-01-12T14:30:26.999Z</time>
      </trkpt>
      <trkpt lat="46.15881" lon="6.30583">
        <ele>490</ele>
        <time>2026-01-12T14:30:28.999Z</time>
      </trkpt>
      <trkpt lat="46.15886" lon="6.30581">
        <ele>490</ele>
        <time>2026-01-12T14:30:30.999Z</time>
      </trkpt>
      <trkpt lat="46.15893" lon="6.30579">
        <ele>490</ele>
        <time>2026-01-12T14:30:32.999Z</time>
      </trkpt>
      <trkpt lat="46.15899" lon="6.30577">
        <ele>491</ele>
        <time>2026-01-12T14:30:34.999Z</time>
      </trkpt>
      <trkpt lat="46.15905" lon="6.30576">
        <ele>491</ele>
        <time>2026-01-12T14:30:36.999Z</time>
      </trkpt>
      <trkpt lat="46.15911" lon="6.30577">
        <ele>491</ele>
        <time>2026-01-12T14:30:38.999Z</time>
      </trkpt>
      <trkpt lat="46.15918" lon="6.30581">
        <ele>491</ele>
        <time>2026-01-12T14:30:40.999Z</time>
      </trkpt>
      <trkpt lat="46.15923" lon="6.30583">
        <ele>492</ele>
        <time>2026-01-12T14:30:42.999Z</time>
      </trkpt>
      <trkpt lat="46.15929" lon="6.30586">
        <ele>492</ele>
        <time>2026-01-12T14:30:44.999Z</time>
      </trkpt>
      <trkpt lat="46.15934" lon="6.3059">
        <ele>492</ele>
        <time>2026-01-12T14:30:46.999Z</time>
      </trkpt>
      <trkpt lat="46.15939" lon="6.30595">
        <ele>492</ele>
        <time>2026-01-12T14:30:48.999Z</time>
      </trkpt>
      <trkpt lat="46.15945" lon="6.306">
        <ele>492</ele>
        <time>2026-01-12T14:30:50.999Z</time>
      </trkpt>
      <trkpt lat="46.1595" lon="6.30604">
        <ele>493</ele>
        <time>2026-01-12T14:30:52.999Z</time>
      </trkpt>
      <trkpt lat="46.15955" lon="6.30608">
        <ele>493</ele>
        <time>2026-01-12T14:30:54.999Z</time>
      </trkpt>
      <trkpt lat="46.1596" lon="6.30613">
        <ele>492</ele>
        <time>2026-01-12T14:30:56.999Z</time>
      </trkpt>
      <trkpt lat="46.15965" lon="6.30618">
        <ele>491</ele>
        <time>2026-01-12T14:30:58.999Z</time>
      </trkpt>
      <trkpt lat="46.15976" lon="6.30624">
        <ele>489</ele>
        <time>2026-01-12T14:31:02.999Z</time>
      </trkpt>
      <trkpt lat="46.15981" lon="6.30629">
        <ele>488</ele>
        <time>2026-01-12T14:31:04.999Z</time>
      </trkpt>
      <trkpt lat="46.15986" lon="6.30634">
        <ele>487</ele>
        <time>2026-01-12T14:31:06.999Z</time>
      </trkpt>
      <trkpt lat="46.15992" lon="6.30639">
        <ele>487</ele>
        <time>2026-01-12T14:31:08.999Z</time>
      </trkpt>
      <trkpt lat="46.15997" lon="6.30644">
        <ele>488</ele>
        <time>2026-01-12T14:31:10.999Z</time>
      </trkpt>
      <trkpt lat="46.16001" lon="6.30648">
        <ele>488</ele>
        <time>2026-01-12T14:31:12.999Z</time>
      </trkpt>
      <trkpt lat="46.16006" lon="6.30653">
        <ele>488</ele>
        <time>2026-01-12T14:31:14.999Z</time>
      </trkpt>
      <trkpt lat="46.16011" lon="6.30657">
        <ele>488</ele>
        <time>2026-01-12T14:31:16.999Z</time>
      </trkpt>
      <trkpt lat="46.16016" lon="6.3066">
        <ele>489</ele>
        <time>2026-01-12T14:31:18.999Z</time>
      </trkpt>
      <trkpt lat="46.1602" lon="6.30665">
        <ele>489</ele>
        <time>2026-01-12T14:31:20.999Z</time>
      </trkpt>
      <trkpt lat="46.16023" lon="6.3067">
        <ele>489</ele>
        <time>2026-01-12T14:31:22.999Z</time>
      </trkpt>
      <trkpt lat="46.16029" lon="6.30676">
        <ele>489</ele>
        <time>2026-01-12T14:31:24.999Z</time>
      </trkpt>
      <trkpt lat="46.16034" lon="6.30681">
        <ele>490</ele>
        <time>2026-01-12T14:31:26.999Z</time>
      </trkpt>
      <trkpt lat="46.16039" lon="6.30687">
        <ele>490</ele>
        <time>2026-01-12T14:31:28.999Z</time>
      </trkpt>
      <trkpt lat="46.16044" lon="6.30691">
        <ele>491</ele>
        <time>2026-01-12T14:31:30.999Z</time>
      </trkpt>
      <trkpt lat="46.16051" lon="6.30697">
        <ele>492</ele>
        <time>2026-01-12T14:31:32.999Z</time>
      </trkpt>
      <trkpt lat="46.16056" lon="6.30701">
        <ele>494</ele>
        <time>2026-01-12T14:31:34.999Z</time>
      </trkpt>
      <trkpt lat="46.16062" lon="6.30705">
        <ele>496</ele>
        <time>2026-01-12T14:31:37.999Z</time>
      </trkpt>
      <trkpt lat="46.16065" lon="6.30709">
        <ele>497</ele>
        <time>2026-01-12T14:31:39.999Z</time>
      </trkpt>
      <trkpt lat="46.1607" lon="6.30715">
        <ele>498</ele>
        <time>2026-01-12T14:31:41.999Z</time>
      </trkpt>
      <trkpt lat="46.16076" lon="6.3072">
        <ele>499</ele>
        <time>2026-01-12T14:31:43.999Z</time>
      </trkpt>
      <trkpt lat="46.1608" lon="6.30726">
        <ele>499</ele>
        <time>2026-01-12T14:31:45.999Z</time>
      </trkpt>
      <trkpt lat="46.16084" lon="6.30731">
        <ele>499</ele>
        <time>2026-01-12T14:31:47.999Z</time>
      </trkpt>
      <trkpt lat="46.16089" lon="6.30737">
        <ele>499</ele>
        <time>2026-01-12T14:31:49.999Z</time>
      </trkpt>
      <trkpt lat="46.16093" lon="6.30742">
        <ele>499</ele>
        <time>2026-01-12T14:31:51.999Z</time>
      </trkpt>
      <trkpt lat="46.16098" lon="6.30747">
        <ele>499</ele>
        <time>2026-01-12T14:31:53.999Z</time>
      </trkpt>
      <trkpt lat="46.16104" lon="6.30754">
        <ele>499</ele>
        <time>2026-01-12T14:31:55.999Z</time>
      </trkpt>
      <trkpt lat="46.16108" lon="6.3076">
        <ele>499</ele>
        <time>2026-01-12T14:31:57.999Z</time>
      </trkpt>
      <trkpt lat="46.16113" lon="6.30766">
        <ele>499</ele>
        <time>2026-01-12T14:31:59.999Z</time>
      </trkpt>
      <trkpt lat="46.16118" lon="6.30771">
        <ele>500</ele>
        <time>2026-01-12T14:32:01.999Z</time>
      </trkpt>
      <trkpt lat="46.16122" lon="6.30778">
        <ele>500</ele>
        <time>2026-01-12T14:32:03.999Z</time>
      </trkpt>
      <trkpt lat="46.16127" lon="6.30782">
        <ele>500</ele>
        <time>2026-01-12T14:32:05.999Z</time>
      </trkpt>
      <trkpt lat="46.16133" lon="6.30788">
        <ele>501</ele>
        <time>2026-01-12T14:32:07.999Z</time>
      </trkpt>
      <trkpt lat="46.16138" lon="6.30796">
        <ele>501</ele>
        <time>2026-01-12T14:32:09.999Z</time>
      </trkpt>
      <trkpt lat="46.16142" lon="6.308">
        <ele>501</ele>
        <time>2026-01-12T14:32:10.999Z</time>
      </trkpt>
      <trkpt lat="46.16148" lon="6.30806">
        <ele>501</ele>
        <time>2026-01-12T14:32:12.999Z</time>
      </trkpt>
      <trkpt lat="46.16153" lon="6.30811">
        <ele>502</ele>
        <time>2026-01-12T14:32:14.999Z</time>
      </trkpt>
      <trkpt lat="46.16159" lon="6.30817">
        <ele>502</ele>
        <time>2026-01-12T14:32:16.999Z</time>
      </trkpt>
      <trkpt lat="46.16164" lon="6.30822">
        <ele>502</ele>
        <time>2026-01-12T14:32:18.999Z</time>
      </trkpt>
      <trkpt lat="46.16168" lon="6.30826">
        <ele>502</ele>
        <time>2026-01-12T14:32:20.999Z</time>
      </trkpt>
      <trkpt lat="46.16174" lon="6.30831">
        <ele>502</ele>
        <time>2026-01-12T14:32:22.999Z</time>
      </trkpt>
      <trkpt lat="46.16179" lon="6.30836">
        <ele>502</ele>
        <time>2026-01-12T14:32:24.999Z</time>
      </trkpt>
      <trkpt lat="46.16183" lon="6.30841">
        <ele>502</ele>
        <time>2026-01-12T14:32:26.999Z</time>
      </trkpt>
      <trkpt lat="46.16188" lon="6.30848">
        <ele>502</ele>
        <time>2026-01-12T14:32:28.999Z</time>
      </trkpt>
      <trkpt lat="46.16192" lon="6.30856">
        <ele>502</ele>
        <time>2026-01-12T14:32:30.999Z</time>
      </trkpt>
      <trkpt lat="46.16194" lon="6.30863">
        <ele>502</ele>
        <time>2026-01-12T14:32:32.999Z</time>
      </trkpt>
      <trkpt lat="46.16194" lon="6.3087">
        <ele>502</ele>
        <time>2026-01-12T14:32:34.999Z</time>
      </trkpt>
      <trkpt lat="46.16194" lon="6.30878">
        <ele>502</ele>
        <time>2026-01-12T14:32:36.999Z</time>
      </trkpt>
      <trkpt lat="46.16194" lon="6.30886">
        <ele>502</ele>
        <time>2026-01-12T14:32:38.999Z</time>
      </trkpt>
      <trkpt lat="46.16195" lon="6.30894">
        <ele>503</ele>
        <time>2026-01-12T14:32:40.999Z</time>
      </trkpt>
      <trkpt lat="46.16195" lon="6.30902">
        <ele>503</ele>
        <time>2026-01-12T14:32:42.999Z</time>
      </trkpt>
      <trkpt lat="46.16196" lon="6.30909">
        <ele>504</ele>
        <time>2026-01-12T14:32:44.999Z</time>
      </trkpt>
      <trkpt lat="46.16196" lon="6.30917">
        <ele>504</ele>
        <time>2026-01-12T14:32:46.999Z</time>
      </trkpt>
      <trkpt lat="46.16195" lon="6.30924">
        <ele>505</ele>
        <time>2026-01-12T14:32:48.999Z</time>
      </trkpt>
      <trkpt lat="46.16197" lon="6.3093">
        <ele>505</ele>
        <time>2026-01-12T14:32:50.999Z</time>
      </trkpt>
      <trkpt lat="46.16197" lon="6.30937">
        <ele>506</ele>
        <time>2026-01-12T14:32:52.999Z</time>
      </trkpt>
      <trkpt lat="46.16199" lon="6.30946">
        <ele>506</ele>
        <time>2026-01-12T14:32:54.999Z</time>
      </trkpt>
      <trkpt lat="46.16199" lon="6.30953">
        <ele>506</ele>
        <time>2026-01-12T14:32:56.999Z</time>
      </trkpt>
      <trkpt lat="46.16201" lon="6.30961">
        <ele>506</ele>
        <time>2026-01-12T14:32:58.999Z</time>
      </trkpt>
      <trkpt lat="46.16201" lon="6.30968">
        <ele>504</ele>
        <time>2026-01-12T14:32:59.997Z</time>
      </trkpt>
      <trkpt lat="46.16206" lon="6.30974">
        <ele>503</ele>
        <time>2026-01-12T14:33:03.998Z</time>
      </trkpt>
      <trkpt lat="46.16208" lon="6.30981">
        <ele>503</ele>
        <time>2026-01-12T14:33:05.998Z</time>
      </trkpt>
      <trkpt lat="46.16211" lon="6.30987">
        <ele>503</ele>
        <time>2026-01-12T14:33:08.999Z</time>
      </trkpt>
      <trkpt lat="46.16211" lon="6.30994">
        <ele>504</ele>
        <time>2026-01-12T14:33:21.999Z</time>
      </trkpt>
      <trkpt lat="46.16221" lon="6.31014">
        <ele>509</ele>
        <time>2026-01-12T14:33:54.999Z</time>
      </trkpt>
      <trkpt lat="46.16224" lon="6.31021">
        <ele>510</ele>
        <time>2026-01-12T14:33:56.999Z</time>
      </trkpt>
      <trkpt lat="46.16227" lon="6.31028">
        <ele>511</ele>
        <time>2026-01-12T14:33:58.999Z</time>
      </trkpt>
      <trkpt lat="46.1623" lon="6.31036">
        <ele>512</ele>
        <time>2026-01-12T14:34:00.999Z</time>
      </trkpt>
      <trkpt lat="46.16234" lon="6.31042">
        <ele>513</ele>
        <time>2026-01-12T14:34:02.999Z</time>
      </trkpt>
      <trkpt lat="46.16236" lon="6.31048">
        <ele>515</ele>
        <time>2026-01-12T14:34:04.999Z</time>
      </trkpt>
      <trkpt lat="46.16238" lon="6.31056">
        <ele>516</ele>
        <time>2026-01-12T14:34:06.999Z</time>
      </trkpt>
      <trkpt lat="46.16242" lon="6.31061">
        <ele>516</ele>
        <time>2026-01-12T14:34:08.999Z</time>
      </trkpt>
      <trkpt lat="46.16245" lon="6.31066">
        <ele>517</ele>
        <time>2026-01-12T14:34:10.999Z</time>
      </trkpt>
      <trkpt lat="46.16251" lon="6.31071">
        <ele>517</ele>
        <time>2026-01-12T14:34:13.999Z</time>
      </trkpt>
      <trkpt lat="46.16255" lon="6.31073">
        <ele>518</ele>
        <time>2026-01-12T14:34:15.999Z</time>
      </trkpt>
      <trkpt lat="46.1626" lon="6.31074">
        <ele>518</ele>
        <time>2026-01-12T14:34:17.999Z</time>
      </trkpt>
      <trkpt lat="46.16266" lon="6.31073">
        <ele>519</ele>
        <time>2026-01-12T14:34:19.999Z</time>
      </trkpt>
      <trkpt lat="46.16271" lon="6.3107">
        <ele>519</ele>
        <time>2026-01-12T14:34:21.999Z</time>
      </trkpt>
      <trkpt lat="46.16276" lon="6.31067">
        <ele>519</ele>
        <time>2026-01-12T14:34:23.999Z</time>
      </trkpt>
      <trkpt lat="46.16281" lon="6.31064">
        <ele>519</ele>
        <time>2026-01-12T14:34:25.999Z</time>
      </trkpt>
      <trkpt lat="46.16285" lon="6.3106">
        <ele>519</ele>
        <time>2026-01-12T14:34:27.999Z</time>
      </trkpt>
      <trkpt lat="46.16291" lon="6.3105">
        <ele>518</ele>
        <time>2026-01-12T14:34:32.999Z</time>
      </trkpt>
      <trkpt lat="46.16296" lon="6.31045">
        <ele>517</ele>
        <time>2026-01-12T14:34:35.999Z</time>
      </trkpt>
      <trkpt lat="46.163" lon="6.31043">
        <ele>517</ele>
        <time>2026-01-12T14:34:37.999Z</time>
      </trkpt>
      <trkpt lat="46.16306" lon="6.31038">
        <ele>517</ele>
        <time>2026-01-12T14:34:40.999Z</time>
      </trkpt>
      <trkpt lat="46.1631" lon="6.31031">
        <ele>518</ele>
        <time>2026-01-12T14:34:43.999Z</time>
      </trkpt>
      <trkpt lat="46.16313" lon="6.31025">
        <ele>517</ele>
        <time>2026-01-12T14:34:45.999Z</time>
      </trkpt>
      <trkpt lat="46.16317" lon="6.31019">
        <ele>517</ele>
        <time>2026-01-12T14:34:47.999Z</time>
      </trkpt>
      <trkpt lat="46.1632" lon="6.31013">
        <ele>517</ele>
        <time>2026-01-12T14:34:49.999Z</time>
      </trkpt>
      <trkpt lat="46.16322" lon="6.31006">
        <ele>517</ele>
        <time>2026-01-12T14:34:51.999Z</time>
      </trkpt>
      <trkpt lat="46.16323" lon="6.30998">
        <ele>517</ele>
        <time>2026-01-12T14:34:53.999Z</time>
      </trkpt>
      <trkpt lat="46.16326" lon="6.30991">
        <ele>517</ele>
        <time>2026-01-12T14:34:56.999Z</time>
      </trkpt>
      <trkpt lat="46.16331" lon="6.30987">
        <ele>517</ele>
        <time>2026-01-12T14:34:58.999Z</time>
      </trkpt>
      <trkpt lat="46.16336" lon="6.30979">
        <ele>518</ele>
        <time>2026-01-12T14:35:00.999Z</time>
      </trkpt>
      <trkpt lat="46.16339" lon="6.30971">
        <ele>519</ele>
        <time>2026-01-12T14:35:02.999Z</time>
      </trkpt>
      <trkpt lat="46.16342" lon="6.30964">
        <ele>519</ele>
        <time>2026-01-12T14:35:04.999Z</time>
      </trkpt>
      <trkpt lat="46.16346" lon="6.30958">
        <ele>520</ele>
        <time>2026-01-12T14:35:06.999Z</time>
      </trkpt>
      <trkpt lat="46.1635" lon="6.30952">
        <ele>520</ele>
        <time>2026-01-12T14:35:08.999Z</time>
      </trkpt>
      <trkpt lat="46.16354" lon="6.30942">
        <ele>521</ele>
        <time>2026-01-12T14:35:10.999Z</time>
      </trkpt>
      <trkpt lat="46.16358" lon="6.30936">
        <ele>521</ele>
        <time>2026-01-12T14:35:12.999Z</time>
      </trkpt>
      <trkpt lat="46.16363" lon="6.30929">
        <ele>521</ele>
        <time>2026-01-12T14:35:14.999Z</time>
      </trkpt>
      <trkpt lat="46.16368" lon="6.30921">
        <ele>521</ele>
        <time>2026-01-12T14:35:16.999Z</time>
      </trkpt>
      <trkpt lat="46.16374" lon="6.30914">
        <ele>521</ele>
        <time>2026-01-12T14:35:18.999Z</time>
      </trkpt>
      <trkpt lat="46.16381" lon="6.30909">
        <ele>521</ele>
        <time>2026-01-12T14:35:20.999Z</time>
      </trkpt>
      <trkpt lat="46.16386" lon="6.30902">
        <ele>521</ele>
        <time>2026-01-12T14:35:22.999Z</time>
      </trkpt>
      <trkpt lat="46.16391" lon="6.30895">
        <ele>521</ele>
        <time>2026-01-12T14:35:24.999Z</time>
      </trkpt>
      <trkpt lat="46.16397" lon="6.30888">
        <ele>521</ele>
        <time>2026-01-12T14:35:26.999Z</time>
      </trkpt>
      <trkpt lat="46.16402" lon="6.30881">
        <ele>521</ele>
        <time>2026-01-12T14:35:28.999Z</time>
      </trkpt>
      <trkpt lat="46.16407" lon="6.30873">
        <ele>521</ele>
        <time>2026-01-12T14:35:30.999Z</time>
      </trkpt>
      <trkpt lat="46.16412" lon="6.30866">
        <ele>521</ele>
        <time>2026-01-12T14:35:32.999Z</time>
      </trkpt>
      <trkpt lat="46.16417" lon="6.30858">
        <ele>521</ele>
        <time>2026-01-12T14:35:34.999Z</time>
      </trkpt>
      <trkpt lat="46.16423" lon="6.3085">
        <ele>521</ele>
        <time>2026-01-12T14:35:36.999Z</time>
      </trkpt>
      <trkpt lat="46.16429" lon="6.30842">
        <ele>521</ele>
        <time>2026-01-12T14:35:38.999Z</time>
      </trkpt>
      <trkpt lat="46.16436" lon="6.30835">
        <ele>520</ele>
        <time>2026-01-12T14:35:40.999Z</time>
      </trkpt>
      <trkpt lat="46.16443" lon="6.30828">
        <ele>520</ele>
        <time>2026-01-12T14:35:42.999Z</time>
      </trkpt>
      <trkpt lat="46.16451" lon="6.30821">
        <ele>520</ele>
        <time>2026-01-12T14:35:44.999Z</time>
      </trkpt>
      <trkpt lat="46.16454" lon="6.30817">
        <ele>520</ele>
        <time>2026-01-12T14:35:45.999Z</time>
      </trkpt>
      <trkpt lat="46.16458" lon="6.30814">
        <ele>520</ele>
        <time>2026-01-12T14:35:46.999Z</time>
      </trkpt>
      <trkpt lat="46.16463" lon="6.30811">
        <ele>520</ele>
        <time>2026-01-12T14:35:47.999Z</time>
      </trkpt>
      <trkpt lat="46.1647" lon="6.30804">
        <ele>520</ele>
        <time>2026-01-12T14:35:49.999Z</time>
      </trkpt>
      <trkpt lat="46.16475" lon="6.30801">
        <ele>520</ele>
        <time>2026-01-12T14:35:50.999Z</time>
      </trkpt>
      <trkpt lat="46.1648" lon="6.30797">
        <ele>520</ele>
        <time>2026-01-12T14:35:51.999Z</time>
      </trkpt>
      <trkpt lat="46.16484" lon="6.30793">
        <ele>520</ele>
        <time>2026-01-12T14:35:52.999Z</time>
      </trkpt>
      <trkpt lat="46.16489" lon="6.3079">
        <ele>520</ele>
        <time>2026-01-12T14:35:53.999Z</time>
      </trkpt>
      <trkpt lat="46.16493" lon="6.30786">
        <ele>520</ele>
        <time>2026-01-12T14:35:54.999Z</time>
      </trkpt>
      <trkpt lat="46.16498" lon="6.30782">
        <ele>520</ele>
        <time>2026-01-12T14:35:55.999Z</time>
      </trkpt>
      <trkpt lat="46.16503" lon="6.30778">
        <ele>519</ele>
        <time>2026-01-12T14:35:56.999Z</time>
      </trkpt>
      <trkpt lat="46.1651" lon="6.30771">
        <ele>519</ele>
        <time>2026-01-12T14:35:58.999Z</time>
      </trkpt>
      <trkpt lat="46.16529" lon="6.30758">
        <ele>518</ele>
        <time>2026-01-12T14:36:02.999Z</time>
      </trkpt>
      <trkpt lat="46.16533" lon="6.30754">
        <ele>517</ele>
        <time>2026-01-12T14:36:03.999Z</time>
      </trkpt>
      <trkpt lat="46.1654" lon="6.30748">
        <ele>517</ele>
        <time>2026-01-12T14:36:05.999Z</time>
      </trkpt>
      <trkpt lat="46.16544" lon="6.30744">
        <ele>517</ele>
        <time>2026-01-12T14:36:06.999Z</time>
      </trkpt>
      <trkpt lat="46.16548" lon="6.3074">
        <ele>517</ele>
        <time>2026-01-12T14:36:07.999Z</time>
      </trkpt>
      <trkpt lat="46.16555" lon="6.30733">
        <ele>517</ele>
        <time>2026-01-12T14:36:09.999Z</time>
      </trkpt>
      <trkpt lat="46.1656" lon="6.30728">
        <ele>517</ele>
        <time>2026-01-12T14:36:10.999Z</time>
      </trkpt>
      <trkpt lat="46.16563" lon="6.30724">
        <ele>518</ele>
        <time>2026-01-12T14:36:11.999Z</time>
      </trkpt>
      <trkpt lat="46.1657" lon="6.30716">
        <ele>518</ele>
        <time>2026-01-12T14:36:13.999Z</time>
      </trkpt>
      <trkpt lat="46.16573" lon="6.30712">
        <ele>518</ele>
        <time>2026-01-12T14:36:14.999Z</time>
      </trkpt>
      <trkpt lat="46.16577" lon="6.30707">
        <ele>518</ele>
        <time>2026-01-12T14:36:15.999Z</time>
      </trkpt>
      <trkpt lat="46.1658" lon="6.30702">
        <ele>518</ele>
        <time>2026-01-12T14:36:16.999Z</time>
      </trkpt>
      <trkpt lat="46.16584" lon="6.30698">
        <ele>518</ele>
        <time>2026-01-12T14:36:17.999Z</time>
      </trkpt>
      <trkpt lat="46.16587" lon="6.30693">
        <ele>518</ele>
        <time>2026-01-12T14:36:18.999Z</time>
      </trkpt>
      <trkpt lat="46.1659" lon="6.30687">
        <ele>518</ele>
        <time>2026-01-12T14:36:19.999Z</time>
      </trkpt>
      <trkpt lat="46.16594" lon="6.30682">
        <ele>518</ele>
        <time>2026-01-12T14:36:20.999Z</time>
      </trkpt>
      <trkpt lat="46.16597" lon="6.30677">
        <ele>518</ele>
        <time>2026-01-12T14:36:21.999Z</time>
      </trkpt>
      <trkpt lat="46.166" lon="6.30672">
        <ele>518</ele>
        <time>2026-01-12T14:36:22.999Z</time>
      </trkpt>
      <trkpt lat="46.16604" lon="6.30666">
        <ele>518</ele>
        <time>2026-01-12T14:36:23.999Z</time>
      </trkpt>
      <trkpt lat="46.16607" lon="6.30661">
        <ele>518</ele>
        <time>2026-01-12T14:36:24.999Z</time>
      </trkpt>
      <trkpt lat="46.16609" lon="6.30655">
        <ele>518</ele>
        <time>2026-01-12T14:36:25.999Z</time>
      </trkpt>
      <trkpt lat="46.16612" lon="6.30649">
        <ele>518</ele>
        <time>2026-01-12T14:36:26.999Z</time>
      </trkpt>
      <trkpt lat="46.16615" lon="6.30643">
        <ele>518</ele>
        <time>2026-01-12T14:36:27.999Z</time>
      </trkpt>
      <trkpt lat="46.16618" lon="6.30636">
        <ele>517</ele>
        <time>2026-01-12T14:36:28.999Z</time>
      </trkpt>
      <trkpt lat="46.16619" lon="6.30629">
        <ele>517</ele>
        <time>2026-01-12T14:36:29.999Z</time>
      </trkpt>
      <trkpt lat="46.16622" lon="6.3061">
        <ele>517</ele>
        <time>2026-01-12T14:36:32.999Z</time>
      </trkpt>
      <trkpt lat="46.16624" lon="6.30603">
        <ele>517</ele>
        <time>2026-01-12T14:36:33.999Z</time>
      </trkpt>
      <trkpt lat="46.16629" lon="6.30589">
        <ele>517</ele>
        <time>2026-01-12T14:36:35.999Z</time>
      </trkpt>
      <trkpt lat="46.16632" lon="6.30581">
        <ele>517</ele>
        <time>2026-01-12T14:36:36.999Z</time>
      </trkpt>
      <trkpt lat="46.16635" lon="6.30572">
        <ele>517</ele>
        <time>2026-01-12T14:36:37.999Z</time>
      </trkpt>
      <trkpt lat="46.16639" lon="6.30567">
        <ele>517</ele>
        <time>2026-01-12T14:36:38.999Z</time>
      </trkpt>
      <trkpt lat="46.16644" lon="6.30562">
        <ele>517</ele>
        <time>2026-01-12T14:36:39.999Z</time>
      </trkpt>
      <trkpt lat="46.16648" lon="6.30559">
        <ele>517</ele>
        <time>2026-01-12T14:36:40.999Z</time>
      </trkpt>
      <trkpt lat="46.16653" lon="6.30558">
        <ele>517</ele>
        <time>2026-01-12T14:36:41.999Z</time>
      </trkpt>
      <trkpt lat="46.16662" lon="6.30557">
        <ele>517</ele>
        <time>2026-01-12T14:36:43.999Z</time>
      </trkpt>
      <trkpt lat="46.16671" lon="6.30551">
        <ele>517</ele>
        <time>2026-01-12T14:36:45.999Z</time>
      </trkpt>
      <trkpt lat="46.1668" lon="6.30546">
        <ele>517</ele>
        <time>2026-01-12T14:36:47.999Z</time>
      </trkpt>
      <trkpt lat="46.16687" lon="6.30543">
        <ele>517</ele>
        <time>2026-01-12T14:36:49.999Z</time>
      </trkpt>
      <trkpt lat="46.16696" lon="6.30539">
        <ele>517</ele>
        <time>2026-01-12T14:36:51.999Z</time>
      </trkpt>
      <trkpt lat="46.16703" lon="6.30537">
        <ele>517</ele>
        <time>2026-01-12T14:36:52.999Z</time>
      </trkpt>
      <trkpt lat="46.16711" lon="6.30534">
        <ele>516</ele>
        <time>2026-01-12T14:36:54.999Z</time>
      </trkpt>
      <trkpt lat="46.16716" lon="6.30533">
        <ele>516</ele>
        <time>2026-01-12T14:36:55.999Z</time>
      </trkpt>
      <trkpt lat="46.16726" lon="6.30527">
        <ele>516</ele>
        <time>2026-01-12T14:36:57.999Z</time>
      </trkpt>
      <trkpt lat="46.16731" lon="6.30523">
        <ele>515</ele>
        <time>2026-01-12T14:36:58.999Z</time>
      </trkpt>
      <trkpt lat="46.16736" lon="6.30517">
        <ele>515</ele>
        <time>2026-01-12T14:36:59.999Z</time>
      </trkpt>
      <trkpt lat="46.16742" lon="6.30513">
        <ele>514</ele>
        <time>2026-01-12T14:37:00.999Z</time>
      </trkpt>
      <trkpt lat="46.16747" lon="6.30511">
        <ele>514</ele>
        <time>2026-01-12T14:37:01.999Z</time>
      </trkpt>
      <trkpt lat="46.16751" lon="6.30506">
        <ele>514</ele>
        <time>2026-01-12T14:37:02.999Z</time>
      </trkpt>
      <trkpt lat="46.16756" lon="6.30501">
        <ele>514</ele>
        <time>2026-01-12T14:37:03.999Z</time>
      </trkpt>
      <trkpt lat="46.16765" lon="6.30493">
        <ele>514</ele>
        <time>2026-01-12T14:37:05.999Z</time>
      </trkpt>
      <trkpt lat="46.16769" lon="6.30489">
        <ele>514</ele>
        <time>2026-01-12T14:37:06.999Z</time>
      </trkpt>
      <trkpt lat="46.16774" lon="6.30482">
        <ele>515</ele>
        <time>2026-01-12T14:37:07.999Z</time>
      </trkpt>
      <trkpt lat="46.16778" lon="6.30477">
        <ele>515</ele>
        <time>2026-01-12T14:37:08.999Z</time>
      </trkpt>
      <trkpt lat="46.16782" lon="6.30471">
        <ele>516</ele>
        <time>2026-01-12T14:37:09.999Z</time>
      </trkpt>
      <trkpt lat="46.16786" lon="6.30465">
        <ele>516</ele>
        <time>2026-01-12T14:37:10.999Z</time>
      </trkpt>
      <trkpt lat="46.1679" lon="6.30461">
        <ele>516</ele>
        <time>2026-01-12T14:37:11.999Z</time>
      </trkpt>
      <trkpt lat="46.16794" lon="6.30456">
        <ele>517</ele>
        <time>2026-01-12T14:37:12.999Z</time>
      </trkpt>
      <trkpt lat="46.16801" lon="6.30452">
        <ele>517</ele>
        <time>2026-01-12T14:37:14.999Z</time>
      </trkpt>
      <trkpt lat="46.16804" lon="6.30445">
        <ele>517</ele>
        <time>2026-01-12T14:37:15.999Z</time>
      </trkpt>
      <trkpt lat="46.16811" lon="6.30438">
        <ele>517</ele>
        <time>2026-01-12T14:37:17.999Z</time>
      </trkpt>
      <trkpt lat="46.16817" lon="6.3043">
        <ele>517</ele>
        <time>2026-01-12T14:37:19.999Z</time>
      </trkpt>
      <trkpt lat="46.16824" lon="6.30421">
        <ele>517</ele>
        <time>2026-01-12T14:37:21.999Z</time>
      </trkpt>
      <trkpt lat="46.16831" lon="6.30413">
        <ele>517</ele>
        <time>2026-01-12T14:37:23.999Z</time>
      </trkpt>
      <trkpt lat="46.16835" lon="6.30409">
        <ele>517</ele>
        <time>2026-01-12T14:37:24.999Z</time>
      </trkpt>
      <trkpt lat="46.16842" lon="6.30401">
        <ele>517</ele>
        <time>2026-01-12T14:37:26.999Z</time>
      </trkpt>
      <trkpt lat="46.16845" lon="6.30396">
        <ele>517</ele>
        <time>2026-01-12T14:37:27.999Z</time>
      </trkpt>
      <trkpt lat="46.16848" lon="6.30391">
        <ele>517</ele>
        <time>2026-01-12T14:37:28.999Z</time>
      </trkpt>
      <trkpt lat="46.16852" lon="6.30387">
        <ele>516</ele>
        <time>2026-01-12T14:37:29.999Z</time>
      </trkpt>
      <trkpt lat="46.16858" lon="6.30379">
        <ele>516</ele>
        <time>2026-01-12T14:37:31.999Z</time>
      </trkpt>
      <trkpt lat="46.16864" lon="6.30373">
        <ele>516</ele>
        <time>2026-01-12T14:37:33.999Z</time>
      </trkpt>
      <trkpt lat="46.16871" lon="6.30364">
        <ele>516</ele>
        <time>2026-01-12T14:37:35.999Z</time>
      </trkpt>
      <trkpt lat="46.16874" lon="6.3036">
        <ele>516</ele>
        <time>2026-01-12T14:37:36.999Z</time>
      </trkpt>
      <trkpt lat="46.1688" lon="6.30352">
        <ele>516</ele>
        <time>2026-01-12T14:37:38.999Z</time>
      </trkpt>
      <trkpt lat="46.16886" lon="6.30344">
        <ele>516</ele>
        <time>2026-01-12T14:37:40.999Z</time>
      </trkpt>
      <trkpt lat="46.16891" lon="6.30338">
        <ele>516</ele>
        <time>2026-01-12T14:37:42.999Z</time>
      </trkpt>
      <trkpt lat="46.16898" lon="6.3033">
        <ele>516</ele>
        <time>2026-01-12T14:37:44.999Z</time>
      </trkpt>
      <trkpt lat="46.16904" lon="6.30323">
        <ele>516</ele>
        <time>2026-01-12T14:37:46.999Z</time>
      </trkpt>
      <trkpt lat="46.16909" lon="6.30317">
        <ele>516</ele>
        <time>2026-01-12T14:37:48.999Z</time>
      </trkpt>
      <trkpt lat="46.16914" lon="6.30311">
        <ele>516</ele>
        <time>2026-01-12T14:37:50.999Z</time>
      </trkpt>
      <trkpt lat="46.1692" lon="6.30304">
        <ele>516</ele>
        <time>2026-01-12T14:37:52.999Z</time>
      </trkpt>
      <trkpt lat="46.16925" lon="6.30298">
        <ele>516</ele>
        <time>2026-01-12T14:37:54.999Z</time>
      </trkpt>
      <trkpt lat="46.1693" lon="6.30292">
        <ele>516</ele>
        <time>2026-01-12T14:37:56.999Z</time>
      </trkpt>
      <trkpt lat="46.16935" lon="6.30285">
        <ele>516</ele>
        <time>2026-01-12T14:37:58.999Z</time>
      </trkpt>
      <trkpt lat="46.16941" lon="6.30279">
        <ele>516</ele>
        <time>2026-01-12T14:38:00.999Z</time>
      </trkpt>
      <trkpt lat="46.16946" lon="6.30273">
        <ele>516</ele>
        <time>2026-01-12T14:38:02.999Z</time>
      </trkpt>
      <trkpt lat="46.16952" lon="6.30268">
        <ele>516</ele>
        <time>2026-01-12T14:38:04.999Z</time>
      </trkpt>
      <trkpt lat="46.16958" lon="6.30263">
        <ele>516</ele>
        <time>2026-01-12T14:38:06.999Z</time>
      </trkpt>
      <trkpt lat="46.16963" lon="6.30258">
        <ele>516</ele>
        <time>2026-01-12T14:38:08.999Z</time>
      </trkpt>
      <trkpt lat="46.16969" lon="6.30253">
        <ele>516</ele>
        <time>2026-01-12T14:38:10.999Z</time>
      </trkpt>
      <trkpt lat="46.16974" lon="6.30247">
        <ele>515</ele>
        <time>2026-01-12T14:38:12.999Z</time>
      </trkpt>
      <trkpt lat="46.1698" lon="6.30241">
        <ele>515</ele>
        <time>2026-01-12T14:38:14.999Z</time>
      </trkpt>
      <trkpt lat="46.16985" lon="6.30234">
        <ele>515</ele>
        <time>2026-01-12T14:38:16.999Z</time>
      </trkpt>
      <trkpt lat="46.1699" lon="6.30228">
        <ele>515</ele>
        <time>2026-01-12T14:38:18.999Z</time>
      </trkpt>
      <trkpt lat="46.16995" lon="6.30221">
        <ele>515</ele>
        <time>2026-01-12T14:38:20.999Z</time>
      </trkpt>
      <trkpt lat="46.17" lon="6.30216">
        <ele>515</ele>
        <time>2026-01-12T14:38:22.999Z</time>
      </trkpt>
      <trkpt lat="46.17005" lon="6.3021">
        <ele>515</ele>
        <time>2026-01-12T14:38:24.999Z</time>
      </trkpt>
      <trkpt lat="46.17009" lon="6.30204">
        <ele>515</ele>
        <time>2026-01-12T14:38:26.999Z</time>
      </trkpt>
      <trkpt lat="46.17014" lon="6.30199">
        <ele>515</ele>
        <time>2026-01-12T14:38:28.999Z</time>
      </trkpt>
      <trkpt lat="46.17019" lon="6.30193">
        <ele>515</ele>
        <time>2026-01-12T14:38:30.999Z</time>
      </trkpt>
      <trkpt lat="46.17023" lon="6.30189">
        <ele>515</ele>
        <time>2026-01-12T14:38:32.999Z</time>
      </trkpt>
      <trkpt lat="46.17026" lon="6.30184">
        <ele>515</ele>
        <time>2026-01-12T14:38:34.998Z</time>
      </trkpt>
      <trkpt lat="46.1703" lon="6.3018">
        <ele>515</ele>
        <time>2026-01-12T14:38:36.998Z</time>
      </trkpt>
      <trkpt lat="46.17034" lon="6.30173">
        <ele>515</ele>
        <time>2026-01-12T14:38:39.998Z</time>
      </trkpt>
      <trkpt lat="46.17038" lon="6.30166">
        <ele>516</ele>
        <time>2026-01-12T14:38:42.998Z</time>
      </trkpt>
      <trkpt lat="46.1704" lon="6.3016">
        <ele>516</ele>
        <time>2026-01-12T14:38:44.999Z</time>
      </trkpt>
      <trkpt lat="46.17043" lon="6.30155">
        <ele>516</ele>
        <time>2026-01-12T14:38:46.999Z</time>
      </trkpt>
      <trkpt lat="46.17047" lon="6.30145">
        <ele>516</ele>
        <time>2026-01-12T14:38:49.999Z</time>
      </trkpt>
      <trkpt lat="46.1705" lon="6.30139">
        <ele>516</ele>
        <time>2026-01-12T14:38:51.999Z</time>
      </trkpt>
      <trkpt lat="46.17052" lon="6.30132">
        <ele>516</ele>
        <time>2026-01-12T14:38:53.999Z</time>
      </trkpt>
      <trkpt lat="46.17054" lon="6.30126">
        <ele>516</ele>
        <time>2026-01-12T14:38:55.999Z</time>
      </trkpt>
      <trkpt lat="46.17057" lon="6.30119">
        <ele>516</ele>
        <time>2026-01-12T14:38:57.999Z</time>
      </trkpt>
      <trkpt lat="46.17059" lon="6.30112">
        <ele>516</ele>
        <time>2026-01-12T14:38:59.999Z</time>
      </trkpt>
      <trkpt lat="46.1706" lon="6.30106">
        <ele>516</ele>
        <time>2026-01-12T14:39:01.999Z</time>
      </trkpt>
      <trkpt lat="46.17062" lon="6.301">
        <ele>516</ele>
        <time>2026-01-12T14:39:03.999Z</time>
      </trkpt>
      <trkpt lat="46.17064" lon="6.30092">
        <ele>516</ele>
        <time>2026-01-12T14:39:05.999Z</time>
      </trkpt>
      <trkpt lat="46.17064" lon="6.30085">
        <ele>516</ele>
        <time>2026-01-12T14:39:07.999Z</time>
      </trkpt>
      <trkpt lat="46.17067" lon="6.30077">
        <ele>516</ele>
        <time>2026-01-12T14:39:10.999Z</time>
      </trkpt>
      <trkpt lat="46.17067" lon="6.3007">
        <ele>516</ele>
        <time>2026-01-12T14:39:12.999Z</time>
      </trkpt>
      <trkpt lat="46.17068" lon="6.30061">
        <ele>516</ele>
        <time>2026-01-12T14:39:15.999Z</time>
      </trkpt>
      <trkpt lat="46.17068" lon="6.3005">
        <ele>516</ele>
        <time>2026-01-12T14:39:18.999Z</time>
      </trkpt>
      <trkpt lat="46.17071" lon="6.30042">
        <ele>515</ele>
        <time>2026-01-12T14:39:20.999Z</time>
      </trkpt>
      <trkpt lat="46.17073" lon="6.30035">
        <ele>515</ele>
        <time>2026-01-12T14:39:22.999Z</time>
      </trkpt>
      <trkpt lat="46.17076" lon="6.30029">
        <ele>514</ele>
        <time>2026-01-12T14:39:24.999Z</time>
      </trkpt>
      <trkpt lat="46.17078" lon="6.30022">
        <ele>514</ele>
        <time>2026-01-12T14:39:26.999Z</time>
      </trkpt>
      <trkpt lat="46.17083" lon="6.30017">
        <ele>513</ele>
        <time>2026-01-12T14:39:28.999Z</time>
      </trkpt>
      <trkpt lat="46.17092" lon="6.30006">
        <ele>513</ele>
        <time>2026-01-12T14:39:32.999Z</time>
      </trkpt>
      <trkpt lat="46.17095" lon="6.29999">
        <ele>512</ele>
        <time>2026-01-12T14:39:34.999Z</time>
      </trkpt>
      <trkpt lat="46.17099" lon="6.29994">
        <ele>512</ele>
        <time>2026-01-12T14:39:36.999Z</time>
      </trkpt>
      <trkpt lat="46.17103" lon="6.29991">
        <ele>512</ele>
        <time>2026-01-12T14:39:38.999Z</time>
      </trkpt>
      <trkpt lat="46.17108" lon="6.29985">
        <ele>512</ele>
        <time>2026-01-12T14:39:40.999Z</time>
      </trkpt>
      <trkpt lat="46.17112" lon="6.2998">
        <ele>512</ele>
        <time>2026-01-12T14:39:42.999Z</time>
      </trkpt>
      <trkpt lat="46.17117" lon="6.29975">
        <ele>512</ele>
        <time>2026-01-12T14:39:44.999Z</time>
      </trkpt>
      <trkpt lat="46.17121" lon="6.29971">
        <ele>512</ele>
        <time>2026-01-12T14:39:46.999Z</time>
      </trkpt>
      <trkpt lat="46.17125" lon="6.29966">
        <ele>512</ele>
        <time>2026-01-12T14:39:48.999Z</time>
      </trkpt>
      <trkpt lat="46.1713" lon="6.2996">
        <ele>512</ele>
        <time>2026-01-12T14:39:50.999Z</time>
      </trkpt>
      <trkpt lat="46.17134" lon="6.29956">
        <ele>512</ele>
        <time>2026-01-12T14:39:52.999Z</time>
      </trkpt>
      <trkpt lat="46.17137" lon="6.2995">
        <ele>512</ele>
        <time>2026-01-12T14:39:54.999Z</time>
      </trkpt>
      <trkpt lat="46.17142" lon="6.29942">
        <ele>511</ele>
        <time>2026-01-12T14:39:56.999Z</time>
      </trkpt>
      <trkpt lat="46.17145" lon="6.29937">
        <ele>511</ele>
        <time>2026-01-12T14:39:58.999Z</time>
      </trkpt>
      <trkpt lat="46.1715" lon="6.29932">
        <ele>511</ele>
        <time>2026-01-12T14:40:00.999Z</time>
      </trkpt>
      <trkpt lat="46.17155" lon="6.29926">
        <ele>512</ele>
        <time>2026-01-12T14:40:03.999Z</time>
      </trkpt>
      <trkpt lat="46.1716" lon="6.29922">
        <ele>512</ele>
        <time>2026-01-12T14:40:04.999Z</time>
      </trkpt>
      <trkpt lat="46.17164" lon="6.29918">
        <ele>513</ele>
        <time>2026-01-12T14:40:06.999Z</time>
      </trkpt>
      <trkpt lat="46.17169" lon="6.29914">
        <ele>513</ele>
        <time>2026-01-12T14:40:08.999Z</time>
      </trkpt>
      <trkpt lat="46.17171" lon="6.29905">
        <ele>514</ele>
        <time>2026-01-12T14:40:10.999Z</time>
      </trkpt>
      <trkpt lat="46.17173" lon="6.29898">
        <ele>514</ele>
        <time>2026-01-12T14:40:12.999Z</time>
      </trkpt>
      <trkpt lat="46.17173" lon="6.29889">
        <ele>514</ele>
        <time>2026-01-12T14:40:14.999Z</time>
      </trkpt>
      <trkpt lat="46.17173" lon="6.29882">
        <ele>514</ele>
        <time>2026-01-12T14:40:16.999Z</time>
      </trkpt>
      <trkpt lat="46.17174" lon="6.29871">
        <ele>514</ele>
        <time>2026-01-12T14:40:18.999Z</time>
      </trkpt>
      <trkpt lat="46.17174" lon="6.29861">
        <ele>513</ele>
        <time>2026-01-12T14:40:20.999Z</time>
      </trkpt>
      <trkpt lat="46.17172" lon="6.29854">
        <ele>513</ele>
        <time>2026-01-12T14:40:21.999Z</time>
      </trkpt>
      <trkpt lat="46.17175" lon="6.29846">
        <ele>513</ele>
        <time>2026-01-12T14:40:23.999Z</time>
      </trkpt>
      <trkpt lat="46.17176" lon="6.29837">
        <ele>513</ele>
        <time>2026-01-12T14:40:25.999Z</time>
      </trkpt>
      <trkpt lat="46.17181" lon="6.29828">
        <ele>513</ele>
        <time>2026-01-12T14:40:27.999Z</time>
      </trkpt>
      <trkpt lat="46.17187" lon="6.29808">
        <ele>513</ele>
        <time>2026-01-12T14:40:32.999Z</time>
      </trkpt>
      <trkpt lat="46.1719" lon="6.298">
        <ele>513</ele>
        <time>2026-01-12T14:40:35.999Z</time>
      </trkpt>
      <trkpt lat="46.17191" lon="6.29793">
        <ele>513</ele>
        <time>2026-01-12T14:40:37.999Z</time>
      </trkpt>
      <trkpt lat="46.17191" lon="6.29785">
        <ele>513</ele>
        <time>2026-01-12T14:40:39.999Z</time>
      </trkpt>
      <trkpt lat="46.17191" lon="6.29778">
        <ele>513</ele>
        <time>2026-01-12T14:40:41.999Z</time>
      </trkpt>
      <trkpt lat="46.17192" lon="6.29768">
        <ele>513</ele>
        <time>2026-01-12T14:40:44.999Z</time>
      </trkpt>
      <trkpt lat="46.17193" lon="6.29762">
        <ele>512</ele>
        <time>2026-01-12T14:40:46.999Z</time>
      </trkpt>
      <trkpt lat="46.17195" lon="6.29754">
        <ele>512</ele>
        <time>2026-01-12T14:40:48.999Z</time>
      </trkpt>
      <trkpt lat="46.17198" lon="6.29748">
        <ele>511</ele>
        <time>2026-01-12T14:40:51.999Z</time>
      </trkpt>
      <trkpt lat="46.17201" lon="6.29742">
        <ele>511</ele>
        <time>2026-01-12T14:40:53.999Z</time>
      </trkpt>
      <trkpt lat="46.17205" lon="6.29735">
        <ele>510</ele>
        <time>2026-01-12T14:40:56.999Z</time>
      </trkpt>
      <trkpt lat="46.17207" lon="6.29726">
        <ele>510</ele>
        <time>2026-01-12T14:40:58.999Z</time>
      </trkpt>
      <trkpt lat="46.1721" lon="6.29704">
        <ele>509</ele>
        <time>2026-01-12T14:41:02.999Z</time>
      </trkpt>
      <trkpt lat="46.17212" lon="6.29695">
        <ele>508</ele>
        <time>2026-01-12T14:41:05.999Z</time>
      </trkpt>
      <trkpt lat="46.17212" lon="6.29687">
        <ele>508</ele>
        <time>2026-01-12T14:41:07.999Z</time>
      </trkpt>
      <trkpt lat="46.17212" lon="6.29679">
        <ele>508</ele>
        <time>2026-01-12T14:41:09.999Z</time>
      </trkpt>
      <trkpt lat="46.17211" lon="6.29666">
        <ele>508</ele>
        <time>2026-01-12T14:41:11.999Z</time>
      </trkpt>
      <trkpt lat="46.17211" lon="6.2966">
        <ele>508</ele>
        <time>2026-01-12T14:41:12.999Z</time>
      </trkpt>
      <trkpt lat="46.17209" lon="6.29649">
        <ele>508</ele>
        <time>2026-01-12T14:41:14.999Z</time>
      </trkpt>
      <trkpt lat="46.17207" lon="6.29638">
        <ele>509</ele>
        <time>2026-01-12T14:41:16.999Z</time>
      </trkpt>
      <trkpt lat="46.17205" lon="6.29632">
        <ele>509</ele>
        <time>2026-01-12T14:41:17.999Z</time>
      </trkpt>
      <trkpt lat="46.17203" lon="6.29623">
        <ele>509</ele>
        <time>2026-01-12T14:41:19.999Z</time>
      </trkpt>
      <trkpt lat="46.17203" lon="6.29616">
        <ele>509</ele>
        <time>2026-01-12T14:41:21.999Z</time>
      </trkpt>
      <trkpt lat="46.17202" lon="6.29606">
        <ele>510</ele>
        <time>2026-01-12T14:41:23.999Z</time>
      </trkpt>
      <trkpt lat="46.172" lon="6.29596">
        <ele>510</ele>
        <time>2026-01-12T14:41:26.999Z</time>
      </trkpt>
      <trkpt lat="46.172" lon="6.29587">
        <ele>510</ele>
        <time>2026-01-12T14:41:28.999Z</time>
      </trkpt>
      <trkpt lat="46.17201" lon="6.2958">
        <ele>510</ele>
        <time>2026-01-12T14:41:30.999Z</time>
      </trkpt>
      <trkpt lat="46.17203" lon="6.29572">
        <ele>509</ele>
        <time>2026-01-12T14:41:31.999Z</time>
      </trkpt>
      <trkpt lat="46.17202" lon="6.29564">
        <ele>509</ele>
        <time>2026-01-12T14:41:33.999Z</time>
      </trkpt>
      <trkpt lat="46.17198" lon="6.29554">
        <ele>508</ele>
        <time>2026-01-12T14:41:35.999Z</time>
      </trkpt>
      <trkpt lat="46.17192" lon="6.29549">
        <ele>507</ele>
        <time>2026-01-12T14:41:38.999Z</time>
      </trkpt>
      <trkpt lat="46.17187" lon="6.29544">
        <ele>507</ele>
        <time>2026-01-12T14:41:40.999Z</time>
      </trkpt>
      <trkpt lat="46.17181" lon="6.29538">
        <ele>507</ele>
        <time>2026-01-12T14:41:42.999Z</time>
      </trkpt>
      <trkpt lat="46.17177" lon="6.29534">
        <ele>507</ele>
        <time>2026-01-12T14:41:44.999Z</time>
      </trkpt>
      <trkpt lat="46.17172" lon="6.29526">
        <ele>507</ele>
        <time>2026-01-12T14:41:46.999Z</time>
      </trkpt>
      <trkpt lat="46.17171" lon="6.29519">
        <ele>507</ele>
        <time>2026-01-12T14:41:49.999Z</time>
      </trkpt>
      <trkpt lat="46.17169" lon="6.29513">
        <ele>508</ele>
        <time>2026-01-12T14:41:51.999Z</time>
      </trkpt>
      <trkpt lat="46.17166" lon="6.29503">
        <ele>508</ele>
        <time>2026-01-12T14:41:53.999Z</time>
      </trkpt>
      <trkpt lat="46.17165" lon="6.29497">
        <ele>508</ele>
        <time>2026-01-12T14:41:54.999Z</time>
      </trkpt>
      <trkpt lat="46.17161" lon="6.29487">
        <ele>508</ele>
        <time>2026-01-12T14:41:57.999Z</time>
      </trkpt>
      <trkpt lat="46.17156" lon="6.29468">
        <ele>508</ele>
        <time>2026-01-12T14:42:02.999Z</time>
      </trkpt>
      <trkpt lat="46.17154" lon="6.2946">
        <ele>508</ele>
        <time>2026-01-12T14:42:04.999Z</time>
      </trkpt>
      <trkpt lat="46.17151" lon="6.29451">
        <ele>508</ele>
        <time>2026-01-12T14:42:06.999Z</time>
      </trkpt>
      <trkpt lat="46.17148" lon="6.29446">
        <ele>509</ele>
        <time>2026-01-12T14:42:08.999Z</time>
      </trkpt>
      <trkpt lat="46.17145" lon="6.29439">
        <ele>509</ele>
        <time>2026-01-12T14:42:10.999Z</time>
      </trkpt>
      <trkpt lat="46.17142" lon="6.29433">
        <ele>510</ele>
        <time>2026-01-12T14:42:13.999Z</time>
      </trkpt>
      <trkpt lat="46.1714" lon="6.29427">
        <ele>510</ele>
        <time>2026-01-12T14:42:16.999Z</time>
      </trkpt>
      <trkpt lat="46.17138" lon="6.29416">
        <ele>510</ele>
        <time>2026-01-12T14:42:18.999Z</time>
      </trkpt>
      <trkpt lat="46.17136" lon="6.2941">
        <ele>510</ele>
        <time>2026-01-12T14:42:20.999Z</time>
      </trkpt>
      <trkpt lat="46.17133" lon="6.29402">
        <ele>511</ele>
        <time>2026-01-12T14:42:23.999Z</time>
      </trkpt>
      <trkpt lat="46.17133" lon="6.29394">
        <ele>511</ele>
        <time>2026-01-12T14:42:26.999Z</time>
      </trkpt>
      <trkpt lat="46.17134" lon="6.29386">
        <ele>512</ele>
        <time>2026-01-12T14:42:29.999Z</time>
      </trkpt>
      <trkpt lat="46.17136" lon="6.29377">
        <ele>512</ele>
        <time>2026-01-12T14:42:31.999Z</time>
      </trkpt>
      <trkpt lat="46.17136" lon="6.2937">
        <ele>511</ele>
        <time>2026-01-12T14:42:33.999Z</time>
      </trkpt>
      <trkpt lat="46.17132" lon="6.29354">
        <ele>511</ele>
        <time>2026-01-12T14:42:35.999Z</time>
      </trkpt>
      <trkpt lat="46.17129" lon="6.29347">
        <ele>511</ele>
        <time>2026-01-12T14:42:37.999Z</time>
      </trkpt>
      <trkpt lat="46.17125" lon="6.29341">
        <ele>511</ele>
        <time>2026-01-12T14:42:40.999Z</time>
      </trkpt>
      <trkpt lat="46.17124" lon="6.29334">
        <ele>511</ele>
        <time>2026-01-12T14:42:42.999Z</time>
      </trkpt>
      <trkpt lat="46.17121" lon="6.29322">
        <ele>511</ele>
        <time>2026-01-12T14:42:45.999Z</time>
      </trkpt>
      <trkpt lat="46.1712" lon="6.29311">
        <ele>511</ele>
        <time>2026-01-12T14:42:48.999Z</time>
      </trkpt>
      <trkpt lat="46.17119" lon="6.29302">
        <ele>511</ele>
        <time>2026-01-12T14:42:51.999Z</time>
      </trkpt>
      <trkpt lat="46.17118" lon="6.29296">
        <ele>511</ele>
        <time>2026-01-12T14:42:53.999Z</time>
      </trkpt>
      <trkpt lat="46.17116" lon="6.2929">
        <ele>511</ele>
        <time>2026-01-12T14:42:56.999Z</time>
      </trkpt>
      <trkpt lat="46.17109" lon="6.29273">
        <ele>511</ele>
        <time>2026-01-12T14:43:02.999Z</time>
      </trkpt>
      <trkpt lat="46.17109" lon="6.29266">
        <ele>511</ele>
        <time>2026-01-12T14:43:04.999Z</time>
      </trkpt>
      <trkpt lat="46.17107" lon="6.29259">
        <ele>511</ele>
        <time>2026-01-12T14:43:06.999Z</time>
      </trkpt>
      <trkpt lat="46.17103" lon="6.29253">
        <ele>512</ele>
        <time>2026-01-12T14:43:09.000Z</time>
      </trkpt>
      <trkpt lat="46.17099" lon="6.29248">
        <ele>512</ele>
        <time>2026-01-12T14:43:11.999Z</time>
      </trkpt>
      <trkpt lat="46.17094" lon="6.29244">
        <ele>513</ele>
        <time>2026-01-12T14:43:13.999Z</time>
      </trkpt>
      <trkpt lat="46.17091" lon="6.29238">
        <ele>513</ele>
        <time>2026-01-12T14:43:16.999Z</time>
      </trkpt>
      <trkpt lat="46.17088" lon="6.29232">
        <ele>514</ele>
        <time>2026-01-12T14:43:18.999Z</time>
      </trkpt>
      <trkpt lat="46.17085" lon="6.29225">
        <ele>514</ele>
        <time>2026-01-12T14:43:20.999Z</time>
      </trkpt>
      <trkpt lat="46.17083" lon="6.29218">
        <ele>513</ele>
        <time>2026-01-12T14:43:23.999Z</time>
      </trkpt>
      <trkpt lat="46.17081" lon="6.2921">
        <ele>513</ele>
        <time>2026-01-12T14:43:26.999Z</time>
      </trkpt>
      <trkpt lat="46.17079" lon="6.29204">
        <ele>513</ele>
        <time>2026-01-12T14:43:29.999Z</time>
      </trkpt>
      <trkpt lat="46.17078" lon="6.29197">
        <ele>513</ele>
        <time>2026-01-12T14:43:32.999Z</time>
      </trkpt>
      <trkpt lat="46.17075" lon="6.29185">
        <ele>513</ele>
        <time>2026-01-12T14:43:35.999Z</time>
      </trkpt>
      <trkpt lat="46.17066" lon="6.29195">
        <ele>515</ele>
        <time>2026-01-12T14:44:13.999Z</time>
      </trkpt>
      <trkpt lat="46.17065" lon="6.29188">
        <ele>514</ele>
        <time>2026-01-12T14:44:18.999Z</time>
      </trkpt>
      <trkpt lat="46.17067" lon="6.29181">
        <ele>514</ele>
        <time>2026-01-12T14:44:22.999Z</time>
      </trkpt>
      <trkpt lat="46.17071" lon="6.29177">
        <ele>513</ele>
        <time>2026-01-12T14:44:28.999Z</time>
      </trkpt>
      <trkpt lat="46.17062" lon="6.29141">
        <ele>512</ele>
        <time>2026-01-12T14:45:00.999Z</time>
      </trkpt>
      <trkpt lat="46.17058" lon="6.29135">
        <ele>512</ele>
        <time>2026-01-12T14:45:05.999Z</time>
      </trkpt>
      <trkpt lat="46.17054" lon="6.29128">
        <ele>512</ele>
        <time>2026-01-12T14:45:09.999Z</time>
      </trkpt>
      <trkpt lat="46.17053" lon="6.29121">
        <ele>512</ele>
        <time>2026-01-12T14:45:11.999Z</time>
      </trkpt>
      <trkpt lat="46.17049" lon="6.29116">
        <ele>512</ele>
        <time>2026-01-12T14:45:14.999Z</time>
      </trkpt>
      <trkpt lat="46.17046" lon="6.2911">
        <ele>512</ele>
        <time>2026-01-12T14:45:16.999Z</time>
      </trkpt>
      <trkpt lat="46.17043" lon="6.29103">
        <ele>513</ele>
        <time>2026-01-12T14:45:18.999Z</time>
      </trkpt>
      <trkpt lat="46.17043" lon="6.29095">
        <ele>513</ele>
        <time>2026-01-12T14:45:20.999Z</time>
      </trkpt>
      <trkpt lat="46.17042" lon="6.29087">
        <ele>514</ele>
        <time>2026-01-12T14:45:22.999Z</time>
      </trkpt>
      <trkpt lat="46.1704" lon="6.29078">
        <ele>514</ele>
        <time>2026-01-12T14:45:24.999Z</time>
      </trkpt>
      <trkpt lat="46.1704" lon="6.29069">
        <ele>514</ele>
        <time>2026-01-12T14:45:26.999Z</time>
      </trkpt>
      <trkpt lat="46.17038" lon="6.29059">
        <ele>514</ele>
        <time>2026-01-12T14:45:28.999Z</time>
      </trkpt>
      <trkpt lat="46.17038" lon="6.29051">
        <ele>514</ele>
        <time>2026-01-12T14:45:30.999Z</time>
      </trkpt>
      <trkpt lat="46.17037" lon="6.29042">
        <ele>514</ele>
        <time>2026-01-12T14:45:32.999Z</time>
      </trkpt>
      <trkpt lat="46.17038" lon="6.29033">
        <ele>514</ele>
        <time>2026-01-12T14:45:34.999Z</time>
      </trkpt>
      <trkpt lat="46.17037" lon="6.29025">
        <ele>514</ele>
        <time>2026-01-12T14:45:36.999Z</time>
      </trkpt>
      <trkpt lat="46.17038" lon="6.29016">
        <ele>515</ele>
        <time>2026-01-12T14:45:38.999Z</time>
      </trkpt>
      <trkpt lat="46.17038" lon="6.29008">
        <ele>515</ele>
        <time>2026-01-12T14:45:40.999Z</time>
      </trkpt>
      <trkpt lat="46.17036" lon="6.28998">
        <ele>515</ele>
        <time>2026-01-12T14:45:42.999Z</time>
      </trkpt>
      <trkpt lat="46.17035" lon="6.28986">
        <ele>515</ele>
        <time>2026-01-12T14:45:45.999Z</time>
      </trkpt>
      <trkpt lat="46.17034" lon="6.28978">
        <ele>516</ele>
        <time>2026-01-12T14:45:47.999Z</time>
      </trkpt>
      <trkpt lat="46.17032" lon="6.28971">
        <ele>516</ele>
        <time>2026-01-12T14:45:49.999Z</time>
      </trkpt>
      <trkpt lat="46.17031" lon="6.28964">
        <ele>516</ele>
        <time>2026-01-12T14:45:51.999Z</time>
      </trkpt>
      <trkpt lat="46.17029" lon="6.28957">
        <ele>517</ele>
        <time>2026-01-12T14:45:53.999Z</time>
      </trkpt>
      <trkpt lat="46.17026" lon="6.28949">
        <ele>517</ele>
        <time>2026-01-12T14:45:55.999Z</time>
      </trkpt>
      <trkpt lat="46.17023" lon="6.28941">
        <ele>517</ele>
        <time>2026-01-12T14:45:57.999Z</time>
      </trkpt>
      <trkpt lat="46.1702" lon="6.28934">
        <ele>517</ele>
        <time>2026-01-12T14:45:59.999Z</time>
      </trkpt>
      <trkpt lat="46.17018" lon="6.28925">
        <ele>518</ele>
        <time>2026-01-12T14:46:02.999Z</time>
      </trkpt>
      <trkpt lat="46.17015" lon="6.28919">
        <ele>518</ele>
        <time>2026-01-12T14:46:04.999Z</time>
      </trkpt>
      <trkpt lat="46.17012" lon="6.28912">
        <ele>518</ele>
        <time>2026-01-12T14:46:06.999Z</time>
      </trkpt>
      <trkpt lat="46.1701" lon="6.28903">
        <ele>518</ele>
        <time>2026-01-12T14:46:09.998Z</time>
      </trkpt>
      <trkpt lat="46.17006" lon="6.28898">
        <ele>518</ele>
        <time>2026-01-12T14:46:11.998Z</time>
      </trkpt>
      <trkpt lat="46.17004" lon="6.28893">
        <ele>518</ele>
        <time>2026-01-12T14:46:13.998Z</time>
      </trkpt>
      <trkpt lat="46.17001" lon="6.28885">
        <ele>518</ele>
        <time>2026-01-12T14:46:16.999Z</time>
      </trkpt>
      <trkpt lat="46.16999" lon="6.28879">
        <ele>518</ele>
        <time>2026-01-12T14:46:18.999Z</time>
      </trkpt>
      <trkpt lat="46.16996" lon="6.28871">
        <ele>518</ele>
        <time>2026-01-12T14:46:21.999Z</time>
      </trkpt>
      <trkpt lat="46.16994" lon="6.28861">
        <ele>518</ele>
        <time>2026-01-12T14:46:24.999Z</time>
      </trkpt>
      <trkpt lat="46.16993" lon="6.28854">
        <ele>518</ele>
        <time>2026-01-12T14:46:26.999Z</time>
      </trkpt>
      <trkpt lat="46.16991" lon="6.28846">
        <ele>517</ele>
        <time>2026-01-12T14:46:29.999Z</time>
      </trkpt>
      <trkpt lat="46.16989" lon="6.28837">
        <ele>517</ele>
        <time>2026-01-12T14:46:32.999Z</time>
      </trkpt>
      <trkpt lat="46.16988" lon="6.28829">
        <ele>516</ele>
        <time>2026-01-12T14:46:35.999Z</time>
      </trkpt>
      <trkpt lat="46.16986" lon="6.2882">
        <ele>516</ele>
        <time>2026-01-12T14:46:38.999Z</time>
      </trkpt>
      <trkpt lat="46.16986" lon="6.28811">
        <ele>515</ele>
        <time>2026-01-12T14:46:41.999Z</time>
      </trkpt>
      <trkpt lat="46.16983" lon="6.28803">
        <ele>515</ele>
        <time>2026-01-12T14:46:43.999Z</time>
      </trkpt>
      <trkpt lat="46.16982" lon="6.28797">
        <ele>515</ele>
        <time>2026-01-12T14:46:45.999Z</time>
      </trkpt>
      <trkpt lat="46.16979" lon="6.2879">
        <ele>515</ele>
        <time>2026-01-12T14:46:47.999Z</time>
      </trkpt>
      <trkpt lat="46.16976" lon="6.28784">
        <ele>515</ele>
        <time>2026-01-12T14:46:49.999Z</time>
      </trkpt>
      <trkpt lat="46.16972" lon="6.28776">
        <ele>515</ele>
        <time>2026-01-12T14:46:52.999Z</time>
      </trkpt>
      <trkpt lat="46.16969" lon="6.28771">
        <ele>515</ele>
        <time>2026-01-12T14:46:54.999Z</time>
      </trkpt>
      <trkpt lat="46.16966" lon="6.28764">
        <ele>516</ele>
        <time>2026-01-12T14:46:57.999Z</time>
      </trkpt>
      <trkpt lat="46.16961" lon="6.28757">
        <ele>516</ele>
        <time>2026-01-12T14:47:00.999Z</time>
      </trkpt>
      <trkpt lat="46.16957" lon="6.28751">
        <ele>515</ele>
        <time>2026-01-12T14:47:02.999Z</time>
      </trkpt>
      <trkpt lat="46.16954" lon="6.28744">
        <ele>515</ele>
        <time>2026-01-12T14:47:04.999Z</time>
      </trkpt>
      <trkpt lat="46.16951" lon="6.28737">
        <ele>515</ele>
        <time>2026-01-12T14:47:06.999Z</time>
      </trkpt>
      <trkpt lat="46.16947" lon="6.28729">
        <ele>515</ele>
        <time>2026-01-12T14:47:09.999Z</time>
      </trkpt>
      <trkpt lat="46.16945" lon="6.28722">
        <ele>515</ele>
        <time>2026-01-12T14:47:11.999Z</time>
      </trkpt>
      <trkpt lat="46.16943" lon="6.28715">
        <ele>515</ele>
        <time>2026-01-12T14:47:13.999Z</time>
      </trkpt>
      <trkpt lat="46.16941" lon="6.28708">
        <ele>514</ele>
        <time>2026-01-12T14:47:15.999Z</time>
      </trkpt>
      <trkpt lat="46.1694" lon="6.28702">
        <ele>514</ele>
        <time>2026-01-12T14:47:17.999Z</time>
      </trkpt>
      <trkpt lat="46.16937" lon="6.28692">
        <ele>514</ele>
        <time>2026-01-12T14:47:20.999Z</time>
      </trkpt>
      <trkpt lat="46.16936" lon="6.28685">
        <ele>514</ele>
        <time>2026-01-12T14:47:22.999Z</time>
      </trkpt>
      <trkpt lat="46.16935" lon="6.28679">
        <ele>514</ele>
        <time>2026-01-12T14:47:24.999Z</time>
      </trkpt>
      <trkpt lat="46.16933" lon="6.28671">
        <ele>514</ele>
        <time>2026-01-12T14:47:26.999Z</time>
      </trkpt>
      <trkpt lat="46.16931" lon="6.28664">
        <ele>514</ele>
        <time>2026-01-12T14:47:28.999Z</time>
      </trkpt>
      <trkpt lat="46.16927" lon="6.28652">
        <ele>514</ele>
        <time>2026-01-12T14:47:32.999Z</time>
      </trkpt>
      <trkpt lat="46.16926" lon="6.28644">
        <ele>515</ele>
        <time>2026-01-12T14:47:34.999Z</time>
      </trkpt>
      <trkpt lat="46.16922" lon="6.28636">
        <ele>515</ele>
        <time>2026-01-12T14:47:36.999Z</time>
      </trkpt>
      <trkpt lat="46.16918" lon="6.2863">
        <ele>516</ele>
        <time>2026-01-12T14:47:39.000Z</time>
      </trkpt>
      <trkpt lat="46.16914" lon="6.28624">
        <ele>515</ele>
        <time>2026-01-12T14:47:41.000Z</time>
      </trkpt>
      <trkpt lat="46.1691" lon="6.28616">
        <ele>515</ele>
        <time>2026-01-12T14:47:43.000Z</time>
      </trkpt>
      <trkpt lat="46.16906" lon="6.28608">
        <ele>515</ele>
        <time>2026-01-12T14:47:44.999Z</time>
      </trkpt>
      <trkpt lat="46.16903" lon="6.28598">
        <ele>515</ele>
        <time>2026-01-12T14:47:46.999Z</time>
      </trkpt>
      <trkpt lat="46.16904" lon="6.28588">
        <ele>514</ele>
        <time>2026-01-12T14:47:48.999Z</time>
      </trkpt>
      <trkpt lat="46.16903" lon="6.28579">
        <ele>514</ele>
        <time>2026-01-12T14:47:50.999Z</time>
      </trkpt>
      <trkpt lat="46.169" lon="6.28565">
        <ele>513</ele>
        <time>2026-01-12T14:47:53.999Z</time>
      </trkpt>
      <trkpt lat="46.169" lon="6.28558">
        <ele>513</ele>
        <time>2026-01-12T14:47:55.999Z</time>
      </trkpt>
      <trkpt lat="46.16897" lon="6.28547">
        <ele>513</ele>
        <time>2026-01-12T14:47:57.999Z</time>
      </trkpt>
      <trkpt lat="46.16891" lon="6.28514">
        <ele>513</ele>
        <time>2026-01-12T14:47:59.999Z</time>
      </trkpt>
      <trkpt lat="46.16889" lon="6.28505">
        <ele>513</ele>
        <time>2026-01-12T14:48:04.999Z</time>
      </trkpt>
      <trkpt lat="46.16887" lon="6.28494">
        <ele>513</ele>
        <time>2026-01-12T14:48:06.999Z</time>
      </trkpt>
      <trkpt lat="46.16886" lon="6.28484">
        <ele>513</ele>
        <time>2026-01-12T14:48:08.999Z</time>
      </trkpt>
      <trkpt lat="46.16886" lon="6.28475">
        <ele>513</ele>
        <time>2026-01-12T14:48:10.999Z</time>
      </trkpt>
      <trkpt lat="46.16886" lon="6.28464">
        <ele>513</ele>
        <time>2026-01-12T14:48:12.999Z</time>
      </trkpt>
      <trkpt lat="46.16885" lon="6.28453">
        <ele>513</ele>
        <time>2026-01-12T14:48:14.999Z</time>
      </trkpt>
      <trkpt lat="46.16888" lon="6.28443">
        <ele>513</ele>
        <time>2026-01-12T14:48:16.999Z</time>
      </trkpt>
      <trkpt lat="46.16889" lon="6.28434">
        <ele>512</ele>
        <time>2026-01-12T14:48:18.999Z</time>
      </trkpt>
      <trkpt lat="46.16891" lon="6.28424">
        <ele>512</ele>
        <time>2026-01-12T14:48:20.999Z</time>
      </trkpt>
      <trkpt lat="46.16893" lon="6.28413">
        <ele>511</ele>
        <time>2026-01-12T14:48:22.999Z</time>
      </trkpt>
      <trkpt lat="46.16895" lon="6.28404">
        <ele>511</ele>
        <time>2026-01-12T14:48:24.999Z</time>
      </trkpt>
      <trkpt lat="46.16895" lon="6.2839">
        <ele>510</ele>
        <time>2026-01-12T14:48:27.999Z</time>
      </trkpt>
      <trkpt lat="46.16894" lon="6.28382">
        <ele>510</ele>
        <time>2026-01-12T14:48:29.999Z</time>
      </trkpt>
      <trkpt lat="46.16892" lon="6.28372">
        <ele>510</ele>
        <time>2026-01-12T14:48:31.999Z</time>
      </trkpt>
      <trkpt lat="46.16892" lon="6.28365">
        <ele>511</ele>
        <time>2026-01-12T14:48:33.999Z</time>
      </trkpt>
      <trkpt lat="46.1689" lon="6.28355">
        <ele>511</ele>
        <time>2026-01-12T14:48:34.999Z</time>
      </trkpt>
      <trkpt lat="46.16889" lon="6.28346">
        <ele>512</ele>
        <time>2026-01-12T14:48:36.999Z</time>
      </trkpt>
      <trkpt lat="46.16889" lon="6.28335">
        <ele>511</ele>
        <time>2026-01-12T14:48:38.999Z</time>
      </trkpt>
      <trkpt lat="46.16891" lon="6.28324">
        <ele>511</ele>
        <time>2026-01-12T14:48:41.999Z</time>
      </trkpt>
      <trkpt lat="46.16893" lon="6.28312">
        <ele>511</ele>
        <time>2026-01-12T14:48:43.999Z</time>
      </trkpt>
      <trkpt lat="46.16894" lon="6.28306">
        <ele>510</ele>
        <time>2026-01-12T14:48:44.999Z</time>
      </trkpt>
      <trkpt lat="46.16896" lon="6.28297">
        <ele>510</ele>
        <time>2026-01-12T14:48:46.999Z</time>
      </trkpt>
      <trkpt lat="46.169" lon="6.28288">
        <ele>510</ele>
        <time>2026-01-12T14:48:48.999Z</time>
      </trkpt>
      <trkpt lat="46.169" lon="6.2828">
        <ele>510</ele>
        <time>2026-01-12T14:48:49.999Z</time>
      </trkpt>
      <trkpt lat="46.16901" lon="6.28273">
        <ele>510</ele>
        <time>2026-01-12T14:48:50.999Z</time>
      </trkpt>
      <trkpt lat="46.16903" lon="6.28267">
        <ele>510</ele>
        <time>2026-01-12T14:48:52.999Z</time>
      </trkpt>
      <trkpt lat="46.16904" lon="6.2826">
        <ele>510</ele>
        <time>2026-01-12T14:48:53.999Z</time>
      </trkpt>
      <trkpt lat="46.16907" lon="6.28246">
        <ele>510</ele>
        <time>2026-01-12T14:48:55.999Z</time>
      </trkpt>
      <trkpt lat="46.16908" lon="6.28235">
        <ele>510</ele>
        <time>2026-01-12T14:48:57.999Z</time>
      </trkpt>
      <trkpt lat="46.16909" lon="6.28226">
        <ele>510</ele>
        <time>2026-01-12T14:48:59.999Z</time>
      </trkpt>
      <trkpt lat="46.1691" lon="6.28216">
        <ele>510</ele>
        <time>2026-01-12T14:49:01.999Z</time>
      </trkpt>
      <trkpt lat="46.1691" lon="6.28207">
        <ele>510</ele>
        <time>2026-01-12T14:49:03.999Z</time>
      </trkpt>
      <trkpt lat="46.16911" lon="6.28196">
        <ele>510</ele>
        <time>2026-01-12T14:49:05.999Z</time>
      </trkpt>
      <trkpt lat="46.16912" lon="6.28188">
        <ele>510</ele>
        <time>2026-01-12T14:49:07.999Z</time>
      </trkpt>
      <trkpt lat="46.16913" lon="6.28181">
        <ele>510</ele>
        <time>2026-01-12T14:49:09.999Z</time>
      </trkpt>
      <trkpt lat="46.16914" lon="6.28174">
        <ele>510</ele>
        <time>2026-01-12T14:49:11.999Z</time>
      </trkpt>
      <trkpt lat="46.16914" lon="6.28164">
        <ele>511</ele>
        <time>2026-01-12T14:49:13.999Z</time>
      </trkpt>
      <trkpt lat="46.16911" lon="6.28156">
        <ele>511</ele>
        <time>2026-01-12T14:49:15.999Z</time>
      </trkpt>
      <trkpt lat="46.16907" lon="6.28147">
        <ele>511</ele>
        <time>2026-01-12T14:49:17.999Z</time>
      </trkpt>
      <trkpt lat="46.16903" lon="6.28139">
        <ele>511</ele>
        <time>2026-01-12T14:49:19.999Z</time>
      </trkpt>
      <trkpt lat="46.169" lon="6.28133">
        <ele>511</ele>
        <time>2026-01-12T14:49:21.999Z</time>
      </trkpt>
      <trkpt lat="46.16895" lon="6.28126">
        <ele>511</ele>
        <time>2026-01-12T14:49:23.999Z</time>
      </trkpt>
      <trkpt lat="46.16892" lon="6.28118">
        <ele>511</ele>
        <time>2026-01-12T14:49:25.999Z</time>
      </trkpt>
      <trkpt lat="46.16887" lon="6.28111">
        <ele>511</ele>
        <time>2026-01-12T14:49:27.999Z</time>
      </trkpt>
      <trkpt lat="46.16885" lon="6.28105">
        <ele>510</ele>
        <time>2026-01-12T14:49:28.999Z</time>
      </trkpt>
      <trkpt lat="46.1688" lon="6.28096">
        <ele>510</ele>
        <time>2026-01-12T14:49:30.999Z</time>
      </trkpt>
      <trkpt lat="46.16876" lon="6.28091">
        <ele>510</ele>
        <time>2026-01-12T14:49:31.999Z</time>
      </trkpt>
      <trkpt lat="46.16874" lon="6.28085">
        <ele>509</ele>
        <time>2026-01-12T14:49:32.999Z</time>
      </trkpt>
      <trkpt lat="46.16869" lon="6.28076">
        <ele>509</ele>
        <time>2026-01-12T14:49:34.999Z</time>
      </trkpt>
      <trkpt lat="46.16863" lon="6.28065">
        <ele>509</ele>
        <time>2026-01-12T14:49:36.999Z</time>
      </trkpt>
      <trkpt lat="46.1686" lon="6.28059">
        <ele>509</ele>
        <time>2026-01-12T14:49:37.999Z</time>
      </trkpt>
      <trkpt lat="46.16857" lon="6.28053">
        <ele>508</ele>
        <time>2026-01-12T14:49:38.999Z</time>
      </trkpt>
      <trkpt lat="46.16853" lon="6.28047">
        <ele>508</ele>
        <time>2026-01-12T14:49:40.999Z</time>
      </trkpt>
      <trkpt lat="46.1685" lon="6.28042">
        <ele>507</ele>
        <time>2026-01-12T14:49:42.999Z</time>
      </trkpt>
      <trkpt lat="46.16845" lon="6.2804">
        <ele>507</ele>
        <time>2026-01-12T14:49:46.999Z</time>
      </trkpt>
      <trkpt lat="46.1684" lon="6.28045">
        <ele>506</ele>
        <time>2026-01-12T14:49:48.999Z</time>
      </trkpt>
      <trkpt lat="46.16834" lon="6.2805">
        <ele>506</ele>
        <time>2026-01-12T14:49:50.999Z</time>
      </trkpt>
      <trkpt lat="46.16826" lon="6.2805">
        <ele>506</ele>
        <time>2026-01-12T14:49:52.999Z</time>
      </trkpt>
      <trkpt lat="46.16818" lon="6.28047">
        <ele>505</ele>
        <time>2026-01-12T14:49:54.999Z</time>
      </trkpt>
      <trkpt lat="46.16814" lon="6.28043">
        <ele>505</ele>
        <time>2026-01-12T14:49:55.999Z</time>
      </trkpt>
      <trkpt lat="46.16808" lon="6.2804">
        <ele>504</ele>
        <time>2026-01-12T14:49:56.999Z</time>
      </trkpt>
      <trkpt lat="46.16804" lon="6.28037">
        <ele>504</ele>
        <time>2026-01-12T14:49:57.999Z</time>
      </trkpt>
      <trkpt lat="46.16797" lon="6.28035">
        <ele>503</ele>
        <time>2026-01-12T14:49:58.999Z</time>
      </trkpt>
      <trkpt lat="46.1678" lon="6.28025">
        <ele>502</ele>
        <time>2026-01-12T14:50:02.999Z</time>
      </trkpt>
      <trkpt lat="46.16773" lon="6.2802">
        <ele>501</ele>
        <time>2026-01-12T14:50:03.999Z</time>
      </trkpt>
      <trkpt lat="46.16767" lon="6.28017">
        <ele>500</ele>
        <time>2026-01-12T14:50:04.999Z</time>
      </trkpt>
      <trkpt lat="46.16762" lon="6.28012">
        <ele>500</ele>
        <time>2026-01-12T14:50:05.999Z</time>
      </trkpt>
      <trkpt lat="46.16756" lon="6.28008">
        <ele>500</ele>
        <time>2026-01-12T14:50:06.999Z</time>
      </trkpt>
      <trkpt lat="46.16748" lon="6.28002">
        <ele>500</ele>
        <time>2026-01-12T14:50:07.999Z</time>
      </trkpt>
      <trkpt lat="46.16742" lon="6.27998">
        <ele>500</ele>
        <time>2026-01-12T14:50:08.999Z</time>
      </trkpt>
      <trkpt lat="46.16736" lon="6.27993">
        <ele>500</ele>
        <time>2026-01-12T14:50:09.999Z</time>
      </trkpt>
      <trkpt lat="46.16728" lon="6.27988">
        <ele>500</ele>
        <time>2026-01-12T14:50:10.999Z</time>
      </trkpt>
      <trkpt lat="46.16722" lon="6.27984">
        <ele>500</ele>
        <time>2026-01-12T14:50:11.999Z</time>
      </trkpt>
      <trkpt lat="46.16716" lon="6.27979">
        <ele>500</ele>
        <time>2026-01-12T14:50:12.999Z</time>
      </trkpt>
      <trkpt lat="46.16709" lon="6.27973">
        <ele>499</ele>
        <time>2026-01-12T14:50:13.999Z</time>
      </trkpt>
      <trkpt lat="46.16703" lon="6.27968">
        <ele>499</ele>
        <time>2026-01-12T14:50:14.999Z</time>
      </trkpt>
      <trkpt lat="46.16697" lon="6.27962">
        <ele>499</ele>
        <time>2026-01-12T14:50:15.999Z</time>
      </trkpt>
      <trkpt lat="46.16692" lon="6.27958">
        <ele>499</ele>
        <time>2026-01-12T14:50:16.999Z</time>
      </trkpt>
      <trkpt lat="46.16686" lon="6.27953">
        <ele>499</ele>
        <time>2026-01-12T14:50:17.999Z</time>
      </trkpt>
      <trkpt lat="46.1668" lon="6.27947">
        <ele>499</ele>
        <time>2026-01-12T14:50:18.999Z</time>
      </trkpt>
      <trkpt lat="46.16674" lon="6.27941">
        <ele>499</ele>
        <time>2026-01-12T14:50:19.999Z</time>
      </trkpt>
      <trkpt lat="46.16669" lon="6.27936">
        <ele>499</ele>
        <time>2026-01-12T14:50:20.999Z</time>
      </trkpt>
      <trkpt lat="46.16663" lon="6.27931">
        <ele>499</ele>
        <time>2026-01-12T14:50:21.999Z</time>
      </trkpt>
      <trkpt lat="46.16657" lon="6.27926">
        <ele>499</ele>
        <time>2026-01-12T14:50:22.999Z</time>
      </trkpt>
      <trkpt lat="46.16651" lon="6.27923">
        <ele>499</ele>
        <time>2026-01-12T14:50:23.999Z</time>
      </trkpt>
      <trkpt lat="46.16645" lon="6.27917">
        <ele>499</ele>
        <time>2026-01-12T14:50:24.999Z</time>
      </trkpt>
      <trkpt lat="46.1664" lon="6.27912">
        <ele>498</ele>
        <time>2026-01-12T14:50:25.999Z</time>
      </trkpt>
      <trkpt lat="46.16636" lon="6.27908">
        <ele>498</ele>
        <time>2026-01-12T14:50:26.999Z</time>
      </trkpt>
      <trkpt lat="46.1663" lon="6.27902">
        <ele>498</ele>
        <time>2026-01-12T14:50:27.999Z</time>
      </trkpt>
      <trkpt lat="46.16624" lon="6.279">
        <ele>497</ele>
        <time>2026-01-12T14:50:28.999Z</time>
      </trkpt>
      <trkpt lat="46.16618" lon="6.27894">
        <ele>497</ele>
        <time>2026-01-12T14:50:29.999Z</time>
      </trkpt>
      <trkpt lat="46.16612" lon="6.27889">
        <ele>497</ele>
        <time>2026-01-12T14:50:30.999Z</time>
      </trkpt>
      <trkpt lat="46.16606" lon="6.27885">
        <ele>497</ele>
        <time>2026-01-12T14:50:31.999Z</time>
      </trkpt>
      <trkpt lat="46.16601" lon="6.2788">
        <ele>496</ele>
        <time>2026-01-12T14:50:32.999Z</time>
      </trkpt>
      <trkpt lat="46.16594" lon="6.27875">
        <ele>496</ele>
        <time>2026-01-12T14:50:33.999Z</time>
      </trkpt>
      <trkpt lat="46.16587" lon="6.27871">
        <ele>495</ele>
        <time>2026-01-12T14:50:34.999Z</time>
      </trkpt>
      <trkpt lat="46.16581" lon="6.27866">
        <ele>495</ele>
        <time>2026-01-12T14:50:35.999Z</time>
      </trkpt>
      <trkpt lat="46.16574" lon="6.2786">
        <ele>495</ele>
        <time>2026-01-12T14:50:36.999Z</time>
      </trkpt>
      <trkpt lat="46.16567" lon="6.27855">
        <ele>495</ele>
        <time>2026-01-12T14:50:37.999Z</time>
      </trkpt>
      <trkpt lat="46.16561" lon="6.2785">
        <ele>495</ele>
        <time>2026-01-12T14:50:38.999Z</time>
      </trkpt>
      <trkpt lat="46.16555" lon="6.27845">
        <ele>495</ele>
        <time>2026-01-12T14:50:39.999Z</time>
      </trkpt>
      <trkpt lat="46.16548" lon="6.2784">
        <ele>494</ele>
        <time>2026-01-12T14:50:40.999Z</time>
      </trkpt>
      <trkpt lat="46.16542" lon="6.27836">
        <ele>494</ele>
        <time>2026-01-12T14:50:41.999Z</time>
      </trkpt>
      <trkpt lat="46.16535" lon="6.27831">
        <ele>494</ele>
        <time>2026-01-12T14:50:42.999Z</time>
      </trkpt>
      <trkpt lat="46.16529" lon="6.27826">
        <ele>494</ele>
        <time>2026-01-12T14:50:43.999Z</time>
      </trkpt>
      <trkpt lat="46.16523" lon="6.27821">
        <ele>494</ele>
        <time>2026-01-12T14:50:44.999Z</time>
      </trkpt>
      <trkpt lat="46.16517" lon="6.27817">
        <ele>494</ele>
        <time>2026-01-12T14:50:45.999Z</time>
      </trkpt>
      <trkpt lat="46.16511" lon="6.27813">
        <ele>493</ele>
        <time>2026-01-12T14:50:46.999Z</time>
      </trkpt>
      <trkpt lat="46.16505" lon="6.27809">
        <ele>493</ele>
        <time>2026-01-12T14:50:47.999Z</time>
      </trkpt>
      <trkpt lat="46.165" lon="6.27804">
        <ele>493</ele>
        <time>2026-01-12T14:50:48.999Z</time>
      </trkpt>
      <trkpt lat="46.16494" lon="6.278">
        <ele>492</ele>
        <time>2026-01-12T14:50:49.999Z</time>
      </trkpt>
      <trkpt lat="46.16489" lon="6.27796">
        <ele>492</ele>
        <time>2026-01-12T14:50:50.999Z</time>
      </trkpt>
      <trkpt lat="46.16483" lon="6.27792">
        <ele>492</ele>
        <time>2026-01-12T14:50:51.999Z</time>
      </trkpt>
      <trkpt lat="46.16478" lon="6.27787">
        <ele>492</ele>
        <time>2026-01-12T14:50:52.999Z</time>
      </trkpt>
      <trkpt lat="46.16473" lon="6.27783">
        <ele>492</ele>
        <time>2026-01-12T14:50:53.999Z</time>
      </trkpt>
      <trkpt lat="46.16467" lon="6.27778">
        <ele>492</ele>
        <time>2026-01-12T14:50:54.999Z</time>
      </trkpt>
      <trkpt lat="46.16462" lon="6.27775">
        <ele>492</ele>
        <time>2026-01-12T14:50:55.999Z</time>
      </trkpt>
      <trkpt lat="46.16457" lon="6.27771">
        <ele>492</ele>
        <time>2026-01-12T14:50:56.999Z</time>
      </trkpt>
      <trkpt lat="46.16452" lon="6.27768">
        <ele>492</ele>
        <time>2026-01-12T14:50:57.999Z</time>
      </trkpt>
      <trkpt lat="46.16446" lon="6.27763">
        <ele>492</ele>
        <time>2026-01-12T14:50:58.999Z</time>
      </trkpt>
      <trkpt lat="46.16441" lon="6.2776">
        <ele>492</ele>
        <time>2026-01-12T14:50:59.999Z</time>
      </trkpt>
      <trkpt lat="46.16437" lon="6.27756">
        <ele>492</ele>
        <time>2026-01-12T14:51:00.999Z</time>
      </trkpt>
      <trkpt lat="46.16432" lon="6.27751">
        <ele>492</ele>
        <time>2026-01-12T14:51:01.999Z</time>
      </trkpt>
      <trkpt lat="46.16427" lon="6.27747">
        <ele>492</ele>
        <time>2026-01-12T14:51:02.999Z</time>
      </trkpt>
      <trkpt lat="46.16421" lon="6.27744">
        <ele>491</ele>
        <time>2026-01-12T14:51:03.999Z</time>
      </trkpt>
      <trkpt lat="46.16416" lon="6.2774">
        <ele>491</ele>
        <time>2026-01-12T14:51:04.999Z</time>
      </trkpt>
      <trkpt lat="46.1641" lon="6.27735">
        <ele>490</ele>
        <time>2026-01-12T14:51:05.999Z</time>
      </trkpt>
      <trkpt lat="46.16405" lon="6.27732">
        <ele>490</ele>
        <time>2026-01-12T14:51:06.999Z</time>
      </trkpt>
      <trkpt lat="46.164" lon="6.27729">
        <ele>490</ele>
        <time>2026-01-12T14:51:07.999Z</time>
      </trkpt>
      <trkpt lat="46.16394" lon="6.27727">
        <ele>489</ele>
        <time>2026-01-12T14:51:08.999Z</time>
      </trkpt>
      <trkpt lat="46.16387" lon="6.27724">
        <ele>489</ele>
        <time>2026-01-12T14:51:09.999Z</time>
      </trkpt>
      <trkpt lat="46.16381" lon="6.2772">
        <ele>488</ele>
        <time>2026-01-12T14:51:10.999Z</time>
      </trkpt>
      <trkpt lat="46.16375" lon="6.27718">
        <ele>488</ele>
        <time>2026-01-12T14:51:11.999Z</time>
      </trkpt>
      <trkpt lat="46.16369" lon="6.27714">
        <ele>487</ele>
        <time>2026-01-12T14:51:12.999Z</time>
      </trkpt>
      <trkpt lat="46.16362" lon="6.27713">
        <ele>487</ele>
        <time>2026-01-12T14:51:13.999Z</time>
      </trkpt>
      <trkpt lat="46.16355" lon="6.2771">
        <ele>486</ele>
        <time>2026-01-12T14:51:14.999Z</time>
      </trkpt>
      <trkpt lat="46.16348" lon="6.27708">
        <ele>486</ele>
        <time>2026-01-12T14:51:15.999Z</time>
      </trkpt>
      <trkpt lat="46.16342" lon="6.27704">
        <ele>486</ele>
        <time>2026-01-12T14:51:16.999Z</time>
      </trkpt>
      <trkpt lat="46.16336" lon="6.27702">
        <ele>486</ele>
        <time>2026-01-12T14:51:17.999Z</time>
      </trkpt>
      <trkpt lat="46.16331" lon="6.27698">
        <ele>485</ele>
        <time>2026-01-12T14:51:18.999Z</time>
      </trkpt>
      <trkpt lat="46.16327" lon="6.27696">
        <ele>485</ele>
        <time>2026-01-12T14:51:19.999Z</time>
      </trkpt>
      <trkpt lat="46.16322" lon="6.27694">
        <ele>484</ele>
        <time>2026-01-12T14:51:20.999Z</time>
      </trkpt>
      <trkpt lat="46.16315" lon="6.27689">
        <ele>484</ele>
        <time>2026-01-12T14:51:22.999Z</time>
      </trkpt>
      <trkpt lat="46.16306" lon="6.27694">
        <ele>483</ele>
        <time>2026-01-12T14:51:24.999Z</time>
      </trkpt>
      <trkpt lat="46.16302" lon="6.27698">
        <ele>483</ele>
        <time>2026-01-12T14:51:25.999Z</time>
      </trkpt>
      <trkpt lat="46.16299" lon="6.27703">
        <ele>483</ele>
        <time>2026-01-12T14:51:26.999Z</time>
      </trkpt>
      <trkpt lat="46.16295" lon="6.27709">
        <ele>483</ele>
        <time>2026-01-12T14:51:27.999Z</time>
      </trkpt>
      <trkpt lat="46.1629" lon="6.27716">
        <ele>483</ele>
        <time>2026-01-12T14:51:28.999Z</time>
      </trkpt>
      <trkpt lat="46.16286" lon="6.27724">
        <ele>483</ele>
        <time>2026-01-12T14:51:29.999Z</time>
      </trkpt>
      <trkpt lat="46.16282" lon="6.2773">
        <ele>483</ele>
        <time>2026-01-12T14:51:30.999Z</time>
      </trkpt>
      <trkpt lat="46.16278" lon="6.27737">
        <ele>483</ele>
        <time>2026-01-12T14:51:31.999Z</time>
      </trkpt>
      <trkpt lat="46.16275" lon="6.27743">
        <ele>483</ele>
        <time>2026-01-12T14:51:32.999Z</time>
      </trkpt>
      <trkpt lat="46.16271" lon="6.2775">
        <ele>483</ele>
        <time>2026-01-12T14:51:33.999Z</time>
      </trkpt>
      <trkpt lat="46.16268" lon="6.27755">
        <ele>483</ele>
        <time>2026-01-12T14:51:34.999Z</time>
      </trkpt>
      <trkpt lat="46.16266" lon="6.27762">
        <ele>482</ele>
        <time>2026-01-12T14:51:35.999Z</time>
      </trkpt>
      <trkpt lat="46.16262" lon="6.27767">
        <ele>482</ele>
        <time>2026-01-12T14:51:36.999Z</time>
      </trkpt>
      <trkpt lat="46.16256" lon="6.27778">
        <ele>481</ele>
        <time>2026-01-12T14:51:38.999Z</time>
      </trkpt>
      <trkpt lat="46.16253" lon="6.27783">
        <ele>481</ele>
        <time>2026-01-12T14:51:39.999Z</time>
      </trkpt>
      <trkpt lat="46.16249" lon="6.27789">
        <ele>481</ele>
        <time>2026-01-12T14:51:40.999Z</time>
      </trkpt>
      <trkpt lat="46.16246" lon="6.27794">
        <ele>481</ele>
        <time>2026-01-12T14:51:41.999Z</time>
      </trkpt>
      <trkpt lat="46.16242" lon="6.278">
        <ele>481</ele>
        <time>2026-01-12T14:51:42.999Z</time>
      </trkpt>
      <trkpt lat="46.16239" lon="6.27806">
        <ele>481</ele>
        <time>2026-01-12T14:51:43.999Z</time>
      </trkpt>
      <trkpt lat="46.16235" lon="6.27811">
        <ele>481</ele>
        <time>2026-01-12T14:51:44.999Z</time>
      </trkpt>
      <trkpt lat="46.16232" lon="6.27816">
        <ele>481</ele>
        <time>2026-01-12T14:51:45.999Z</time>
      </trkpt>
      <trkpt lat="46.16228" lon="6.27821">
        <ele>481</ele>
        <time>2026-01-12T14:51:46.999Z</time>
      </trkpt>
      <trkpt lat="46.16225" lon="6.27826">
        <ele>480</ele>
        <time>2026-01-12T14:51:47.999Z</time>
      </trkpt>
      <trkpt lat="46.16222" lon="6.27832">
        <ele>480</ele>
        <time>2026-01-12T14:51:48.999Z</time>
      </trkpt>
      <trkpt lat="46.16217" lon="6.27844">
        <ele>480</ele>
        <time>2026-01-12T14:51:50.999Z</time>
      </trkpt>
      <trkpt lat="46.1621" lon="6.27854">
        <ele>480</ele>
        <time>2026-01-12T14:51:52.999Z</time>
      </trkpt>
      <trkpt lat="46.16206" lon="6.27859">
        <ele>480</ele>
        <time>2026-01-12T14:51:53.999Z</time>
      </trkpt>
      <trkpt lat="46.16203" lon="6.27865">
        <ele>480</ele>
        <time>2026-01-12T14:51:54.999Z</time>
      </trkpt>
      <trkpt lat="46.162" lon="6.2787">
        <ele>480</ele>
        <time>2026-01-12T14:51:55.999Z</time>
      </trkpt>
      <trkpt lat="46.16194" lon="6.27878">
        <ele>480</ele>
        <time>2026-01-12T14:51:57.999Z</time>
      </trkpt>
      <trkpt lat="46.16205" lon="6.27901">
        <ele>480</ele>
        <time>2026-01-12T14:52:02.999Z</time>
      </trkpt>
      <trkpt lat="46.16212" lon="6.27905">
        <ele>481</ele>
        <time>2026-01-12T14:52:04.999Z</time>
      </trkpt>
      <trkpt lat="46.16218" lon="6.2791">
        <ele>481</ele>
        <time>2026-01-12T14:52:06.999Z</time>
      </trkpt>
      <trkpt lat="46.16224" lon="6.27914">
        <ele>482</ele>
        <time>2026-01-12T14:52:08.999Z</time>
      </trkpt>
      <trkpt lat="46.1623" lon="6.27918">
        <ele>482</ele>
        <time>2026-01-12T14:52:10.999Z</time>
      </trkpt>
      <trkpt lat="46.16237" lon="6.27923">
        <ele>482</ele>
        <time>2026-01-12T14:52:12.999Z</time>
      </trkpt>
      <trkpt lat="46.16243" lon="6.27926">
        <ele>483</ele>
        <time>2026-01-12T14:52:14.999Z</time>
      </trkpt>
      <trkpt lat="46.16248" lon="6.27929">
        <ele>483</ele>
        <time>2026-01-12T14:52:16.999Z</time>
      </trkpt>
      <trkpt lat="46.16252" lon="6.27931">
        <ele>483</ele>
        <time>2026-01-12T14:52:18.999Z</time>
      </trkpt>
      <trkpt lat="46.16259" lon="6.27936">
        <ele>483</ele>
        <time>2026-01-12T14:52:21.999Z</time>
      </trkpt>
      <trkpt lat="46.16264" lon="6.27939">
        <ele>483</ele>
        <time>2026-01-12T14:52:23.999Z</time>
      </trkpt>
      <trkpt lat="46.16268" lon="6.27942">
        <ele>484</ele>
        <time>2026-01-12T14:52:25.999Z</time>
      </trkpt>
      <trkpt lat="46.16273" lon="6.27945">
        <ele>484</ele>
        <time>2026-01-12T14:52:27.999Z</time>
      </trkpt>
      <trkpt lat="46.16288" lon="6.27951">
        <ele>484</ele>
        <time>2026-01-12T14:52:32.999Z</time>
      </trkpt>
      <trkpt lat="46.16292" lon="6.27954">
        <ele>484</ele>
        <time>2026-01-12T14:52:34.999Z</time>
      </trkpt>
      <trkpt lat="46.16296" lon="6.27958">
        <ele>484</ele>
        <time>2026-01-12T14:52:36.999Z</time>
      </trkpt>
      <trkpt lat="46.16301" lon="6.27962">
        <ele>484</ele>
        <time>2026-01-12T14:52:38.999Z</time>
      </trkpt>
      <trkpt lat="46.16306" lon="6.27966">
        <ele>485</ele>
        <time>2026-01-12T14:52:40.999Z</time>
      </trkpt>
      <trkpt lat="46.16311" lon="6.27969">
        <ele>485</ele>
        <time>2026-01-12T14:52:42.999Z</time>
      </trkpt>
      <trkpt lat="46.16315" lon="6.27972">
        <ele>486</ele>
        <time>2026-01-12T14:52:44.999Z</time>
      </trkpt>
      <trkpt lat="46.1632" lon="6.27974">
        <ele>486</ele>
        <time>2026-01-12T14:52:46.999Z</time>
      </trkpt>
      <trkpt lat="46.16325" lon="6.27977">
        <ele>486</ele>
        <time>2026-01-12T14:52:48.999Z</time>
      </trkpt>
      <trkpt lat="46.16329" lon="6.2798">
        <ele>486</ele>
        <time>2026-01-12T14:52:50.999Z</time>
      </trkpt>
      <trkpt lat="46.16334" lon="6.27982">
        <ele>486</ele>
        <time>2026-01-12T14:52:52.999Z</time>
      </trkpt>
      <trkpt lat="46.16339" lon="6.27984">
        <ele>487</ele>
        <time>2026-01-12T14:52:54.999Z</time>
      </trkpt>
      <trkpt lat="46.16344" lon="6.27987">
        <ele>487</ele>
        <time>2026-01-12T14:52:56.999Z</time>
      </trkpt>
      <trkpt lat="46.16348" lon="6.27989">
        <ele>487</ele>
        <time>2026-01-12T14:52:58.999Z</time>
      </trkpt>
      <trkpt lat="46.16353" lon="6.27992">
        <ele>487</ele>
        <time>2026-01-12T14:53:00.999Z</time>
      </trkpt>
      <trkpt lat="46.16358" lon="6.27994">
        <ele>487</ele>
        <time>2026-01-12T14:53:02.999Z</time>
      </trkpt>
      <trkpt lat="46.16363" lon="6.27994">
        <ele>488</ele>
        <time>2026-01-12T14:53:04.999Z</time>
      </trkpt>
      <trkpt lat="46.16369" lon="6.27997">
        <ele>489</ele>
        <time>2026-01-12T14:53:06.999Z</time>
      </trkpt>
      <trkpt lat="46.16373" lon="6.28002">
        <ele>490</ele>
        <time>2026-01-12T14:53:08.999Z</time>
      </trkpt>
      <trkpt lat="46.16378" lon="6.28004">
        <ele>490</ele>
        <time>2026-01-12T14:53:10.999Z</time>
      </trkpt>
      <trkpt lat="46.16383" lon="6.28008">
        <ele>491</ele>
        <time>2026-01-12T14:53:12.999Z</time>
      </trkpt>
      <trkpt lat="46.16388" lon="6.28013">
        <ele>491</ele>
        <time>2026-01-12T14:53:15.999Z</time>
      </trkpt>
      <trkpt lat="46.16388" lon="6.28022">
        <ele>491</ele>
        <time>2026-01-12T14:53:18.999Z</time>
      </trkpt>
      <trkpt lat="46.16385" lon="6.28028">
        <ele>491</ele>
        <time>2026-01-12T14:53:20.999Z</time>
      </trkpt>
      <trkpt lat="46.16382" lon="6.28035">
        <ele>491</ele>
        <time>2026-01-12T14:53:22.999Z</time>
      </trkpt>
      <trkpt lat="46.16381" lon="6.28042">
        <ele>491</ele>
        <time>2026-01-12T14:53:24.999Z</time>
      </trkpt>
      <trkpt lat="46.16381" lon="6.28051">
        <ele>490</ele>
        <time>2026-01-12T14:53:26.999Z</time>
      </trkpt>
      <trkpt lat="46.16382" lon="6.28058">
        <ele>490</ele>
        <time>2026-01-12T14:53:28.999Z</time>
      </trkpt>
      <trkpt lat="46.16389" lon="6.28064">
        <ele>490</ele>
        <time>2026-01-12T14:53:32.999Z</time>
      </trkpt>
      <trkpt lat="46.16395" lon="6.28066">
        <ele>490</ele>
        <time>2026-01-12T14:53:35.999Z</time>
      </trkpt>
      <trkpt lat="46.164" lon="6.28068">
        <ele>490</ele>
        <time>2026-01-12T14:53:37.999Z</time>
      </trkpt>
      <trkpt lat="46.16407" lon="6.28069">
        <ele>490</ele>
        <time>2026-01-12T14:53:41.000Z</time>
      </trkpt>
      <trkpt lat="46.16413" lon="6.28071">
        <ele>490</ele>
        <time>2026-01-12T14:53:44.000Z</time>
      </trkpt>
      <trkpt lat="46.16419" lon="6.28073">
        <ele>490</ele>
        <time>2026-01-12T14:53:47.000Z</time>
      </trkpt>
      <trkpt lat="46.16423" lon="6.28075">
        <ele>491</ele>
        <time>2026-01-12T14:53:49.000Z</time>
      </trkpt>
      <trkpt lat="46.16428" lon="6.28077">
        <ele>491</ele>
        <time>2026-01-12T14:53:50.999Z</time>
      </trkpt>
      <trkpt lat="46.16433" lon="6.28079">
        <ele>491</ele>
        <time>2026-01-12T14:53:52.999Z</time>
      </trkpt>
      <trkpt lat="46.16438" lon="6.28082">
        <ele>491</ele>
        <time>2026-01-12T14:53:54.999Z</time>
      </trkpt>
      <trkpt lat="46.16443" lon="6.28085">
        <ele>492</ele>
        <time>2026-01-12T14:53:56.999Z</time>
      </trkpt>
      <trkpt lat="46.16448" lon="6.28087">
        <ele>492</ele>
        <time>2026-01-12T14:53:58.999Z</time>
      </trkpt>
      <trkpt lat="46.16452" lon="6.2809">
        <ele>492</ele>
        <time>2026-01-12T14:54:00.999Z</time>
      </trkpt>
      <trkpt lat="46.16457" lon="6.28092">
        <ele>492</ele>
        <time>2026-01-12T14:54:02.999Z</time>
      </trkpt>
      <trkpt lat="46.16461" lon="6.28094">
        <ele>492</ele>
        <time>2026-01-12T14:54:04.999Z</time>
      </trkpt>
      <trkpt lat="46.16466" lon="6.28099">
        <ele>492</ele>
        <time>2026-01-12T14:54:05.999Z</time>
      </trkpt>
      <trkpt lat="46.16471" lon="6.28101">
        <ele>493</ele>
        <time>2026-01-12T14:54:07.999Z</time>
      </trkpt>
      <trkpt lat="46.16477" lon="6.28105">
        <ele>493</ele>
        <time>2026-01-12T14:54:10.999Z</time>
      </trkpt>
      <trkpt lat="46.16481" lon="6.28108">
        <ele>494</ele>
        <time>2026-01-12T14:54:12.999Z</time>
      </trkpt>
      <trkpt lat="46.16486" lon="6.28111">
        <ele>494</ele>
        <time>2026-01-12T14:54:14.999Z</time>
      </trkpt>
      <trkpt lat="46.16493" lon="6.28114">
        <ele>494</ele>
        <time>2026-01-12T14:54:17.999Z</time>
      </trkpt>
      <trkpt lat="46.16499" lon="6.28115">
        <ele>494</ele>
        <time>2026-01-12T14:54:20.999Z</time>
      </trkpt>
      <trkpt lat="46.16504" lon="6.28119">
        <ele>494</ele>
        <time>2026-01-12T14:54:22.999Z</time>
      </trkpt>
      <trkpt lat="46.1651" lon="6.28122">
        <ele>493</ele>
        <time>2026-01-12T14:54:25.999Z</time>
      </trkpt>
      <trkpt lat="46.16515" lon="6.28125">
        <ele>492</ele>
        <time>2026-01-12T14:54:27.999Z</time>
      </trkpt>
      <trkpt lat="46.16522" lon="6.28123">
        <ele>491</ele>
        <time>2026-01-12T14:54:32.999Z</time>
      </trkpt>
      <trkpt lat="46.16528" lon="6.28124">
        <ele>490</ele>
        <time>2026-01-12T14:54:35.999Z</time>
      </trkpt>
      <trkpt lat="46.16532" lon="6.28127">
        <ele>490</ele>
        <time>2026-01-12T14:54:37.999Z</time>
      </trkpt>
      <trkpt lat="46.16539" lon="6.2813">
        <ele>490</ele>
        <time>2026-01-12T14:54:40.999Z</time>
      </trkpt>
      <trkpt lat="46.16543" lon="6.28132">
        <ele>491</ele>
        <time>2026-01-12T14:54:42.999Z</time>
      </trkpt>
      <trkpt lat="46.16548" lon="6.28135">
        <ele>491</ele>
        <time>2026-01-12T14:54:44.999Z</time>
      </trkpt>
      <trkpt lat="46.16554" lon="6.28138">
        <ele>491</ele>
        <time>2026-01-12T14:54:47.999Z</time>
      </trkpt>
      <trkpt lat="46.1656" lon="6.28142">
        <ele>491</ele>
        <time>2026-01-12T14:54:49.999Z</time>
      </trkpt>
      <trkpt lat="46.16566" lon="6.28145">
        <ele>491</ele>
        <time>2026-01-12T14:54:52.999Z</time>
      </trkpt>
      <trkpt lat="46.16571" lon="6.28148">
        <ele>491</ele>
        <time>2026-01-12T14:54:54.999Z</time>
      </trkpt>
      <trkpt lat="46.16575" lon="6.28151">
        <ele>491</ele>
        <time>2026-01-12T14:54:56.999Z</time>
      </trkpt>
      <trkpt lat="46.1658" lon="6.28155">
        <ele>491</ele>
        <time>2026-01-12T14:54:58.999Z</time>
      </trkpt>
      <trkpt lat="46.16585" lon="6.28159">
        <ele>492</ele>
        <time>2026-01-12T14:55:00.999Z</time>
      </trkpt>
      <trkpt lat="46.1659" lon="6.28162">
        <ele>494</ele>
        <time>2026-01-12T14:55:02.999Z</time>
      </trkpt>
      <trkpt lat="46.16598" lon="6.28172">
        <ele>495</ele>
        <time>2026-01-12T14:55:04.999Z</time>
      </trkpt>
      <trkpt lat="46.16602" lon="6.28175">
        <ele>497</ele>
        <time>2026-01-12T14:55:06.999Z</time>
      </trkpt>
      <trkpt lat="46.16606" lon="6.28178">
        <ele>497</ele>
        <time>2026-01-12T14:55:08.999Z</time>
      </trkpt>
      <trkpt lat="46.16611" lon="6.28181">
        <ele>498</ele>
        <time>2026-01-12T14:55:10.999Z</time>
      </trkpt>
      <trkpt lat="46.16615" lon="6.28183">
        <ele>498</ele>
        <time>2026-01-12T14:55:12.999Z</time>
      </trkpt>
      <trkpt lat="46.1662" lon="6.28185">
        <ele>498</ele>
        <time>2026-01-12T14:55:14.999Z</time>
      </trkpt>
      <trkpt lat="46.16624" lon="6.28188">
        <ele>498</ele>
        <time>2026-01-12T14:55:16.999Z</time>
      </trkpt>
      <trkpt lat="46.16629" lon="6.28191">
        <ele>498</ele>
        <time>2026-01-12T14:55:18.999Z</time>
      </trkpt>
      <trkpt lat="46.16633" lon="6.28193">
        <ele>499</ele>
        <time>2026-01-12T14:55:20.999Z</time>
      </trkpt>
      <trkpt lat="46.16637" lon="6.28196">
        <ele>499</ele>
        <time>2026-01-12T14:55:22.999Z</time>
      </trkpt>
      <trkpt lat="46.16643" lon="6.28199">
        <ele>499</ele>
        <time>2026-01-12T14:55:25.999Z</time>
      </trkpt>
      <trkpt lat="46.1665" lon="6.28203">
        <ele>500</ele>
        <time>2026-01-12T14:55:28.999Z</time>
      </trkpt>
      <trkpt lat="46.16656" lon="6.28207">
        <ele>500</ele>
        <time>2026-01-12T14:55:31.999Z</time>
      </trkpt>
      <trkpt lat="46.16661" lon="6.2821">
        <ele>500</ele>
        <time>2026-01-12T14:55:33.999Z</time>
      </trkpt>
      <trkpt lat="46.16667" lon="6.28214">
        <ele>501</ele>
        <time>2026-01-12T14:55:36.999Z</time>
      </trkpt>
      <trkpt lat="46.16673" lon="6.28219">
        <ele>501</ele>
        <time>2026-01-12T14:55:39.999Z</time>
      </trkpt>
      <trkpt lat="46.16677" lon="6.28222">
        <ele>502</ele>
        <time>2026-01-12T14:55:41.999Z</time>
      </trkpt>
      <trkpt lat="46.16683" lon="6.28226">
        <ele>502</ele>
        <time>2026-01-12T14:55:44.999Z</time>
      </trkpt>
      <trkpt lat="46.16687" lon="6.28228">
        <ele>502</ele>
        <time>2026-01-12T14:55:46.999Z</time>
      </trkpt>
      <trkpt lat="46.16693" lon="6.28232">
        <ele>503</ele>
        <time>2026-01-12T14:55:49.999Z</time>
      </trkpt>
      <trkpt lat="46.16699" lon="6.28236">
        <ele>503</ele>
        <time>2026-01-12T14:55:52.999Z</time>
      </trkpt>
      <trkpt lat="46.16705" lon="6.28242">
        <ele>502</ele>
        <time>2026-01-12T14:55:55.999Z</time>
      </trkpt>
      <trkpt lat="46.16711" lon="6.28245">
        <ele>502</ele>
        <time>2026-01-12T14:55:58.999Z</time>
      </trkpt>
      <trkpt lat="46.16718" lon="6.2825">
        <ele>501</ele>
        <time>2026-01-12T14:56:02.999Z</time>
      </trkpt>
      <trkpt lat="46.16724" lon="6.28252">
        <ele>501</ele>
        <time>2026-01-12T14:56:05.999Z</time>
      </trkpt>
      <trkpt lat="46.16729" lon="6.28255">
        <ele>501</ele>
        <time>2026-01-12T14:56:07.999Z</time>
      </trkpt>
      <trkpt lat="46.16734" lon="6.28258">
        <ele>501</ele>
        <time>2026-01-12T14:56:09.999Z</time>
      </trkpt>
      <trkpt lat="46.16739" lon="6.28261">
        <ele>502</ele>
        <time>2026-01-12T14:56:11.999Z</time>
      </trkpt>
      <trkpt lat="46.16744" lon="6.28264">
        <ele>502</ele>
        <time>2026-01-12T14:56:13.999Z</time>
      </trkpt>
      <trkpt lat="46.16749" lon="6.28267">
        <ele>502</ele>
        <time>2026-01-12T14:56:15.999Z</time>
      </trkpt>
      <trkpt lat="46.16753" lon="6.28271">
        <ele>502</ele>
        <time>2026-01-12T14:56:18.999Z</time>
      </trkpt>
      <trkpt lat="46.16757" lon="6.28274">
        <ele>502</ele>
        <time>2026-01-12T14:56:21.999Z</time>
      </trkpt>
      <trkpt lat="46.16762" lon="6.28278">
        <ele>502</ele>
        <time>2026-01-12T14:56:25.999Z</time>
      </trkpt>
      <trkpt lat="46.16766" lon="6.28282">
        <ele>502</ele>
        <time>2026-01-12T14:56:27.999Z</time>
      </trkpt>
      <trkpt lat="46.1677" lon="6.28285">
        <ele>503</ele>
        <time>2026-01-12T14:56:29.999Z</time>
      </trkpt>
      <trkpt lat="46.16775" lon="6.28291">
        <ele>503</ele>
        <time>2026-01-12T14:56:32.999Z</time>
      </trkpt>
      <trkpt lat="46.1678" lon="6.28294">
        <ele>504</ele>
        <time>2026-01-12T14:56:34.999Z</time>
      </trkpt>
      <trkpt lat="46.16782" lon="6.283">
        <ele>505</ele>
        <time>2026-01-12T14:56:35.999Z</time>
      </trkpt>
      <trkpt lat="46.16787" lon="6.28305">
        <ele>507</ele>
        <time>2026-01-12T14:56:38.999Z</time>
      </trkpt>
      <trkpt lat="46.16792" lon="6.28307">
        <ele>508</ele>
        <time>2026-01-12T14:56:40.999Z</time>
      </trkpt>
      <trkpt lat="46.16798" lon="6.28311">
        <ele>508</ele>
        <time>2026-01-12T14:56:43.999Z</time>
      </trkpt>
      <trkpt lat="46.16803" lon="6.28313">
        <ele>509</ele>
        <time>2026-01-12T14:56:45.999Z</time>
      </trkpt>
      <trkpt lat="46.16808" lon="6.28316">
        <ele>509</ele>
        <time>2026-01-12T14:56:47.999Z</time>
      </trkpt>
      <trkpt lat="46.16814" lon="6.28321">
        <ele>510</ele>
        <time>2026-01-12T14:56:50.999Z</time>
      </trkpt>
      <trkpt lat="46.16818" lon="6.28325">
        <ele>510</ele>
        <time>2026-01-12T14:56:52.999Z</time>
      </trkpt>
      <trkpt lat="46.16822" lon="6.28329">
        <ele>511</ele>
        <time>2026-01-12T14:56:54.999Z</time>
      </trkpt>
      <trkpt lat="46.16825" lon="6.28335">
        <ele>510</ele>
        <time>2026-01-12T14:56:56.999Z</time>
      </trkpt>
      <trkpt lat="46.16829" lon="6.28339">
        <ele>510</ele>
        <time>2026-01-12T14:56:58.999Z</time>
      </trkpt>
      <trkpt lat="46.16837" lon="6.28346">
        <ele>509</ele>
        <time>2026-01-12T14:57:02.999Z</time>
      </trkpt>
      <trkpt lat="46.16842" lon="6.28351">
        <ele>509</ele>
        <time>2026-01-12T14:57:04.999Z</time>
      </trkpt>
      <trkpt lat="46.16846" lon="6.28356">
        <ele>509</ele>
        <time>2026-01-12T14:57:06.999Z</time>
      </trkpt>
      <trkpt lat="46.16851" lon="6.2836">
        <ele>509</ele>
        <time>2026-01-12T14:57:08.999Z</time>
      </trkpt>
      <trkpt lat="46.16856" lon="6.28364">
        <ele>509</ele>
        <time>2026-01-12T14:57:10.999Z</time>
      </trkpt>
      <trkpt lat="46.16861" lon="6.28368">
        <ele>510</ele>
        <time>2026-01-12T14:57:12.999Z</time>
      </trkpt>
      <trkpt lat="46.16866" lon="6.28372">
        <ele>510</ele>
        <time>2026-01-12T14:57:14.999Z</time>
      </trkpt>
      <trkpt lat="46.16872" lon="6.28375">
        <ele>510</ele>
        <time>2026-01-12T14:57:16.999Z</time>
      </trkpt>
      <trkpt lat="46.16877" lon="6.28377">
        <ele>510</ele>
        <time>2026-01-12T14:57:18.999Z</time>
      </trkpt>
      <trkpt lat="46.16882" lon="6.2838">
        <ele>510</ele>
        <time>2026-01-12T14:57:20.999Z</time>
      </trkpt>
      <trkpt lat="46.16887" lon="6.28384">
        <ele>510</ele>
        <time>2026-01-12T14:57:22.999Z</time>
      </trkpt>
      <trkpt lat="46.16892" lon="6.2839">
        <ele>510</ele>
        <time>2026-01-12T14:57:24.999Z</time>
      </trkpt>
      <trkpt lat="46.16894" lon="6.28398">
        <ele>511</ele>
        <time>2026-01-12T14:57:26.999Z</time>
      </trkpt>
      <trkpt lat="46.16894" lon="6.28406">
        <ele>511</ele>
        <time>2026-01-12T14:57:28.999Z</time>
      </trkpt>
      <trkpt lat="46.16892" lon="6.28415">
        <ele>511</ele>
        <time>2026-01-12T14:57:30.999Z</time>
      </trkpt>
      <trkpt lat="46.1689" lon="6.28425">
        <ele>511</ele>
        <time>2026-01-12T14:57:32.999Z</time>
      </trkpt>
      <trkpt lat="46.16884" lon="6.28438">
        <ele>511</ele>
        <time>2026-01-12T14:57:34.999Z</time>
      </trkpt>
      <trkpt lat="46.16883" lon="6.28446">
        <ele>512</ele>
        <time>2026-01-12T14:57:36.999Z</time>
      </trkpt>
      <trkpt lat="46.16882" lon="6.28454">
        <ele>512</ele>
        <time>2026-01-12T14:57:37.999Z</time>
      </trkpt>
      <trkpt lat="46.16882" lon="6.28464">
        <ele>513</ele>
        <time>2026-01-12T14:57:39.999Z</time>
      </trkpt>
      <trkpt lat="46.16881" lon="6.28474">
        <ele>513</ele>
        <time>2026-01-12T14:57:41.999Z</time>
      </trkpt>
      <trkpt lat="46.16883" lon="6.28483">
        <ele>513</ele>
        <time>2026-01-12T14:57:43.999Z</time>
      </trkpt>
      <trkpt lat="46.16883" lon="6.28493">
        <ele>513</ele>
        <time>2026-01-12T14:57:45.999Z</time>
      </trkpt>
      <trkpt lat="46.16884" lon="6.28502">
        <ele>513</ele>
        <time>2026-01-12T14:57:47.999Z</time>
      </trkpt>
      <trkpt lat="46.16886" lon="6.28511">
        <ele>513</ele>
        <time>2026-01-12T14:57:49.999Z</time>
      </trkpt>
      <trkpt lat="46.16886" lon="6.28521">
        <ele>513</ele>
        <time>2026-01-12T14:57:51.999Z</time>
      </trkpt>
      <trkpt lat="46.16888" lon="6.28531">
        <ele>513</ele>
        <time>2026-01-12T14:57:53.999Z</time>
      </trkpt>
      <trkpt lat="46.1689" lon="6.28537">
        <ele>513</ele>
        <time>2026-01-12T14:57:55.999Z</time>
      </trkpt>
      <trkpt lat="46.16892" lon="6.28544">
        <ele>513</ele>
        <time>2026-01-12T14:57:56.999Z</time>
      </trkpt>
      <trkpt lat="46.16894" lon="6.28552">
        <ele>514</ele>
        <time>2026-01-12T14:57:58.999Z</time>
      </trkpt>
      <trkpt lat="46.16897" lon="6.28565">
        <ele>514</ele>
        <time>2026-01-12T14:58:02.999Z</time>
      </trkpt>
      <trkpt lat="46.16898" lon="6.28575">
        <ele>514</ele>
        <time>2026-01-12T14:58:04.999Z</time>
      </trkpt>
      <trkpt lat="46.16898" lon="6.28584">
        <ele>514</ele>
        <time>2026-01-12T14:58:06.999Z</time>
      </trkpt>
      <trkpt lat="46.16897" lon="6.28594">
        <ele>514</ele>
        <time>2026-01-12T14:58:08.999Z</time>
      </trkpt>
      <trkpt lat="46.16896" lon="6.28603">
        <ele>514</ele>
        <time>2026-01-12T14:58:10.999Z</time>
      </trkpt>
      <trkpt lat="46.16895" lon="6.28612">
        <ele>514</ele>
        <time>2026-01-12T14:58:12.999Z</time>
      </trkpt>
      <trkpt lat="46.16893" lon="6.2862">
        <ele>514</ele>
        <time>2026-01-12T14:58:14.999Z</time>
      </trkpt>
      <trkpt lat="46.16891" lon="6.28631">
        <ele>514</ele>
        <time>2026-01-12T14:58:16.999Z</time>
      </trkpt>
      <trkpt lat="46.16888" lon="6.28642">
        <ele>514</ele>
        <time>2026-01-12T14:58:18.999Z</time>
      </trkpt>
      <trkpt lat="46.16885" lon="6.28653">
        <ele>514</ele>
        <time>2026-01-12T14:58:20.999Z</time>
      </trkpt>
      <trkpt lat="46.16882" lon="6.28665">
        <ele>515</ele>
        <time>2026-01-12T14:58:22.999Z</time>
      </trkpt>
      <trkpt lat="46.16881" lon="6.28672">
        <ele>514</ele>
        <time>2026-01-12T14:58:23.999Z</time>
      </trkpt>
      <trkpt lat="46.16878" lon="6.28684">
        <ele>514</ele>
        <time>2026-01-12T14:58:25.999Z</time>
      </trkpt>
      <trkpt lat="46.16876" lon="6.28697">
        <ele>514</ele>
        <time>2026-01-12T14:58:27.999Z</time>
      </trkpt>
      <trkpt lat="46.16874" lon="6.28706">
        <ele>513</ele>
        <time>2026-01-12T14:58:29.999Z</time>
      </trkpt>
      <trkpt lat="46.16872" lon="6.28716">
        <ele>513</ele>
        <time>2026-01-12T14:58:31.999Z</time>
      </trkpt>
      <trkpt lat="46.1687" lon="6.28723">
        <ele>513</ele>
        <time>2026-01-12T14:58:32.999Z</time>
      </trkpt>
      <trkpt lat="46.16869" lon="6.28735">
        <ele>513</ele>
        <time>2026-01-12T14:58:34.999Z</time>
      </trkpt>
      <trkpt lat="46.16866" lon="6.28741">
        <ele>513</ele>
        <time>2026-01-12T14:58:35.999Z</time>
      </trkpt>
      <trkpt lat="46.16862" lon="6.28753">
        <ele>513</ele>
        <time>2026-01-12T14:58:37.999Z</time>
      </trkpt>
      <trkpt lat="46.16858" lon="6.28764">
        <ele>513</ele>
        <time>2026-01-12T14:58:39.999Z</time>
      </trkpt>
      <trkpt lat="46.16856" lon="6.2877">
        <ele>514</ele>
        <time>2026-01-12T14:58:40.999Z</time>
      </trkpt>
      <trkpt lat="46.16853" lon="6.2878">
        <ele>514</ele>
        <time>2026-01-12T14:58:42.999Z</time>
      </trkpt>
      <trkpt lat="46.1685" lon="6.28786">
        <ele>514</ele>
        <time>2026-01-12T14:58:43.999Z</time>
      </trkpt>
      <trkpt lat="46.16847" lon="6.28798">
        <ele>514</ele>
        <time>2026-01-12T14:58:45.999Z</time>
      </trkpt>
      <trkpt lat="46.16843" lon="6.28808">
        <ele>514</ele>
        <time>2026-01-12T14:58:47.999Z</time>
      </trkpt>
      <trkpt lat="46.16839" lon="6.28819">
        <ele>514</ele>
        <time>2026-01-12T14:58:49.999Z</time>
      </trkpt>
      <trkpt lat="46.16836" lon="6.28829">
        <ele>514</ele>
        <time>2026-01-12T14:58:51.999Z</time>
      </trkpt>
      <trkpt lat="46.16833" lon="6.28841">
        <ele>514</ele>
        <time>2026-01-12T14:58:53.999Z</time>
      </trkpt>
      <trkpt lat="46.16831" lon="6.28854">
        <ele>514</ele>
        <time>2026-01-12T14:58:55.999Z</time>
      </trkpt>
      <trkpt lat="46.1683" lon="6.28866">
        <ele>514</ele>
        <time>2026-01-12T14:58:57.999Z</time>
      </trkpt>
      <trkpt lat="46.16828" lon="6.28878">
        <ele>514</ele>
        <time>2026-01-12T14:58:59.999Z</time>
      </trkpt>
      <trkpt lat="46.16827" lon="6.28891">
        <ele>513</ele>
        <time>2026-01-12T14:59:01.999Z</time>
      </trkpt>
      <trkpt lat="46.16828" lon="6.28903">
        <ele>513</ele>
        <time>2026-01-12T14:59:03.999Z</time>
      </trkpt>
      <trkpt lat="46.16828" lon="6.28915">
        <ele>513</ele>
        <time>2026-01-12T14:59:05.999Z</time>
      </trkpt>
      <trkpt lat="46.16828" lon="6.28927">
        <ele>513</ele>
        <time>2026-01-12T14:59:07.999Z</time>
      </trkpt>
      <trkpt lat="46.16829" lon="6.2894">
        <ele>513</ele>
        <time>2026-01-12T14:59:09.999Z</time>
      </trkpt>
      <trkpt lat="46.16828" lon="6.28951">
        <ele>513</ele>
        <time>2026-01-12T14:59:11.999Z</time>
      </trkpt>
      <trkpt lat="46.16827" lon="6.28964">
        <ele>513</ele>
        <time>2026-01-12T14:59:13.999Z</time>
      </trkpt>
      <trkpt lat="46.16825" lon="6.28976">
        <ele>513</ele>
        <time>2026-01-12T14:59:15.999Z</time>
      </trkpt>
      <trkpt lat="46.16823" lon="6.28989">
        <ele>513</ele>
        <time>2026-01-12T14:59:17.999Z</time>
      </trkpt>
      <trkpt lat="46.16822" lon="6.28995">
        <ele>512</ele>
        <time>2026-01-12T14:59:18.999Z</time>
      </trkpt>
      <trkpt lat="46.1682" lon="6.29002">
        <ele>512</ele>
        <time>2026-01-12T14:59:19.999Z</time>
      </trkpt>
      <trkpt lat="46.16819" lon="6.2901">
        <ele>511</ele>
        <time>2026-01-12T14:59:20.999Z</time>
      </trkpt>
      <trkpt lat="46.16816" lon="6.29023">
        <ele>511</ele>
        <time>2026-01-12T14:59:22.999Z</time>
      </trkpt>
      <trkpt lat="46.16815" lon="6.29029">
        <ele>511</ele>
        <time>2026-01-12T14:59:23.999Z</time>
      </trkpt>
      <trkpt lat="46.16813" lon="6.29036">
        <ele>511</ele>
        <time>2026-01-12T14:59:24.999Z</time>
      </trkpt>
      <trkpt lat="46.16812" lon="6.29042">
        <ele>511</ele>
        <time>2026-01-12T14:59:25.999Z</time>
      </trkpt>
      <trkpt lat="46.16811" lon="6.2905">
        <ele>511</ele>
        <time>2026-01-12T14:59:26.999Z</time>
      </trkpt>
      <trkpt lat="46.1681" lon="6.29057">
        <ele>510</ele>
        <time>2026-01-12T14:59:27.999Z</time>
      </trkpt>
      <trkpt lat="46.16809" lon="6.29069">
        <ele>510</ele>
        <time>2026-01-12T14:59:29.999Z</time>
      </trkpt>
      <trkpt lat="46.16808" lon="6.29077">
        <ele>510</ele>
        <time>2026-01-12T14:59:30.999Z</time>
      </trkpt>
      <trkpt lat="46.16807" lon="6.29089">
        <ele>510</ele>
        <time>2026-01-12T14:59:32.999Z</time>
      </trkpt>
      <trkpt lat="46.16806" lon="6.29097">
        <ele>510</ele>
        <time>2026-01-12T14:59:33.999Z</time>
      </trkpt>
      <trkpt lat="46.16806" lon="6.29104">
        <ele>510</ele>
        <time>2026-01-12T14:59:34.999Z</time>
      </trkpt>
      <trkpt lat="46.16806" lon="6.29111">
        <ele>510</ele>
        <time>2026-01-12T14:59:35.999Z</time>
      </trkpt>
      <trkpt lat="46.16805" lon="6.29118">
        <ele>510</ele>
        <time>2026-01-12T14:59:36.999Z</time>
      </trkpt>
      <trkpt lat="46.16806" lon="6.29125">
        <ele>510</ele>
        <time>2026-01-12T14:59:37.999Z</time>
      </trkpt>
      <trkpt lat="46.16807" lon="6.29132">
        <ele>510</ele>
        <time>2026-01-12T14:59:38.999Z</time>
      </trkpt>
      <trkpt lat="46.16807" lon="6.29139">
        <ele>509</ele>
        <time>2026-01-12T14:59:39.999Z</time>
      </trkpt>
      <trkpt lat="46.16806" lon="6.29152">
        <ele>509</ele>
        <time>2026-01-12T14:59:41.999Z</time>
      </trkpt>
      <trkpt lat="46.16806" lon="6.29158">
        <ele>509</ele>
        <time>2026-01-12T14:59:42.999Z</time>
      </trkpt>
      <trkpt lat="46.16804" lon="6.29166">
        <ele>509</ele>
        <time>2026-01-12T14:59:43.999Z</time>
      </trkpt>
      <trkpt lat="46.16804" lon="6.29172">
        <ele>509</ele>
        <time>2026-01-12T14:59:44.999Z</time>
      </trkpt>
      <trkpt lat="46.16802" lon="6.29178">
        <ele>509</ele>
        <time>2026-01-12T14:59:45.999Z</time>
      </trkpt>
      <trkpt lat="46.16801" lon="6.29185">
        <ele>508</ele>
        <time>2026-01-12T14:59:46.999Z</time>
      </trkpt>
      <trkpt lat="46.16799" lon="6.29192">
        <ele>508</ele>
        <time>2026-01-12T14:59:47.999Z</time>
      </trkpt>
      <trkpt lat="46.16797" lon="6.29198">
        <ele>508</ele>
        <time>2026-01-12T14:59:48.999Z</time>
      </trkpt>
      <trkpt lat="46.16795" lon="6.29204">
        <ele>507</ele>
        <time>2026-01-12T14:59:49.999Z</time>
      </trkpt>
      <trkpt lat="46.16793" lon="6.29211">
        <ele>507</ele>
        <time>2026-01-12T14:59:50.999Z</time>
      </trkpt>
      <trkpt lat="46.1679" lon="6.29217">
        <ele>507</ele>
        <time>2026-01-12T14:59:51.999Z</time>
      </trkpt>
      <trkpt lat="46.16788" lon="6.29224">
        <ele>507</ele>
        <time>2026-01-12T14:59:52.999Z</time>
      </trkpt>
      <trkpt lat="46.16787" lon="6.2923">
        <ele>507</ele>
        <time>2026-01-12T14:59:53.999Z</time>
      </trkpt>
      <trkpt lat="46.16785" lon="6.29239">
        <ele>507</ele>
        <time>2026-01-12T14:59:54.999Z</time>
      </trkpt>
      <trkpt lat="46.16783" lon="6.29245">
        <ele>507</ele>
        <time>2026-01-12T14:59:55.999Z</time>
      </trkpt>
      <trkpt lat="46.16782" lon="6.29252">
        <ele>507</ele>
        <time>2026-01-12T14:59:56.999Z</time>
      </trkpt>
      <trkpt lat="46.1678" lon="6.29259">
        <ele>507</ele>
        <time>2026-01-12T14:59:57.999Z</time>
      </trkpt>
      <trkpt lat="46.16779" lon="6.29266">
        <ele>507</ele>
        <time>2026-01-12T14:59:58.999Z</time>
      </trkpt>
      <trkpt lat="46.16777" lon="6.29273">
        <ele>507</ele>
        <time>2026-01-12T14:59:59.999Z</time>
      </trkpt>
      <trkpt lat="46.16775" lon="6.29279">
        <ele>507</ele>
        <time>2026-01-12T15:00:00.999Z</time>
      </trkpt>
      <trkpt lat="46.16774" lon="6.29286">
        <ele>506</ele>
        <time>2026-01-12T15:00:01.999Z</time>
      </trkpt>
      <trkpt lat="46.16772" lon="6.29298">
        <ele>506</ele>
        <time>2026-01-12T15:00:03.999Z</time>
      </trkpt>
      <trkpt lat="46.1677" lon="6.29305">
        <ele>506</ele>
        <time>2026-01-12T15:00:04.999Z</time>
      </trkpt>
      <trkpt lat="46.16768" lon="6.29311">
        <ele>506</ele>
        <time>2026-01-12T15:00:05.999Z</time>
      </trkpt>
      <trkpt lat="46.16766" lon="6.29323">
        <ele>506</ele>
        <time>2026-01-12T15:00:07.999Z</time>
      </trkpt>
      <trkpt lat="46.16764" lon="6.2933">
        <ele>507</ele>
        <time>2026-01-12T15:00:08.998Z</time>
      </trkpt>
      <trkpt lat="46.16762" lon="6.29336">
        <ele>507</ele>
        <time>2026-01-12T15:00:09.998Z</time>
      </trkpt>
      <trkpt lat="46.1676" lon="6.29342">
        <ele>507</ele>
        <time>2026-01-12T15:00:10.998Z</time>
      </trkpt>
      <trkpt lat="46.16759" lon="6.29349">
        <ele>507</ele>
        <time>2026-01-12T15:00:11.998Z</time>
      </trkpt>
      <trkpt lat="46.16758" lon="6.29355">
        <ele>506</ele>
        <time>2026-01-12T15:00:12.998Z</time>
      </trkpt>
      <trkpt lat="46.16757" lon="6.29362">
        <ele>506</ele>
        <time>2026-01-12T15:00:13.998Z</time>
      </trkpt>
      <trkpt lat="46.16756" lon="6.29369">
        <ele>506</ele>
        <time>2026-01-12T15:00:14.999Z</time>
      </trkpt>
      <trkpt lat="46.16756" lon="6.29375">
        <ele>506</ele>
        <time>2026-01-12T15:00:15.999Z</time>
      </trkpt>
      <trkpt lat="46.16755" lon="6.29383">
        <ele>506</ele>
        <time>2026-01-12T15:00:16.999Z</time>
      </trkpt>
      <trkpt lat="46.16756" lon="6.2939">
        <ele>506</ele>
        <time>2026-01-12T15:00:17.999Z</time>
      </trkpt>
      <trkpt lat="46.16757" lon="6.29401">
        <ele>506</ele>
        <time>2026-01-12T15:00:19.999Z</time>
      </trkpt>
      <trkpt lat="46.16757" lon="6.29408">
        <ele>506</ele>
        <time>2026-01-12T15:00:20.999Z</time>
      </trkpt>
      <trkpt lat="46.16758" lon="6.2942">
        <ele>506</ele>
        <time>2026-01-12T15:00:22.999Z</time>
      </trkpt>
      <trkpt lat="46.16758" lon="6.29432">
        <ele>506</ele>
        <time>2026-01-12T15:00:24.999Z</time>
      </trkpt>
      <trkpt lat="46.16759" lon="6.29444">
        <ele>506</ele>
        <time>2026-01-12T15:00:26.999Z</time>
      </trkpt>
      <trkpt lat="46.1676" lon="6.29456">
        <ele>506</ele>
        <time>2026-01-12T15:00:28.999Z</time>
      </trkpt>
      <trkpt lat="46.16764" lon="6.29478">
        <ele>506</ele>
        <time>2026-01-12T15:00:32.999Z</time>
      </trkpt>
      <trkpt lat="46.16766" lon="6.29489">
        <ele>506</ele>
        <time>2026-01-12T15:00:34.999Z</time>
      </trkpt>
      <trkpt lat="46.16768" lon="6.295">
        <ele>507</ele>
        <time>2026-01-12T15:00:36.999Z</time>
      </trkpt>
      <trkpt lat="46.1677" lon="6.29512">
        <ele>507</ele>
        <time>2026-01-12T15:00:38.999Z</time>
      </trkpt>
      <trkpt lat="46.16772" lon="6.29523">
        <ele>507</ele>
        <time>2026-01-12T15:00:40.999Z</time>
      </trkpt>
      <trkpt lat="46.16775" lon="6.29533">
        <ele>507</ele>
        <time>2026-01-12T15:00:42.999Z</time>
      </trkpt>
      <trkpt lat="46.16776" lon="6.29544">
        <ele>507</ele>
        <time>2026-01-12T15:00:44.999Z</time>
      </trkpt>
      <trkpt lat="46.16777" lon="6.29555">
        <ele>507</ele>
        <time>2026-01-12T15:00:46.999Z</time>
      </trkpt>
      <trkpt lat="46.16778" lon="6.29565">
        <ele>507</ele>
        <time>2026-01-12T15:00:48.999Z</time>
      </trkpt>
      <trkpt lat="46.16777" lon="6.29576">
        <ele>507</ele>
        <time>2026-01-12T15:00:50.999Z</time>
      </trkpt>
      <trkpt lat="46.16776" lon="6.29583">
        <ele>507</ele>
        <time>2026-01-12T15:00:51.999Z</time>
      </trkpt>
      <trkpt lat="46.16775" lon="6.29593">
        <ele>507</ele>
        <time>2026-01-12T15:00:53.999Z</time>
      </trkpt>
      <trkpt lat="46.16772" lon="6.29604">
        <ele>507</ele>
        <time>2026-01-12T15:00:55.999Z</time>
      </trkpt>
      <trkpt lat="46.1677" lon="6.29615">
        <ele>507</ele>
        <time>2026-01-12T15:00:57.999Z</time>
      </trkpt>
      <trkpt lat="46.16768" lon="6.29626">
        <ele>507</ele>
        <time>2026-01-12T15:00:59.999Z</time>
      </trkpt>
      <trkpt lat="46.16766" lon="6.29637">
        <ele>507</ele>
        <time>2026-01-12T15:01:01.999Z</time>
      </trkpt>
      <trkpt lat="46.16764" lon="6.29644">
        <ele>507</ele>
        <time>2026-01-12T15:01:02.999Z</time>
      </trkpt>
      <trkpt lat="46.16761" lon="6.29654">
        <ele>507</ele>
        <time>2026-01-12T15:01:04.999Z</time>
      </trkpt>
      <trkpt lat="46.16759" lon="6.29667">
        <ele>507</ele>
        <time>2026-01-12T15:01:06.999Z</time>
      </trkpt>
      <trkpt lat="46.16757" lon="6.29677">
        <ele>507</ele>
        <time>2026-01-12T15:01:08.999Z</time>
      </trkpt>
      <trkpt lat="46.16755" lon="6.29689">
        <ele>507</ele>
        <time>2026-01-12T15:01:10.999Z</time>
      </trkpt>
      <trkpt lat="46.16753" lon="6.29701">
        <ele>507</ele>
        <time>2026-01-12T15:01:12.999Z</time>
      </trkpt>
      <trkpt lat="46.16751" lon="6.29707">
        <ele>507</ele>
        <time>2026-01-12T15:01:13.999Z</time>
      </trkpt>
      <trkpt lat="46.16748" lon="6.29718">
        <ele>507</ele>
        <time>2026-01-12T15:01:15.999Z</time>
      </trkpt>
      <trkpt lat="46.16746" lon="6.29724">
        <ele>508</ele>
        <time>2026-01-12T15:01:16.999Z</time>
      </trkpt>
      <trkpt lat="46.16742" lon="6.29735">
        <ele>508</ele>
        <time>2026-01-12T15:01:18.999Z</time>
      </trkpt>
      <trkpt lat="46.16738" lon="6.29744">
        <ele>508</ele>
        <time>2026-01-12T15:01:20.999Z</time>
      </trkpt>
      <trkpt lat="46.16733" lon="6.29754">
        <ele>508</ele>
        <time>2026-01-12T15:01:22.999Z</time>
      </trkpt>
      <trkpt lat="46.16728" lon="6.29764">
        <ele>508</ele>
        <time>2026-01-12T15:01:24.999Z</time>
      </trkpt>
      <trkpt lat="46.16723" lon="6.29773">
        <ele>508</ele>
        <time>2026-01-12T15:01:26.999Z</time>
      </trkpt>
      <trkpt lat="46.16716" lon="6.29783">
        <ele>508</ele>
        <time>2026-01-12T15:01:28.999Z</time>
      </trkpt>
      <trkpt lat="46.16712" lon="6.29794">
        <ele>508</ele>
        <time>2026-01-12T15:01:30.999Z</time>
      </trkpt>
      <trkpt lat="46.16709" lon="6.29805">
        <ele>508</ele>
        <time>2026-01-12T15:01:32.999Z</time>
      </trkpt>
      <trkpt lat="46.16704" lon="6.29816">
        <ele>508</ele>
        <time>2026-01-12T15:01:34.999Z</time>
      </trkpt>
      <trkpt lat="46.16702" lon="6.29828">
        <ele>508</ele>
        <time>2026-01-12T15:01:36.999Z</time>
      </trkpt>
      <trkpt lat="46.167" lon="6.29835">
        <ele>508</ele>
        <time>2026-01-12T15:01:37.999Z</time>
      </trkpt>
      <trkpt lat="46.16698" lon="6.29842">
        <ele>508</ele>
        <time>2026-01-12T15:01:38.999Z</time>
      </trkpt>
      <trkpt lat="46.16695" lon="6.29855">
        <ele>508</ele>
        <time>2026-01-12T15:01:40.999Z</time>
      </trkpt>
      <trkpt lat="46.16693" lon="6.29867">
        <ele>508</ele>
        <time>2026-01-12T15:01:42.999Z</time>
      </trkpt>
      <trkpt lat="46.16692" lon="6.29873">
        <ele>508</ele>
        <time>2026-01-12T15:01:43.999Z</time>
      </trkpt>
      <trkpt lat="46.1669" lon="6.2988">
        <ele>508</ele>
        <time>2026-01-12T15:01:44.999Z</time>
      </trkpt>
      <trkpt lat="46.1669" lon="6.29887">
        <ele>508</ele>
        <time>2026-01-12T15:01:45.999Z</time>
      </trkpt>
      <trkpt lat="46.16688" lon="6.299">
        <ele>508</ele>
        <time>2026-01-12T15:01:47.999Z</time>
      </trkpt>
      <trkpt lat="46.16687" lon="6.29912">
        <ele>508</ele>
        <time>2026-01-12T15:01:49.999Z</time>
      </trkpt>
      <trkpt lat="46.16685" lon="6.29925">
        <ele>508</ele>
        <time>2026-01-12T15:01:51.999Z</time>
      </trkpt>
      <trkpt lat="46.16683" lon="6.29938">
        <ele>508</ele>
        <time>2026-01-12T15:01:53.999Z</time>
      </trkpt>
      <trkpt lat="46.16683" lon="6.29945">
        <ele>508</ele>
        <time>2026-01-12T15:01:54.999Z</time>
      </trkpt>
      <trkpt lat="46.1668" lon="6.29957">
        <ele>508</ele>
        <time>2026-01-12T15:01:56.999Z</time>
      </trkpt>
      <trkpt lat="46.16678" lon="6.29964">
        <ele>508</ele>
        <time>2026-01-12T15:01:57.999Z</time>
      </trkpt>
      <trkpt lat="46.16675" lon="6.29975">
        <ele>508</ele>
        <time>2026-01-12T15:01:59.999Z</time>
      </trkpt>
      <trkpt lat="46.16673" lon="6.29981">
        <ele>508</ele>
        <time>2026-01-12T15:02:00.999Z</time>
      </trkpt>
      <trkpt lat="46.16672" lon="6.29988">
        <ele>508</ele>
        <time>2026-01-12T15:02:01.999Z</time>
      </trkpt>
      <trkpt lat="46.16671" lon="6.29995">
        <ele>508</ele>
        <time>2026-01-12T15:02:02.999Z</time>
      </trkpt>
      <trkpt lat="46.1667" lon="6.30001">
        <ele>508</ele>
        <time>2026-01-12T15:02:03.999Z</time>
      </trkpt>
      <trkpt lat="46.16668" lon="6.30014">
        <ele>508</ele>
        <time>2026-01-12T15:02:05.999Z</time>
      </trkpt>
      <trkpt lat="46.1667" lon="6.30027">
        <ele>508</ele>
        <time>2026-01-12T15:02:07.999Z</time>
      </trkpt>
      <trkpt lat="46.16672" lon="6.30033">
        <ele>508</ele>
        <time>2026-01-12T15:02:08.999Z</time>
      </trkpt>
      <trkpt lat="46.16676" lon="6.30044">
        <ele>508</ele>
        <time>2026-01-12T15:02:10.999Z</time>
      </trkpt>
      <trkpt lat="46.16678" lon="6.3005">
        <ele>508</ele>
        <time>2026-01-12T15:02:11.999Z</time>
      </trkpt>
      <trkpt lat="46.16682" lon="6.30061">
        <ele>508</ele>
        <time>2026-01-12T15:02:13.999Z</time>
      </trkpt>
      <trkpt lat="46.16686" lon="6.30071">
        <ele>508</ele>
        <time>2026-01-12T15:02:15.999Z</time>
      </trkpt>
      <trkpt lat="46.16691" lon="6.30081">
        <ele>508</ele>
        <time>2026-01-12T15:02:17.999Z</time>
      </trkpt>
      <trkpt lat="46.16695" lon="6.30091">
        <ele>508</ele>
        <time>2026-01-12T15:02:19.999Z</time>
      </trkpt>
      <trkpt lat="46.167" lon="6.30101">
        <ele>508</ele>
        <time>2026-01-12T15:02:21.999Z</time>
      </trkpt>
      <trkpt lat="46.16702" lon="6.30106">
        <ele>508</ele>
        <time>2026-01-12T15:02:22.999Z</time>
      </trkpt>
      <trkpt lat="46.16706" lon="6.30117">
        <ele>508</ele>
        <time>2026-01-12T15:02:24.999Z</time>
      </trkpt>
      <trkpt lat="46.16709" lon="6.30128">
        <ele>508</ele>
        <time>2026-01-12T15:02:26.999Z</time>
      </trkpt>
      <trkpt lat="46.16711" lon="6.30139">
        <ele>508</ele>
        <time>2026-01-12T15:02:28.999Z</time>
      </trkpt>
      <trkpt lat="46.16712" lon="6.3015">
        <ele>508</ele>
        <time>2026-01-12T15:02:30.999Z</time>
      </trkpt>
      <trkpt lat="46.16712" lon="6.3016">
        <ele>508</ele>
        <time>2026-01-12T15:02:32.999Z</time>
      </trkpt>
      <trkpt lat="46.16712" lon="6.3017">
        <ele>508</ele>
        <time>2026-01-12T15:02:34.999Z</time>
      </trkpt>
      <trkpt lat="46.16711" lon="6.30178">
        <ele>508</ele>
        <time>2026-01-12T15:02:36.999Z</time>
      </trkpt>
      <trkpt lat="46.16707" lon="6.30189">
        <ele>509</ele>
        <time>2026-01-12T15:02:38.999Z</time>
      </trkpt>
      <trkpt lat="46.16703" lon="6.302">
        <ele>509</ele>
        <time>2026-01-12T15:02:40.999Z</time>
      </trkpt>
      <trkpt lat="46.16702" lon="6.30206">
        <ele>509</ele>
        <time>2026-01-12T15:02:41.999Z</time>
      </trkpt>
      <trkpt lat="46.16699" lon="6.30217">
        <ele>509</ele>
        <time>2026-01-12T15:02:43.998Z</time>
      </trkpt>
      <trkpt lat="46.16697" lon="6.30227">
        <ele>509</ele>
        <time>2026-01-12T15:02:45.999Z</time>
      </trkpt>
      <trkpt lat="46.16695" lon="6.30239">
        <ele>510</ele>
        <time>2026-01-12T15:02:47.999Z</time>
      </trkpt>
      <trkpt lat="46.16696" lon="6.30251">
        <ele>510</ele>
        <time>2026-01-12T15:02:49.999Z</time>
      </trkpt>
      <trkpt lat="46.16699" lon="6.30262">
        <ele>510</ele>
        <time>2026-01-12T15:02:51.999Z</time>
      </trkpt>
      <trkpt lat="46.16703" lon="6.30272">
        <ele>510</ele>
        <time>2026-01-12T15:02:53.999Z</time>
      </trkpt>
      <trkpt lat="46.16708" lon="6.30281">
        <ele>510</ele>
        <time>2026-01-12T15:02:55.999Z</time>
      </trkpt>
      <trkpt lat="46.16712" lon="6.3029">
        <ele>509</ele>
        <time>2026-01-12T15:02:57.999Z</time>
      </trkpt>
      <trkpt lat="46.16725" lon="6.3031">
        <ele>509</ele>
        <time>2026-01-12T15:03:02.999Z</time>
      </trkpt>
      <trkpt lat="46.16729" lon="6.30319">
        <ele>509</ele>
        <time>2026-01-12T15:03:04.999Z</time>
      </trkpt>
      <trkpt lat="46.16732" lon="6.30329">
        <ele>509</ele>
        <time>2026-01-12T15:03:06.999Z</time>
      </trkpt>
      <trkpt lat="46.16735" lon="6.30337">
        <ele>509</ele>
        <time>2026-01-12T15:03:08.999Z</time>
      </trkpt>
      <trkpt lat="46.16738" lon="6.30346">
        <ele>510</ele>
        <time>2026-01-12T15:03:10.999Z</time>
      </trkpt>
      <trkpt lat="46.16741" lon="6.30355">
        <ele>510</ele>
        <time>2026-01-12T15:03:12.999Z</time>
      </trkpt>
      <trkpt lat="46.16744" lon="6.30363">
        <ele>510</ele>
        <time>2026-01-12T15:03:14.999Z</time>
      </trkpt>
      <trkpt lat="46.16746" lon="6.3037">
        <ele>510</ele>
        <time>2026-01-12T15:03:16.999Z</time>
      </trkpt>
      <trkpt lat="46.16749" lon="6.30378">
        <ele>510</ele>
        <time>2026-01-12T15:03:18.999Z</time>
      </trkpt>
      <trkpt lat="46.16751" lon="6.30385">
        <ele>510</ele>
        <time>2026-01-12T15:03:20.999Z</time>
      </trkpt>
      <trkpt lat="46.16753" lon="6.30392">
        <ele>510</ele>
        <time>2026-01-12T15:03:22.999Z</time>
      </trkpt>
      <trkpt lat="46.16756" lon="6.304">
        <ele>510</ele>
        <time>2026-01-12T15:03:24.999Z</time>
      </trkpt>
      <trkpt lat="46.16758" lon="6.30407">
        <ele>510</ele>
        <time>2026-01-12T15:03:26.999Z</time>
      </trkpt>
      <trkpt lat="46.16759" lon="6.30416">
        <ele>510</ele>
        <time>2026-01-12T15:03:28.999Z</time>
      </trkpt>
      <trkpt lat="46.16763" lon="6.30423">
        <ele>511</ele>
        <time>2026-01-12T15:03:30.999Z</time>
      </trkpt>
      <trkpt lat="46.16766" lon="6.30432">
        <ele>512</ele>
        <time>2026-01-12T15:03:32.999Z</time>
      </trkpt>
      <trkpt lat="46.16769" lon="6.30439">
        <ele>514</ele>
        <time>2026-01-12T15:03:34.999Z</time>
      </trkpt>
      <trkpt lat="46.16771" lon="6.30449">
        <ele>515</ele>
        <time>2026-01-12T15:03:36.999Z</time>
      </trkpt>
      <trkpt lat="46.16774" lon="6.30457">
        <ele>517</ele>
        <time>2026-01-12T15:03:38.999Z</time>
      </trkpt>
      <trkpt lat="46.16775" lon="6.30466">
        <ele>517</ele>
        <time>2026-01-12T15:03:40.999Z</time>
      </trkpt>
      <trkpt lat="46.16777" lon="6.30476">
        <ele>517</ele>
        <time>2026-01-12T15:03:42.999Z</time>
      </trkpt>
      <trkpt lat="46.16774" lon="6.30486">
        <ele>517</ele>
        <time>2026-01-12T15:03:44.999Z</time>
      </trkpt>
      <trkpt lat="46.16769" lon="6.30492">
        <ele>516</ele>
        <time>2026-01-12T15:03:46.999Z</time>
      </trkpt>
      <trkpt lat="46.16763" lon="6.305">
        <ele>516</ele>
        <time>2026-01-12T15:03:48.999Z</time>
      </trkpt>
      <trkpt lat="46.16757" lon="6.30505">
        <ele>516</ele>
        <time>2026-01-12T15:03:50.999Z</time>
      </trkpt>
      <trkpt lat="46.16753" lon="6.30508">
        <ele>516</ele>
        <time>2026-01-12T15:03:52.999Z</time>
      </trkpt>
      <trkpt lat="46.16747" lon="6.30509">
        <ele>516</ele>
        <time>2026-01-12T15:03:54.999Z</time>
      </trkpt>
      <trkpt lat="46.16741" lon="6.30513">
        <ele>516</ele>
        <time>2026-01-12T15:03:57.999Z</time>
      </trkpt>
      <trkpt lat="46.16747" lon="6.30516">
        <ele>515</ele>
        <time>2026-01-12T15:04:08.999Z</time>
      </trkpt>
      <trkpt lat="46.16752" lon="6.30511">
        <ele>515</ele>
        <time>2026-01-12T15:04:10.999Z</time>
      </trkpt>
      <trkpt lat="46.16757" lon="6.30506">
        <ele>515</ele>
        <time>2026-01-12T15:04:12.999Z</time>
      </trkpt>
      <trkpt lat="46.16762" lon="6.305">
        <ele>515</ele>
        <time>2026-01-12T15:04:14.999Z</time>
      </trkpt>
      <trkpt lat="46.16769" lon="6.30493">
        <ele>515</ele>
        <time>2026-01-12T15:04:16.999Z</time>
      </trkpt>
      <trkpt lat="46.16774" lon="6.30485">
        <ele>515</ele>
        <time>2026-01-12T15:04:18.999Z</time>
      </trkpt>
      <trkpt lat="46.1678" lon="6.30477">
        <ele>515</ele>
        <time>2026-01-12T15:04:20.999Z</time>
      </trkpt>
      <trkpt lat="46.16785" lon="6.30468">
        <ele>514</ele>
        <time>2026-01-12T15:04:22.999Z</time>
      </trkpt>
      <trkpt lat="46.1679" lon="6.30462">
        <ele>514</ele>
        <time>2026-01-12T15:04:24.999Z</time>
      </trkpt>
      <trkpt lat="46.16796" lon="6.30456">
        <ele>514</ele>
        <time>2026-01-12T15:04:26.999Z</time>
      </trkpt>
      <trkpt lat="46.16802" lon="6.3045">
        <ele>514</ele>
        <time>2026-01-12T15:04:28.999Z</time>
      </trkpt>
      <trkpt lat="46.16808" lon="6.30443">
        <ele>514</ele>
        <time>2026-01-12T15:04:30.999Z</time>
      </trkpt>
      <trkpt lat="46.16814" lon="6.30437">
        <ele>515</ele>
        <time>2026-01-12T15:04:32.999Z</time>
      </trkpt>
      <trkpt lat="46.16823" lon="6.30438">
        <ele>516</ele>
        <time>2026-01-12T15:04:34.999Z</time>
      </trkpt>
      <trkpt lat="46.16826" lon="6.30447">
        <ele>516</ele>
        <time>2026-01-12T15:04:35.999Z</time>
      </trkpt>
      <trkpt lat="46.1683" lon="6.30455">
        <ele>517</ele>
        <time>2026-01-12T15:04:37.999Z</time>
      </trkpt>
      <trkpt lat="46.16833" lon="6.30462">
        <ele>517</ele>
        <time>2026-01-12T15:04:39.999Z</time>
      </trkpt>
      <trkpt lat="46.16836" lon="6.30468">
        <ele>518</ele>
        <time>2026-01-12T15:04:41.999Z</time>
      </trkpt>
      <trkpt lat="46.1684" lon="6.30475">
        <ele>518</ele>
        <time>2026-01-12T15:04:43.999Z</time>
      </trkpt>
      <trkpt lat="46.16843" lon="6.30482">
        <ele>518</ele>
        <time>2026-01-12T15:04:45.999Z</time>
      </trkpt>
      <trkpt lat="46.16842" lon="6.3049">
        <ele>517</ele>
        <time>2026-01-12T15:04:47.999Z</time>
      </trkpt>
      <trkpt lat="46.16837" lon="6.30496">
        <ele>517</ele>
        <time>2026-01-12T15:04:49.999Z</time>
      </trkpt>
      <trkpt lat="46.16831" lon="6.30502">
        <ele>517</ele>
        <time>2026-01-12T15:04:51.999Z</time>
      </trkpt>
      <trkpt lat="46.16827" lon="6.30509">
        <ele>517</ele>
        <time>2026-01-12T15:04:53.999Z</time>
      </trkpt>
      <trkpt lat="46.16823" lon="6.30517">
        <ele>517</ele>
        <time>2026-01-12T15:04:55.999Z</time>
      </trkpt>
      <trkpt lat="46.16817" lon="6.30523">
        <ele>516</ele>
        <time>2026-01-12T15:04:57.999Z</time>
      </trkpt>
      <trkpt lat="46.16811" lon="6.30529">
        <ele>516</ele>
        <time>2026-01-12T15:04:59.999Z</time>
      </trkpt>
      <trkpt lat="46.16804" lon="6.30534">
        <ele>516</ele>
        <time>2026-01-12T15:05:01.999Z</time>
      </trkpt>
      <trkpt lat="46.16799" lon="6.30536">
        <ele>516</ele>
        <time>2026-01-12T15:05:03.999Z</time>
      </trkpt>
      <trkpt lat="46.16793" lon="6.30536">
        <ele>516</ele>
        <time>2026-01-12T15:05:05.999Z</time>
      </trkpt>
      <trkpt lat="46.16788" lon="6.30537">
        <ele>516</ele>
        <time>2026-01-12T15:05:07.999Z</time>
      </trkpt>
      <trkpt lat="46.16783" lon="6.30545">
        <ele>516</ele>
        <time>2026-01-12T15:05:09.999Z</time>
      </trkpt>
      <trkpt lat="46.16779" lon="6.30554">
        <ele>516</ele>
        <time>2026-01-12T15:05:11.999Z</time>
      </trkpt>
      <trkpt lat="46.16774" lon="6.30561">
        <ele>516</ele>
        <time>2026-01-12T15:05:13.999Z</time>
      </trkpt>
      <trkpt lat="46.16769" lon="6.30568">
        <ele>516</ele>
        <time>2026-01-12T15:05:15.999Z</time>
      </trkpt>
      <trkpt lat="46.16764" lon="6.30573">
        <ele>516</ele>
        <time>2026-01-12T15:05:17.999Z</time>
      </trkpt>
      <trkpt lat="46.16761" lon="6.3058">
        <ele>516</ele>
        <time>2026-01-12T15:05:19.999Z</time>
      </trkpt>
      <trkpt lat="46.16754" lon="6.30584">
        <ele>516</ele>
        <time>2026-01-12T15:05:21.999Z</time>
      </trkpt>
      <trkpt lat="46.16749" lon="6.3059">
        <ele>516</ele>
        <time>2026-01-12T15:05:23.999Z</time>
      </trkpt>
      <trkpt lat="46.16744" lon="6.30594">
        <ele>516</ele>
        <time>2026-01-12T15:05:25.999Z</time>
      </trkpt>
      <trkpt lat="46.1674" lon="6.30597">
        <ele>515</ele>
        <time>2026-01-12T15:05:27.999Z</time>
      </trkpt>
      <trkpt lat="46.16728" lon="6.30603">
        <ele>514</ele>
        <time>2026-01-12T15:05:32.999Z</time>
      </trkpt>
      <trkpt lat="46.16722" lon="6.30608">
        <ele>513</ele>
        <time>2026-01-12T15:05:34.999Z</time>
      </trkpt>
      <trkpt lat="46.16716" lon="6.30616">
        <ele>513</ele>
        <time>2026-01-12T15:05:36.999Z</time>
      </trkpt>
      <trkpt lat="46.1671" lon="6.30624">
        <ele>514</ele>
        <time>2026-01-12T15:05:38.999Z</time>
      </trkpt>
      <trkpt lat="46.16704" lon="6.30633">
        <ele>514</ele>
        <time>2026-01-12T15:05:40.999Z</time>
      </trkpt>
      <trkpt lat="46.16698" lon="6.30642">
        <ele>515</ele>
        <time>2026-01-12T15:05:42.999Z</time>
      </trkpt>
      <trkpt lat="46.16693" lon="6.3065">
        <ele>515</ele>
        <time>2026-01-12T15:05:44.999Z</time>
      </trkpt>
      <trkpt lat="46.1669" lon="6.30656">
        <ele>516</ele>
        <time>2026-01-12T15:05:46.999Z</time>
      </trkpt>
      <trkpt lat="46.16686" lon="6.30661">
        <ele>516</ele>
        <time>2026-01-12T15:05:47.999Z</time>
      </trkpt>
      <trkpt lat="46.16682" lon="6.30668">
        <ele>516</ele>
        <time>2026-01-12T15:05:49.999Z</time>
      </trkpt>
      <trkpt lat="46.16678" lon="6.30673">
        <ele>516</ele>
        <time>2026-01-12T15:05:51.999Z</time>
      </trkpt>
      <trkpt lat="46.16673" lon="6.30681">
        <ele>516</ele>
        <time>2026-01-12T15:05:53.999Z</time>
      </trkpt>
      <trkpt lat="46.16668" lon="6.30689">
        <ele>516</ele>
        <time>2026-01-12T15:05:55.999Z</time>
      </trkpt>
      <trkpt lat="46.16662" lon="6.30698">
        <ele>516</ele>
        <time>2026-01-12T15:05:57.999Z</time>
      </trkpt>
      <trkpt lat="46.16651" lon="6.30717">
        <ele>516</ele>
        <time>2026-01-12T15:06:02.999Z</time>
      </trkpt>
      <trkpt lat="46.16646" lon="6.30725">
        <ele>515</ele>
        <time>2026-01-12T15:06:04.999Z</time>
      </trkpt>
      <trkpt lat="46.1664" lon="6.30734">
        <ele>515</ele>
        <time>2026-01-12T15:06:06.999Z</time>
      </trkpt>
      <trkpt lat="46.16635" lon="6.30743">
        <ele>515</ele>
        <time>2026-01-12T15:06:08.999Z</time>
      </trkpt>
      <trkpt lat="46.16632" lon="6.30752">
        <ele>515</ele>
        <time>2026-01-12T15:06:10.999Z</time>
      </trkpt>
      <trkpt lat="46.16635" lon="6.30763">
        <ele>515</ele>
        <time>2026-01-12T15:06:12.999Z</time>
      </trkpt>
      <trkpt lat="46.16641" lon="6.30771">
        <ele>515</ele>
        <time>2026-01-12T15:06:14.999Z</time>
      </trkpt>
      <trkpt lat="46.16647" lon="6.3078">
        <ele>515</ele>
        <time>2026-01-12T15:06:16.999Z</time>
      </trkpt>
      <trkpt lat="46.16653" lon="6.30788">
        <ele>515</ele>
        <time>2026-01-12T15:06:18.999Z</time>
      </trkpt>
      <trkpt lat="46.16657" lon="6.30792">
        <ele>515</ele>
        <time>2026-01-12T15:06:19.999Z</time>
      </trkpt>
      <trkpt lat="46.16663" lon="6.308">
        <ele>515</ele>
        <time>2026-01-12T15:06:21.999Z</time>
      </trkpt>
      <trkpt lat="46.1667" lon="6.30809">
        <ele>515</ele>
        <time>2026-01-12T15:06:23.999Z</time>
      </trkpt>
      <trkpt lat="46.16676" lon="6.30818">
        <ele>515</ele>
        <time>2026-01-12T15:06:25.999Z</time>
      </trkpt>
      <trkpt lat="46.16682" lon="6.30826">
        <ele>515</ele>
        <time>2026-01-12T15:06:27.999Z</time>
      </trkpt>
      <trkpt lat="46.16687" lon="6.30835">
        <ele>515</ele>
        <time>2026-01-12T15:06:29.999Z</time>
      </trkpt>
      <trkpt lat="46.16693" lon="6.30844">
        <ele>515</ele>
        <time>2026-01-12T15:06:31.999Z</time>
      </trkpt>
      <trkpt lat="46.16699" lon="6.30852">
        <ele>516</ele>
        <time>2026-01-12T15:06:33.999Z</time>
      </trkpt>
      <trkpt lat="46.16705" lon="6.30862">
        <ele>516</ele>
        <time>2026-01-12T15:06:35.999Z</time>
      </trkpt>
      <trkpt lat="46.1671" lon="6.30869">
        <ele>516</ele>
        <time>2026-01-12T15:06:37.999Z</time>
      </trkpt>
      <trkpt lat="46.16715" lon="6.30875">
        <ele>515</ele>
        <time>2026-01-12T15:06:39.999Z</time>
      </trkpt>
      <trkpt lat="46.16719" lon="6.30884">
        <ele>515</ele>
        <time>2026-01-12T15:06:41.999Z</time>
      </trkpt>
      <trkpt lat="46.16725" lon="6.30892">
        <ele>514</ele>
        <time>2026-01-12T15:06:43.999Z</time>
      </trkpt>
      <trkpt lat="46.16727" lon="6.30903">
        <ele>514</ele>
        <time>2026-01-12T15:06:45.999Z</time>
      </trkpt>
      <trkpt lat="46.16724" lon="6.30912">
        <ele>513</ele>
        <time>2026-01-12T15:06:47.999Z</time>
      </trkpt>
      <trkpt lat="46.16723" lon="6.30921">
        <ele>513</ele>
        <time>2026-01-12T15:06:50.999Z</time>
      </trkpt>
      <trkpt lat="46.16719" lon="6.30929">
        <ele>513</ele>
        <time>2026-01-12T15:06:52.999Z</time>
      </trkpt>
      <trkpt lat="46.16714" lon="6.30938">
        <ele>513</ele>
        <time>2026-01-12T15:06:55.999Z</time>
      </trkpt>
      <trkpt lat="46.16711" lon="6.30945">
        <ele>513</ele>
        <time>2026-01-12T15:06:57.999Z</time>
      </trkpt>
      <trkpt lat="46.16705" lon="6.3096">
        <ele>513</ele>
        <time>2026-01-12T15:07:02.999Z</time>
      </trkpt>
      <trkpt lat="46.16701" lon="6.30967">
        <ele>513</ele>
        <time>2026-01-12T15:07:04.999Z</time>
      </trkpt>
      <trkpt lat="46.16696" lon="6.30973">
        <ele>513</ele>
        <time>2026-01-12T15:07:06.999Z</time>
      </trkpt>
      <trkpt lat="46.16691" lon="6.30978">
        <ele>513</ele>
        <time>2026-01-12T15:07:08.999Z</time>
      </trkpt>
      <trkpt lat="46.16686" lon="6.30983">
        <ele>513</ele>
        <time>2026-01-12T15:07:10.999Z</time>
      </trkpt>
      <trkpt lat="46.16682" lon="6.30989">
        <ele>513</ele>
        <time>2026-01-12T15:07:12.999Z</time>
      </trkpt>
      <trkpt lat="46.16677" lon="6.30996">
        <ele>513</ele>
        <time>2026-01-12T15:07:14.999Z</time>
      </trkpt>
      <trkpt lat="46.16671" lon="6.31003">
        <ele>513</ele>
        <time>2026-01-12T15:07:16.999Z</time>
      </trkpt>
      <trkpt lat="46.16667" lon="6.31011">
        <ele>513</ele>
        <time>2026-01-12T15:07:18.999Z</time>
      </trkpt>
      <trkpt lat="46.16662" lon="6.31019">
        <ele>513</ele>
        <time>2026-01-12T15:07:20.999Z</time>
      </trkpt>
      <trkpt lat="46.16657" lon="6.31025">
        <ele>513</ele>
        <time>2026-01-12T15:07:22.999Z</time>
      </trkpt>
      <trkpt lat="46.16654" lon="6.31034">
        <ele>513</ele>
        <time>2026-01-12T15:07:24.999Z</time>
      </trkpt>
      <trkpt lat="46.16651" lon="6.3104">
        <ele>513</ele>
        <time>2026-01-12T15:07:26.999Z</time>
      </trkpt>
      <trkpt lat="46.16648" lon="6.31047">
        <ele>514</ele>
        <time>2026-01-12T15:07:28.999Z</time>
      </trkpt>
      <trkpt lat="46.16644" lon="6.31056">
        <ele>514</ele>
        <time>2026-01-12T15:07:30.999Z</time>
      </trkpt>
      <trkpt lat="46.1664" lon="6.31065">
        <ele>513</ele>
        <time>2026-01-12T15:07:32.999Z</time>
      </trkpt>
      <trkpt lat="46.16635" lon="6.31076">
        <ele>513</ele>
        <time>2026-01-12T15:07:34.999Z</time>
      </trkpt>
      <trkpt lat="46.1663" lon="6.31086">
        <ele>512</ele>
        <time>2026-01-12T15:07:36.999Z</time>
      </trkpt>
      <trkpt lat="46.16625" lon="6.31096">
        <ele>512</ele>
        <time>2026-01-12T15:07:38.999Z</time>
      </trkpt>
      <trkpt lat="46.16622" lon="6.31103">
        <ele>512</ele>
        <time>2026-01-12T15:07:40.999Z</time>
      </trkpt>
      <trkpt lat="46.16618" lon="6.31113">
        <ele>512</ele>
        <time>2026-01-12T15:07:42.999Z</time>
      </trkpt>
      <trkpt lat="46.16613" lon="6.31122">
        <ele>512</ele>
        <time>2026-01-12T15:07:44.999Z</time>
      </trkpt>
      <trkpt lat="46.16609" lon="6.3113">
        <ele>512</ele>
        <time>2026-01-12T15:07:46.999Z</time>
      </trkpt>
      <trkpt lat="46.16604" lon="6.31137">
        <ele>512</ele>
        <time>2026-01-12T15:07:48.999Z</time>
      </trkpt>
      <trkpt lat="46.16602" lon="6.31144">
        <ele>512</ele>
        <time>2026-01-12T15:07:49.999Z</time>
      </trkpt>
      <trkpt lat="46.16596" lon="6.31152">
        <ele>512</ele>
        <time>2026-01-12T15:07:51.999Z</time>
      </trkpt>
      <trkpt lat="46.16592" lon="6.31158">
        <ele>512</ele>
        <time>2026-01-12T15:07:53.999Z</time>
      </trkpt>
      <trkpt lat="46.16588" lon="6.3117">
        <ele>512</ele>
        <time>2026-01-12T15:07:55.999Z</time>
      </trkpt>
      <trkpt lat="46.16584" lon="6.31179">
        <ele>512</ele>
        <time>2026-01-12T15:07:57.999Z</time>
      </trkpt>
      <trkpt lat="46.16581" lon="6.31191">
        <ele>512</ele>
        <time>2026-01-12T15:07:59.999Z</time>
      </trkpt>
      <trkpt lat="46.16579" lon="6.31201">
        <ele>512</ele>
        <time>2026-01-12T15:08:01.999Z</time>
      </trkpt>
      <trkpt lat="46.16577" lon="6.31213">
        <ele>512</ele>
        <time>2026-01-12T15:08:03.999Z</time>
      </trkpt>
      <trkpt lat="46.16577" lon="6.31223">
        <ele>512</ele>
        <time>2026-01-12T15:08:05.999Z</time>
      </trkpt>
      <trkpt lat="46.16574" lon="6.31233">
        <ele>512</ele>
        <time>2026-01-12T15:08:07.999Z</time>
      </trkpt>
      <trkpt lat="46.16572" lon="6.31242">
        <ele>512</ele>
        <time>2026-01-12T15:08:09.999Z</time>
      </trkpt>
      <trkpt lat="46.16572" lon="6.31249">
        <ele>513</ele>
        <time>2026-01-12T15:08:11.999Z</time>
      </trkpt>
      <trkpt lat="46.16569" lon="6.31259">
        <ele>513</ele>
        <time>2026-01-12T15:08:13.999Z</time>
      </trkpt>
      <trkpt lat="46.16572" lon="6.31268">
        <ele>512</ele>
        <time>2026-01-12T15:08:16.999Z</time>
      </trkpt>
      <trkpt lat="46.16573" lon="6.31275">
        <ele>512</ele>
        <time>2026-01-12T15:08:18.999Z</time>
      </trkpt>
      <trkpt lat="46.16573" lon="6.31283">
        <ele>511</ele>
        <time>2026-01-12T15:08:20.999Z</time>
      </trkpt>
      <trkpt lat="46.16575" lon="6.3129">
        <ele>510</ele>
        <time>2026-01-12T15:08:22.999Z</time>
      </trkpt>
      <trkpt lat="46.16576" lon="6.31299">
        <ele>509</ele>
        <time>2026-01-12T15:08:25.999Z</time>
      </trkpt>
      <trkpt lat="46.16577" lon="6.31306">
        <ele>508</ele>
        <time>2026-01-12T15:08:27.999Z</time>
      </trkpt>
      <trkpt lat="46.16575" lon="6.31313">
        <ele>507</ele>
        <time>2026-01-12T15:08:29.999Z</time>
      </trkpt>
      <trkpt lat="46.16576" lon="6.31319">
        <ele>507</ele>
        <time>2026-01-12T15:08:30.999Z</time>
      </trkpt>
      <trkpt lat="46.16576" lon="6.31326">
        <ele>506</ele>
        <time>2026-01-12T15:08:32.999Z</time>
      </trkpt>
      <trkpt lat="46.1658" lon="6.31331">
        <ele>506</ele>
        <time>2026-01-12T15:08:36.999Z</time>
      </trkpt>
      <trkpt lat="46.16597" lon="6.31371">
        <ele>503</ele>
        <time>2026-01-12T15:09:28.999Z</time>
      </trkpt>
      <trkpt lat="46.16599" lon="6.31378">
        <ele>502</ele>
        <time>2026-01-12T15:09:33.999Z</time>
      </trkpt>
      <trkpt lat="46.16598" lon="6.31386">
        <ele>501</ele>
        <time>2026-01-12T15:09:34.999Z</time>
      </trkpt>
      <trkpt lat="46.16602" lon="6.31389">
        <ele>500</ele>
        <time>2026-01-12T15:09:37.999Z</time>
      </trkpt>
      <trkpt lat="46.16608" lon="6.31393">
        <ele>499</ele>
        <time>2026-01-12T15:09:40.999Z</time>
      </trkpt>
      <trkpt lat="46.16614" lon="6.31398">
        <ele>497</ele>
        <time>2026-01-12T15:09:42.999Z</time>
      </trkpt>
      <trkpt lat="46.16615" lon="6.31405">
        <ele>496</ele>
        <time>2026-01-12T15:09:44.999Z</time>
      </trkpt>
      <trkpt lat="46.16619" lon="6.3141">
        <ele>495</ele>
        <time>2026-01-12T15:09:46.999Z</time>
      </trkpt>
      <trkpt lat="46.16621" lon="6.31422">
        <ele>494</ele>
        <time>2026-01-12T15:09:49.999Z</time>
      </trkpt>
      <trkpt lat="46.16622" lon="6.3143">
        <ele>493</ele>
        <time>2026-01-12T15:09:51.999Z</time>
      </trkpt>
      <trkpt lat="46.16621" lon="6.31438">
        <ele>491</ele>
        <time>2026-01-12T15:09:55.999Z</time>
      </trkpt>
      <trkpt lat="46.16621" lon="6.31444">
        <ele>490</ele>
        <time>2026-01-12T15:09:57.999Z</time>
      </trkpt>
      <trkpt lat="46.16631" lon="6.31456">
        <ele>489</ele>
        <time>2026-01-12T15:10:02.999Z</time>
      </trkpt>
      <trkpt lat="46.16633" lon="6.31465">
        <ele>488</ele>
        <time>2026-01-12T15:10:05.999Z</time>
      </trkpt>
      <trkpt lat="46.16635" lon="6.31471">
        <ele>487</ele>
        <time>2026-01-12T15:10:07.999Z</time>
      </trkpt>
      <trkpt lat="46.16637" lon="6.31477">
        <ele>487</ele>
        <time>2026-01-12T15:10:09.999Z</time>
      </trkpt>
      <trkpt lat="46.1664" lon="6.31485">
        <ele>487</ele>
        <time>2026-01-12T15:10:12.999Z</time>
      </trkpt>
      <trkpt lat="46.16644" lon="6.31491">
        <ele>487</ele>
        <time>2026-01-12T15:10:15.999Z</time>
      </trkpt>
      <trkpt lat="46.16646" lon="6.31499">
        <ele>487</ele>
        <time>2026-01-12T15:10:17.999Z</time>
      </trkpt>
      <trkpt lat="46.16648" lon="6.31507">
        <ele>488</ele>
        <time>2026-01-12T15:10:19.999Z</time>
      </trkpt>
      <trkpt lat="46.1665" lon="6.31515">
        <ele>487</ele>
        <time>2026-01-12T15:10:21.999Z</time>
      </trkpt>
      <trkpt lat="46.1665" lon="6.31523">
        <ele>487</ele>
        <time>2026-01-12T15:10:25.999Z</time>
      </trkpt>
      <trkpt lat="46.16648" lon="6.31533">
        <ele>486</ele>
        <time>2026-01-12T15:10:27.999Z</time>
      </trkpt>
      <trkpt lat="46.16644" lon="6.31539">
        <ele>486</ele>
        <time>2026-01-12T15:10:29.999Z</time>
      </trkpt>
      <trkpt lat="46.16643" lon="6.31551">
        <ele>486</ele>
        <time>2026-01-12T15:10:31.999Z</time>
      </trkpt>
      <trkpt lat="46.16645" lon="6.31557">
        <ele>486</ele>
        <time>2026-01-12T15:10:33.999Z</time>
      </trkpt>
      <trkpt lat="46.16648" lon="6.3157">
        <ele>486</ele>
        <time>2026-01-12T15:10:35.999Z</time>
      </trkpt>
      <trkpt lat="46.16653" lon="6.31573">
        <ele>487</ele>
        <time>2026-01-12T15:10:37.999Z</time>
      </trkpt>
      <trkpt lat="46.16657" lon="6.31582">
        <ele>487</ele>
        <time>2026-01-12T15:10:40.999Z</time>
      </trkpt>
      <trkpt lat="46.16662" lon="6.31585">
        <ele>486</ele>
        <time>2026-01-12T15:10:42.999Z</time>
      </trkpt>
      <trkpt lat="46.16667" lon="6.31588">
        <ele>486</ele>
        <time>2026-01-12T15:10:44.999Z</time>
      </trkpt>
      <trkpt lat="46.1667" lon="6.31595">
        <ele>485</ele>
        <time>2026-01-12T15:10:46.999Z</time>
      </trkpt>
      <trkpt lat="46.16674" lon="6.31604">
        <ele>485</ele>
        <time>2026-01-12T15:10:48.999Z</time>
      </trkpt>
      <trkpt lat="46.16679" lon="6.31613">
        <ele>485</ele>
        <time>2026-01-12T15:10:50.999Z</time>
      </trkpt>
      <trkpt lat="46.16684" lon="6.31617">
        <ele>485</ele>
        <time>2026-01-12T15:10:52.999Z</time>
      </trkpt>
      <trkpt lat="46.16688" lon="6.31623">
        <ele>485</ele>
        <time>2026-01-12T15:10:54.999Z</time>
      </trkpt>
      <trkpt lat="46.16693" lon="6.3163">
        <ele>485</ele>
        <time>2026-01-12T15:10:56.999Z</time>
      </trkpt>
      <trkpt lat="46.167" lon="6.31634">
        <ele>485</ele>
        <time>2026-01-12T15:10:58.999Z</time>
      </trkpt>
      <trkpt lat="46.16706" lon="6.31644">
        <ele>485</ele>
        <time>2026-01-12T15:11:02.999Z</time>
      </trkpt>
      <trkpt lat="46.16712" lon="6.31649">
        <ele>485</ele>
        <time>2026-01-12T15:11:04.999Z</time>
      </trkpt>
      <trkpt lat="46.16718" lon="6.31652">
        <ele>485</ele>
        <time>2026-01-12T15:11:06.999Z</time>
      </trkpt>
      <trkpt lat="46.16723" lon="6.31655">
        <ele>486</ele>
        <time>2026-01-12T15:11:09.000Z</time>
      </trkpt>
      <trkpt lat="46.16729" lon="6.31657">
        <ele>486</ele>
        <time>2026-01-12T15:11:11.000Z</time>
      </trkpt>
      <trkpt lat="46.16735" lon="6.3166">
        <ele>487</ele>
        <time>2026-01-12T15:11:13.000Z</time>
      </trkpt>
      <trkpt lat="46.1674" lon="6.31663">
        <ele>487</ele>
        <time>2026-01-12T15:11:15.000Z</time>
      </trkpt>
      <trkpt lat="46.16744" lon="6.31664">
        <ele>487</ele>
        <time>2026-01-12T15:11:17.000Z</time>
      </trkpt>
      <trkpt lat="46.16749" lon="6.31669">
        <ele>487</ele>
        <time>2026-01-12T15:11:19.000Z</time>
      </trkpt>
      <trkpt lat="46.16751" lon="6.31674">
        <ele>487</ele>
        <time>2026-01-12T15:11:19.999Z</time>
      </trkpt>
      <trkpt lat="46.16754" lon="6.3168">
        <ele>487</ele>
        <time>2026-01-12T15:11:20.999Z</time>
      </trkpt>
      <trkpt lat="46.16758" lon="6.3169">
        <ele>487</ele>
        <time>2026-01-12T15:11:22.999Z</time>
      </trkpt>
      <trkpt lat="46.16761" lon="6.31698">
        <ele>487</ele>
        <time>2026-01-12T15:11:24.999Z</time>
      </trkpt>
      <trkpt lat="46.16766" lon="6.31703">
        <ele>487</ele>
        <time>2026-01-12T15:11:28.999Z</time>
      </trkpt>
      <trkpt lat="46.16771" lon="6.31713">
        <ele>487</ele>
        <time>2026-01-12T15:11:30.999Z</time>
      </trkpt>
      <trkpt lat="46.16774" lon="6.31725">
        <ele>487</ele>
        <time>2026-01-12T15:11:32.999Z</time>
      </trkpt>
      <trkpt lat="46.16776" lon="6.31731">
        <ele>487</ele>
        <time>2026-01-12T15:11:33.999Z</time>
      </trkpt>
      <trkpt lat="46.16778" lon="6.31738">
        <ele>488</ele>
        <time>2026-01-12T15:11:34.999Z</time>
      </trkpt>
      <trkpt lat="46.16777" lon="6.31751">
        <ele>488</ele>
        <time>2026-01-12T15:11:35.999Z</time>
      </trkpt>
      <trkpt lat="46.16772" lon="6.31762">
        <ele>489</ele>
        <time>2026-01-12T15:11:37.999Z</time>
      </trkpt>
      <trkpt lat="46.16766" lon="6.31771">
        <ele>489</ele>
        <time>2026-01-12T15:11:39.999Z</time>
      </trkpt>
      <trkpt lat="46.1676" lon="6.31778">
        <ele>489</ele>
        <time>2026-01-12T15:11:41.999Z</time>
      </trkpt>
      <trkpt lat="46.16759" lon="6.31787">
        <ele>489</ele>
        <time>2026-01-12T15:11:43.999Z</time>
      </trkpt>
      <trkpt lat="46.16759" lon="6.31793">
        <ele>489</ele>
        <time>2026-01-12T15:11:44.999Z</time>
      </trkpt>
      <trkpt lat="46.16762" lon="6.318">
        <ele>489</ele>
        <time>2026-01-12T15:11:46.999Z</time>
      </trkpt>
      <trkpt lat="46.16765" lon="6.31811">
        <ele>489</ele>
        <time>2026-01-12T15:11:48.999Z</time>
      </trkpt>
      <trkpt lat="46.16762" lon="6.31822">
        <ele>490</ele>
        <time>2026-01-12T15:11:50.999Z</time>
      </trkpt>
      <trkpt lat="46.16759" lon="6.31832">
        <ele>490</ele>
        <time>2026-01-12T15:11:52.999Z</time>
      </trkpt>
      <trkpt lat="46.16756" lon="6.31839">
        <ele>490</ele>
        <time>2026-01-12T15:11:54.999Z</time>
      </trkpt>
      <trkpt lat="46.16752" lon="6.31845">
        <ele>490</ele>
        <time>2026-01-12T15:11:56.999Z</time>
      </trkpt>
      <trkpt lat="46.16749" lon="6.31851">
        <ele>488</ele>
        <time>2026-01-12T15:11:57.999Z</time>
      </trkpt>
      <trkpt lat="46.16743" lon="6.31867">
        <ele>487</ele>
        <time>2026-01-12T15:12:02.999Z</time>
      </trkpt>
      <trkpt lat="46.16739" lon="6.31874">
        <ele>486</ele>
        <time>2026-01-12T15:12:04.999Z</time>
      </trkpt>
      <trkpt lat="46.16735" lon="6.31881">
        <ele>486</ele>
        <time>2026-01-12T15:12:06.999Z</time>
      </trkpt>
      <trkpt lat="46.1673" lon="6.31889">
        <ele>486</ele>
        <time>2026-01-12T15:12:08.999Z</time>
      </trkpt>
      <trkpt lat="46.16725" lon="6.31896">
        <ele>486</ele>
        <time>2026-01-12T15:12:10.999Z</time>
      </trkpt>
      <trkpt lat="46.16719" lon="6.31903">
        <ele>486</ele>
        <time>2026-01-12T15:12:12.999Z</time>
      </trkpt>
      <trkpt lat="46.16713" lon="6.3191">
        <ele>486</ele>
        <time>2026-01-12T15:12:14.999Z</time>
      </trkpt>
      <trkpt lat="46.16709" lon="6.31916">
        <ele>487</ele>
        <time>2026-01-12T15:12:16.999Z</time>
      </trkpt>
      <trkpt lat="46.16702" lon="6.31924">
        <ele>487</ele>
        <time>2026-01-12T15:12:18.999Z</time>
      </trkpt>
      <trkpt lat="46.16697" lon="6.31929">
        <ele>487</ele>
        <time>2026-01-12T15:12:20.999Z</time>
      </trkpt>
      <trkpt lat="46.1669" lon="6.31936">
        <ele>488</ele>
        <time>2026-01-12T15:12:22.999Z</time>
      </trkpt>
      <trkpt lat="46.16685" lon="6.31941">
        <ele>488</ele>
        <time>2026-01-12T15:12:24.999Z</time>
      </trkpt>
      <trkpt lat="46.16681" lon="6.31946">
        <ele>489</ele>
        <time>2026-01-12T15:12:26.999Z</time>
      </trkpt>
      <trkpt lat="46.16677" lon="6.3195">
        <ele>489</ele>
        <time>2026-01-12T15:12:27.999Z</time>
      </trkpt>
      <trkpt lat="46.16671" lon="6.31956">
        <ele>490</ele>
        <time>2026-01-12T15:12:29.999Z</time>
      </trkpt>
      <trkpt lat="46.16665" lon="6.31964">
        <ele>491</ele>
        <time>2026-01-12T15:12:31.999Z</time>
      </trkpt>
      <trkpt lat="46.1666" lon="6.31969">
        <ele>492</ele>
        <time>2026-01-12T15:12:33.999Z</time>
      </trkpt>
      <trkpt lat="46.16648" lon="6.31986">
        <ele>493</ele>
        <time>2026-01-12T15:12:35.999Z</time>
      </trkpt>
      <trkpt lat="46.16643" lon="6.31991">
        <ele>495</ele>
        <time>2026-01-12T15:12:38.999Z</time>
      </trkpt>
      <trkpt lat="46.16637" lon="6.31995">
        <ele>495</ele>
        <time>2026-01-12T15:12:40.999Z</time>
      </trkpt>
      <trkpt lat="46.16633" lon="6.32003">
        <ele>496</ele>
        <time>2026-01-12T15:12:43.999Z</time>
      </trkpt>
      <trkpt lat="46.16629" lon="6.32009">
        <ele>496</ele>
        <time>2026-01-12T15:12:46.999Z</time>
      </trkpt>
      <trkpt lat="46.16626" lon="6.32015">
        <ele>497</ele>
        <time>2026-01-12T15:12:49.999Z</time>
      </trkpt>
      <trkpt lat="46.16622" lon="6.32018">
        <ele>497</ele>
        <time>2026-01-12T15:12:51.999Z</time>
      </trkpt>
      <trkpt lat="46.16618" lon="6.32024">
        <ele>498</ele>
        <time>2026-01-12T15:12:54.999Z</time>
      </trkpt>
      <trkpt lat="46.16615" lon="6.3203">
        <ele>498</ele>
        <time>2026-01-12T15:12:56.999Z</time>
      </trkpt>
      <trkpt lat="46.16611" lon="6.32035">
        <ele>498</ele>
        <time>2026-01-12T15:12:58.999Z</time>
      </trkpt>
      <trkpt lat="46.16607" lon="6.3204">
        <ele>498</ele>
        <time>2026-01-12T15:13:01.999Z</time>
      </trkpt>
      <trkpt lat="46.16602" lon="6.32045">
        <ele>498</ele>
        <time>2026-01-12T15:13:04.999Z</time>
      </trkpt>
      <trkpt lat="46.16597" lon="6.32049">
        <ele>498</ele>
        <time>2026-01-12T15:13:08.999Z</time>
      </trkpt>
      <trkpt lat="46.16592" lon="6.32054">
        <ele>498</ele>
        <time>2026-01-12T15:13:10.999Z</time>
      </trkpt>
      <trkpt lat="46.16588" lon="6.32056">
        <ele>498</ele>
        <time>2026-01-12T15:13:12.999Z</time>
      </trkpt>
      <trkpt lat="46.16583" lon="6.32061">
        <ele>498</ele>
        <time>2026-01-12T15:13:14.999Z</time>
      </trkpt>
      <trkpt lat="46.16575" lon="6.32065">
        <ele>499</ele>
        <time>2026-01-12T15:13:18.999Z</time>
      </trkpt>
      <trkpt lat="46.16569" lon="6.32069">
        <ele>499</ele>
        <time>2026-01-12T15:13:21.999Z</time>
      </trkpt>
      <trkpt lat="46.16564" lon="6.32075">
        <ele>499</ele>
        <time>2026-01-12T15:13:23.999Z</time>
      </trkpt>
      <trkpt lat="46.16559" lon="6.32073">
        <ele>499</ele>
        <time>2026-01-12T15:13:26.999Z</time>
      </trkpt>
      <trkpt lat="46.16554" lon="6.32073">
        <ele>499</ele>
        <time>2026-01-12T15:13:28.999Z</time>
      </trkpt>
      <trkpt lat="46.16565" lon="6.32086">
        <ele>499</ele>
        <time>2026-01-12T15:13:30.044Z</time>
      </trkpt>
      <trkpt lat="46.16551" lon="6.32068">
        <ele>499</ele>
        <time>2026-01-12T15:13:32.999Z</time>
      </trkpt>
      <trkpt lat="46.16544" lon="6.32067">
        <ele>499</ele>
        <time>2026-01-12T15:13:35.999Z</time>
      </trkpt>
      <trkpt lat="46.16538" lon="6.32067">
        <ele>499</ele>
        <time>2026-01-12T15:13:39.000Z</time>
      </trkpt>
      <trkpt lat="46.16533" lon="6.32066">
        <ele>500</ele>
        <time>2026-01-12T15:13:41.000Z</time>
      </trkpt>
      <trkpt lat="46.16528" lon="6.32066">
        <ele>501</ele>
        <time>2026-01-12T15:13:44.000Z</time>
      </trkpt>
      <trkpt lat="46.16522" lon="6.32066">
        <ele>502</ele>
        <time>2026-01-12T15:13:47.000Z</time>
      </trkpt>
      <trkpt lat="46.16516" lon="6.32065">
        <ele>503</ele>
        <time>2026-01-12T15:13:49.000Z</time>
      </trkpt>
      <trkpt lat="46.16511" lon="6.32064">
        <ele>503</ele>
        <time>2026-01-12T15:13:52.000Z</time>
      </trkpt>
      <trkpt lat="46.16506" lon="6.32064">
        <ele>504</ele>
        <time>2026-01-12T15:13:53.999Z</time>
      </trkpt>
      <trkpt lat="46.165" lon="6.32063">
        <ele>504</ele>
        <time>2026-01-12T15:13:56.999Z</time>
      </trkpt>
      <trkpt lat="46.16495" lon="6.32061">
        <ele>505</ele>
        <time>2026-01-12T15:13:58.999Z</time>
      </trkpt>
      <trkpt lat="46.1649" lon="6.32061">
        <ele>506</ele>
        <time>2026-01-12T15:14:00.999Z</time>
      </trkpt>
      <trkpt lat="46.16485" lon="6.32059">
        <ele>506</ele>
        <time>2026-01-12T15:14:02.999Z</time>
      </trkpt>
      <trkpt lat="46.16475" lon="6.32058">
        <ele>507</ele>
        <time>2026-01-12T15:14:05.999Z</time>
      </trkpt>
      <trkpt lat="46.16471" lon="6.32058">
        <ele>507</ele>
        <time>2026-01-12T15:14:07.999Z</time>
      </trkpt>
      <trkpt lat="46.16466" lon="6.32057">
        <ele>508</ele>
        <time>2026-01-12T15:14:10.999Z</time>
      </trkpt>
      <trkpt lat="46.16461" lon="6.32054">
        <ele>508</ele>
        <time>2026-01-12T15:14:12.999Z</time>
      </trkpt>
      <trkpt lat="46.16457" lon="6.32053">
        <ele>508</ele>
        <time>2026-01-12T15:14:14.999Z</time>
      </trkpt>
      <trkpt lat="46.1645" lon="6.32051">
        <ele>508</ele>
        <time>2026-01-12T15:14:17.999Z</time>
      </trkpt>
      <trkpt lat="46.16444" lon="6.32048">
        <ele>508</ele>
        <time>2026-01-12T15:14:20.999Z</time>
      </trkpt>
      <trkpt lat="46.16438" lon="6.32044">
        <ele>508</ele>
        <time>2026-01-12T15:14:23.999Z</time>
      </trkpt>
      <trkpt lat="46.16433" lon="6.32042">
        <ele>508</ele>
        <time>2026-01-12T15:14:25.999Z</time>
      </trkpt>
      <trkpt lat="46.16428" lon="6.32038">
        <ele>508</ele>
        <time>2026-01-12T15:14:28.999Z</time>
      </trkpt>
      <trkpt lat="46.16425" lon="6.32033">
        <ele>508</ele>
        <time>2026-01-12T15:14:30.999Z</time>
      </trkpt>
      <trkpt lat="46.16421" lon="6.32027">
        <ele>508</ele>
        <time>2026-01-12T15:14:32.999Z</time>
      </trkpt>
      <trkpt lat="46.16416" lon="6.32022">
        <ele>508</ele>
        <time>2026-01-12T15:14:34.999Z</time>
      </trkpt>
      <trkpt lat="46.16412" lon="6.32017">
        <ele>509</ele>
        <time>2026-01-12T15:14:37.999Z</time>
      </trkpt>
      <trkpt lat="46.16407" lon="6.3201">
        <ele>509</ele>
        <time>2026-01-12T15:14:40.999Z</time>
      </trkpt>
      <trkpt lat="46.16404" lon="6.32004">
        <ele>510</ele>
        <time>2026-01-12T15:14:42.999Z</time>
      </trkpt>
      <trkpt lat="46.16403" lon="6.31997">
        <ele>510</ele>
        <time>2026-01-12T15:14:44.999Z</time>
      </trkpt>
      <trkpt lat="46.16398" lon="6.31992">
        <ele>510</ele>
        <time>2026-01-12T15:14:46.999Z</time>
      </trkpt>
      <trkpt lat="46.16395" lon="6.31987">
        <ele>510</ele>
        <time>2026-01-12T15:14:48.999Z</time>
      </trkpt>
      <trkpt lat="46.16391" lon="6.31981">
        <ele>511</ele>
        <time>2026-01-12T15:14:50.999Z</time>
      </trkpt>
      <trkpt lat="46.16389" lon="6.31975">
        <ele>511</ele>
        <time>2026-01-12T15:14:52.999Z</time>
      </trkpt>
      <trkpt lat="46.16385" lon="6.31966">
        <ele>511</ele>
        <time>2026-01-12T15:14:55.999Z</time>
      </trkpt>
      <trkpt lat="46.16381" lon="6.31959">
        <ele>511</ele>
        <time>2026-01-12T15:14:57.999Z</time>
      </trkpt>
      <trkpt lat="46.16381" lon="6.31952">
        <ele>511</ele>
        <time>2026-01-12T15:14:59.999Z</time>
      </trkpt>
      <trkpt lat="46.16377" lon="6.31946">
        <ele>511</ele>
        <time>2026-01-12T15:15:01.999Z</time>
      </trkpt>
      <trkpt lat="46.16376" lon="6.3194">
        <ele>511</ele>
        <time>2026-01-12T15:15:03.999Z</time>
      </trkpt>
      <trkpt lat="46.16371" lon="6.31931">
        <ele>512</ele>
        <time>2026-01-12T15:15:06.999Z</time>
      </trkpt>
      <trkpt lat="46.16369" lon="6.31922">
        <ele>512</ele>
        <time>2026-01-12T15:15:08.999Z</time>
      </trkpt>
      <trkpt lat="46.16366" lon="6.31914">
        <ele>513</ele>
        <time>2026-01-12T15:15:10.999Z</time>
      </trkpt>
      <trkpt lat="46.16366" lon="6.31903">
        <ele>513</ele>
        <time>2026-01-12T15:15:13.999Z</time>
      </trkpt>
      <trkpt lat="46.16365" lon="6.31897">
        <ele>514</ele>
        <time>2026-01-12T15:15:14.999Z</time>
      </trkpt>
      <trkpt lat="46.16362" lon="6.31887">
        <ele>514</ele>
        <time>2026-01-12T15:15:16.999Z</time>
      </trkpt>
      <trkpt lat="46.16359" lon="6.31876">
        <ele>515</ele>
        <time>2026-01-12T15:15:18.999Z</time>
      </trkpt>
      <trkpt lat="46.16356" lon="6.31868">
        <ele>515</ele>
        <time>2026-01-12T15:15:20.999Z</time>
      </trkpt>
      <trkpt lat="46.16354" lon="6.31857">
        <ele>516</ele>
        <time>2026-01-12T15:15:22.999Z</time>
      </trkpt>
      <trkpt lat="46.16351" lon="6.31847">
        <ele>516</ele>
        <time>2026-01-12T15:15:24.999Z</time>
      </trkpt>
      <trkpt lat="46.16346" lon="6.3184">
        <ele>516</ele>
        <time>2026-01-12T15:15:26.999Z</time>
      </trkpt>
      <trkpt lat="46.16342" lon="6.31832">
        <ele>516</ele>
        <time>2026-01-12T15:15:28.999Z</time>
      </trkpt>
      <trkpt lat="46.16332" lon="6.31816">
        <ele>517</ele>
        <time>2026-01-12T15:15:32.999Z</time>
      </trkpt>
      <trkpt lat="46.16327" lon="6.31808">
        <ele>517</ele>
        <time>2026-01-12T15:15:34.999Z</time>
      </trkpt>
      <trkpt lat="46.16323" lon="6.318">
        <ele>517</ele>
        <time>2026-01-12T15:15:36.999Z</time>
      </trkpt>
      <trkpt lat="46.16318" lon="6.31792">
        <ele>517</ele>
        <time>2026-01-12T15:15:38.999Z</time>
      </trkpt>
      <trkpt lat="46.16313" lon="6.31784">
        <ele>518</ele>
        <time>2026-01-12T15:15:40.999Z</time>
      </trkpt>
      <trkpt lat="46.16309" lon="6.31777">
        <ele>518</ele>
        <time>2026-01-12T15:15:42.999Z</time>
      </trkpt>
      <trkpt lat="46.16304" lon="6.3177">
        <ele>518</ele>
        <time>2026-01-12T15:15:44.999Z</time>
      </trkpt>
      <trkpt lat="46.163" lon="6.31764">
        <ele>518</ele>
        <time>2026-01-12T15:15:46.999Z</time>
      </trkpt>
      <trkpt lat="46.16295" lon="6.31757">
        <ele>518</ele>
        <time>2026-01-12T15:15:48.999Z</time>
      </trkpt>
      <trkpt lat="46.1629" lon="6.31749">
        <ele>518</ele>
        <time>2026-01-12T15:15:50.999Z</time>
      </trkpt>
      <trkpt lat="46.16285" lon="6.31742">
        <ele>518</ele>
        <time>2026-01-12T15:15:52.999Z</time>
      </trkpt>
      <trkpt lat="46.1628" lon="6.31736">
        <ele>517</ele>
        <time>2026-01-12T15:15:54.999Z</time>
      </trkpt>
      <trkpt lat="46.16275" lon="6.31729">
        <ele>517</ele>
        <time>2026-01-12T15:15:56.999Z</time>
      </trkpt>
      <trkpt lat="46.16269" lon="6.31723">
        <ele>517</ele>
        <time>2026-01-12T15:15:58.999Z</time>
      </trkpt>
      <trkpt lat="46.16261" lon="6.31711">
        <ele>517</ele>
        <time>2026-01-12T15:16:02.999Z</time>
      </trkpt>
      <trkpt lat="46.16256" lon="6.31705">
        <ele>518</ele>
        <time>2026-01-12T15:16:04.999Z</time>
      </trkpt>
      <trkpt lat="46.1625" lon="6.31698">
        <ele>518</ele>
        <time>2026-01-12T15:16:06.999Z</time>
      </trkpt>
      <trkpt lat="46.16244" lon="6.31692">
        <ele>519</ele>
        <time>2026-01-12T15:16:08.999Z</time>
      </trkpt>
      <trkpt lat="46.16235" lon="6.31684">
        <ele>519</ele>
        <time>2026-01-12T15:16:10.999Z</time>
      </trkpt>
      <trkpt lat="46.16231" lon="6.3168">
        <ele>519</ele>
        <time>2026-01-12T15:16:11.999Z</time>
      </trkpt>
      <trkpt lat="46.16227" lon="6.31676">
        <ele>519</ele>
        <time>2026-01-12T15:16:12.999Z</time>
      </trkpt>
      <trkpt lat="46.16222" lon="6.31673">
        <ele>518</ele>
        <time>2026-01-12T15:16:13.999Z</time>
      </trkpt>
      <trkpt lat="46.16217" lon="6.3167">
        <ele>518</ele>
        <time>2026-01-12T15:16:14.999Z</time>
      </trkpt>
      <trkpt lat="46.16211" lon="6.31667">
        <ele>517</ele>
        <time>2026-01-12T15:16:15.999Z</time>
      </trkpt>
      <trkpt lat="46.16202" lon="6.31665">
        <ele>517</ele>
        <time>2026-01-12T15:16:16.999Z</time>
      </trkpt>
      <trkpt lat="46.16192" lon="6.3166">
        <ele>517</ele>
        <time>2026-01-12T15:16:17.999Z</time>
      </trkpt>
      <trkpt lat="46.16185" lon="6.31655">
        <ele>517</ele>
        <time>2026-01-12T15:16:18.999Z</time>
      </trkpt>
      <trkpt lat="46.16178" lon="6.31651">
        <ele>517</ele>
        <time>2026-01-12T15:16:19.999Z</time>
      </trkpt>
      <trkpt lat="46.16172" lon="6.31649">
        <ele>517</ele>
        <time>2026-01-12T15:16:20.999Z</time>
      </trkpt>
      <trkpt lat="46.16166" lon="6.31646">
        <ele>517</ele>
        <time>2026-01-12T15:16:21.999Z</time>
      </trkpt>
      <trkpt lat="46.1616" lon="6.31642">
        <ele>517</ele>
        <time>2026-01-12T15:16:22.999Z</time>
      </trkpt>
      <trkpt lat="46.16156" lon="6.3164">
        <ele>517</ele>
        <time>2026-01-12T15:16:23.999Z</time>
      </trkpt>
      <trkpt lat="46.16151" lon="6.31638">
        <ele>517</ele>
        <time>2026-01-12T15:16:24.999Z</time>
      </trkpt>
      <trkpt lat="46.16144" lon="6.31632">
        <ele>517</ele>
        <time>2026-01-12T15:16:26.999Z</time>
      </trkpt>
      <trkpt lat="46.16143" lon="6.31624">
        <ele>517</ele>
        <time>2026-01-12T15:16:27.999Z</time>
      </trkpt>
      <trkpt lat="46.16144" lon="6.31618">
        <ele>517</ele>
        <time>2026-01-12T15:16:28.999Z</time>
      </trkpt>
      <trkpt lat="46.1614" lon="6.31612">
        <ele>517</ele>
        <time>2026-01-12T15:16:29.999Z</time>
      </trkpt>
      <trkpt lat="46.16141" lon="6.31604">
        <ele>518</ele>
        <time>2026-01-12T15:16:30.999Z</time>
      </trkpt>
      <trkpt lat="46.16142" lon="6.31595">
        <ele>518</ele>
        <time>2026-01-12T15:16:31.999Z</time>
      </trkpt>
      <trkpt lat="46.16146" lon="6.3159">
        <ele>519</ele>
        <time>2026-01-12T15:16:32.999Z</time>
      </trkpt>
      <trkpt lat="46.16148" lon="6.31582">
        <ele>520</ele>
        <time>2026-01-12T15:16:33.999Z</time>
      </trkpt>
      <trkpt lat="46.16152" lon="6.31571">
        <ele>521</ele>
        <time>2026-01-12T15:16:35.999Z</time>
      </trkpt>
      <trkpt lat="46.16153" lon="6.31564">
        <ele>522</ele>
        <time>2026-01-12T15:16:36.999Z</time>
      </trkpt>
      <trkpt lat="46.16153" lon="6.31555">
        <ele>523</ele>
        <time>2026-01-12T15:16:38.999Z</time>
      </trkpt>
      <trkpt lat="46.16155" lon="6.31544">
        <ele>523</ele>
        <time>2026-01-12T15:16:40.999Z</time>
      </trkpt>
      <trkpt lat="46.16158" lon="6.31535">
        <ele>524</ele>
        <time>2026-01-12T15:16:42.999Z</time>
      </trkpt>
      <trkpt lat="46.16161" lon="6.31528">
        <ele>524</ele>
        <time>2026-01-12T15:16:44.999Z</time>
      </trkpt>
      <trkpt lat="46.16164" lon="6.31518">
        <ele>524</ele>
        <time>2026-01-12T15:16:46.999Z</time>
      </trkpt>
      <trkpt lat="46.16169" lon="6.31512">
        <ele>525</ele>
        <time>2026-01-12T15:16:48.999Z</time>
      </trkpt>
      <trkpt lat="46.16171" lon="6.31506">
        <ele>525</ele>
        <time>2026-01-12T15:16:49.999Z</time>
      </trkpt>
      <trkpt lat="46.16174" lon="6.31495">
        <ele>525</ele>
        <time>2026-01-12T15:16:51.999Z</time>
      </trkpt>
      <trkpt lat="46.16175" lon="6.31489">
        <ele>525</ele>
        <time>2026-01-12T15:16:52.999Z</time>
      </trkpt>
      <trkpt lat="46.16178" lon="6.31483">
        <ele>525</ele>
        <time>2026-01-12T15:16:53.999Z</time>
      </trkpt>
      <trkpt lat="46.16179" lon="6.31476">
        <ele>525</ele>
        <time>2026-01-12T15:16:54.999Z</time>
      </trkpt>
      <trkpt lat="46.16179" lon="6.31468">
        <ele>525</ele>
        <time>2026-01-12T15:16:55.999Z</time>
      </trkpt>
      <trkpt lat="46.16179" lon="6.31456">
        <ele>524</ele>
        <time>2026-01-12T15:16:57.999Z</time>
      </trkpt>
      <trkpt lat="46.16177" lon="6.31444">
        <ele>524</ele>
        <time>2026-01-12T15:16:59.999Z</time>
      </trkpt>
      <trkpt lat="46.16174" lon="6.31438">
        <ele>524</ele>
        <time>2026-01-12T15:17:00.999Z</time>
      </trkpt>
      <trkpt lat="46.16173" lon="6.31431">
        <ele>524</ele>
        <time>2026-01-12T15:17:01.999Z</time>
      </trkpt>
      <trkpt lat="46.16171" lon="6.31424">
        <ele>524</ele>
        <time>2026-01-12T15:17:02.999Z</time>
      </trkpt>
      <trkpt lat="46.1617" lon="6.31418">
        <ele>524</ele>
        <time>2026-01-12T15:17:03.999Z</time>
      </trkpt>
      <trkpt lat="46.16169" lon="6.31412">
        <ele>524</ele>
        <time>2026-01-12T15:17:04.999Z</time>
      </trkpt>
      <trkpt lat="46.16167" lon="6.31404">
        <ele>524</ele>
        <time>2026-01-12T15:17:05.999Z</time>
      </trkpt>
      <trkpt lat="46.16165" lon="6.31397">
        <ele>524</ele>
        <time>2026-01-12T15:17:06.999Z</time>
      </trkpt>
      <trkpt lat="46.16164" lon="6.31391">
        <ele>524</ele>
        <time>2026-01-12T15:17:07.999Z</time>
      </trkpt>
      <trkpt lat="46.16162" lon="6.31384">
        <ele>524</ele>
        <time>2026-01-12T15:17:08.999Z</time>
      </trkpt>
      <trkpt lat="46.16159" lon="6.31372">
        <ele>524</ele>
        <time>2026-01-12T15:17:10.999Z</time>
      </trkpt>
      <trkpt lat="46.16155" lon="6.31362">
        <ele>525</ele>
        <time>2026-01-12T15:17:12.999Z</time>
      </trkpt>
      <trkpt lat="46.16152" lon="6.31351">
        <ele>525</ele>
        <time>2026-01-12T15:17:14.999Z</time>
      </trkpt>
      <trkpt lat="46.1615" lon="6.31341">
        <ele>525</ele>
        <time>2026-01-12T15:17:16.999Z</time>
      </trkpt>
      <trkpt lat="46.16147" lon="6.31332">
        <ele>525</ele>
        <time>2026-01-12T15:17:18.999Z</time>
      </trkpt>
      <trkpt lat="46.16145" lon="6.31321">
        <ele>526</ele>
        <time>2026-01-12T15:17:20.999Z</time>
      </trkpt>
      <trkpt lat="46.16143" lon="6.31313">
        <ele>526</ele>
        <time>2026-01-12T15:17:22.999Z</time>
      </trkpt>
      <trkpt lat="46.16137" lon="6.3131">
        <ele>526</ele>
        <time>2026-01-12T15:17:24.999Z</time>
      </trkpt>
      <trkpt lat="46.16131" lon="6.31316">
        <ele>525</ele>
        <time>2026-01-12T15:17:26.999Z</time>
      </trkpt>
      <trkpt lat="46.16125" lon="6.31322">
        <ele>525</ele>
        <time>2026-01-12T15:17:28.999Z</time>
      </trkpt>
      <trkpt lat="46.16116" lon="6.31331">
        <ele>524</ele>
        <time>2026-01-12T15:17:32.999Z</time>
      </trkpt>
      <trkpt lat="46.16111" lon="6.31335">
        <ele>523</ele>
        <time>2026-01-12T15:17:34.999Z</time>
      </trkpt>
      <trkpt lat="46.16105" lon="6.3134">
        <ele>523</ele>
        <time>2026-01-12T15:17:37.999Z</time>
      </trkpt>
      <trkpt lat="46.16099" lon="6.31342">
        <ele>522</ele>
        <time>2026-01-12T15:17:39.999Z</time>
      </trkpt>
      <trkpt lat="46.16094" lon="6.31344">
        <ele>522</ele>
        <time>2026-01-12T15:17:41.999Z</time>
      </trkpt>
      <trkpt lat="46.16089" lon="6.31346">
        <ele>521</ele>
        <time>2026-01-12T15:17:43.999Z</time>
      </trkpt>
      <trkpt lat="46.16084" lon="6.31343">
        <ele>521</ele>
        <time>2026-01-12T15:17:45.999Z</time>
      </trkpt>
      <trkpt lat="46.16079" lon="6.31333">
        <ele>520</ele>
        <time>2026-01-12T15:17:47.999Z</time>
      </trkpt>
      <trkpt lat="46.16074" lon="6.31324">
        <ele>520</ele>
        <time>2026-01-12T15:17:49.999Z</time>
      </trkpt>
      <trkpt lat="46.16069" lon="6.31316">
        <ele>519</ele>
        <time>2026-01-12T15:17:51.999Z</time>
      </trkpt>
      <trkpt lat="46.16064" lon="6.31309">
        <ele>518</ele>
        <time>2026-01-12T15:17:53.999Z</time>
      </trkpt>
      <trkpt lat="46.16059" lon="6.31302">
        <ele>516</ele>
        <time>2026-01-12T15:17:55.999Z</time>
      </trkpt>
      <trkpt lat="46.16055" lon="6.31298">
        <ele>515</ele>
        <time>2026-01-12T15:17:58.999Z</time>
      </trkpt>
      <trkpt lat="46.16051" lon="6.31296">
        <ele>514</ele>
        <time>2026-01-12T15:18:02.999Z</time>
      </trkpt>
      <trkpt lat="46.16046" lon="6.31295">
        <ele>513</ele>
        <time>2026-01-12T15:18:04.999Z</time>
      </trkpt>
      <trkpt lat="46.16041" lon="6.31294">
        <ele>512</ele>
        <time>2026-01-12T15:18:06.999Z</time>
      </trkpt>
      <trkpt lat="46.16034" lon="6.3129">
        <ele>511</ele>
        <time>2026-01-12T15:18:08.999Z</time>
      </trkpt>
      <trkpt lat="46.16026" lon="6.31282">
        <ele>510</ele>
        <time>2026-01-12T15:18:10.999Z</time>
      </trkpt>
      <trkpt lat="46.16021" lon="6.31279">
        <ele>509</ele>
        <time>2026-01-12T15:18:11.999Z</time>
      </trkpt>
      <trkpt lat="46.16016" lon="6.31275">
        <ele>508</ele>
        <time>2026-01-12T15:18:12.999Z</time>
      </trkpt>
      <trkpt lat="46.16012" lon="6.31272">
        <ele>507</ele>
        <time>2026-01-12T15:18:13.999Z</time>
      </trkpt>
      <trkpt lat="46.16008" lon="6.31269">
        <ele>507</ele>
        <time>2026-01-12T15:18:14.999Z</time>
      </trkpt>
      <trkpt lat="46.16004" lon="6.31266">
        <ele>506</ele>
        <time>2026-01-12T15:18:15.999Z</time>
      </trkpt>
      <trkpt lat="46.15996" lon="6.31261">
        <ele>506</ele>
        <time>2026-01-12T15:18:17.999Z</time>
      </trkpt>
      <trkpt lat="46.15992" lon="6.31258">
        <ele>505</ele>
        <time>2026-01-12T15:18:18.999Z</time>
      </trkpt>
      <trkpt lat="46.15985" lon="6.3125">
        <ele>505</ele>
        <time>2026-01-12T15:18:20.999Z</time>
      </trkpt>
      <trkpt lat="46.15979" lon="6.3124">
        <ele>504</ele>
        <time>2026-01-12T15:18:22.999Z</time>
      </trkpt>
      <trkpt lat="46.15975" lon="6.31236">
        <ele>503</ele>
        <time>2026-01-12T15:18:23.999Z</time>
      </trkpt>
      <trkpt lat="46.15967" lon="6.3123">
        <ele>502</ele>
        <time>2026-01-12T15:18:25.999Z</time>
      </trkpt>
      <trkpt lat="46.1596" lon="6.31225">
        <ele>501</ele>
        <time>2026-01-12T15:18:27.999Z</time>
      </trkpt>
      <trkpt lat="46.15955" lon="6.31222">
        <ele>501</ele>
        <time>2026-01-12T15:18:30.999Z</time>
      </trkpt>
      <trkpt lat="46.15948" lon="6.31218">
        <ele>501</ele>
        <time>2026-01-12T15:18:32.999Z</time>
      </trkpt>
      <trkpt lat="46.15944" lon="6.3121">
        <ele>500</ele>
        <time>2026-01-12T15:18:34.999Z</time>
      </trkpt>
      <trkpt lat="46.15939" lon="6.31206">
        <ele>500</ele>
        <time>2026-01-12T15:18:36.999Z</time>
      </trkpt>
      <trkpt lat="46.15935" lon="6.31198">
        <ele>500</ele>
        <time>2026-01-12T15:18:38.999Z</time>
      </trkpt>
      <trkpt lat="46.15931" lon="6.31189">
        <ele>500</ele>
        <time>2026-01-12T15:18:40.999Z</time>
      </trkpt>
      <trkpt lat="46.15929" lon="6.31181">
        <ele>499</ele>
        <time>2026-01-12T15:18:42.999Z</time>
      </trkpt>
      <trkpt lat="46.15926" lon="6.31173">
        <ele>499</ele>
        <time>2026-01-12T15:18:44.999Z</time>
      </trkpt>
      <trkpt lat="46.15923" lon="6.31163">
        <ele>498</ele>
        <time>2026-01-12T15:18:46.999Z</time>
      </trkpt>
      <trkpt lat="46.1592" lon="6.31153">
        <ele>498</ele>
        <time>2026-01-12T15:18:48.999Z</time>
      </trkpt>
      <trkpt lat="46.15918" lon="6.31144">
        <ele>498</ele>
        <time>2026-01-12T15:18:50.999Z</time>
      </trkpt>
      <trkpt lat="46.15915" lon="6.31135">
        <ele>498</ele>
        <time>2026-01-12T15:18:52.999Z</time>
      </trkpt>
      <trkpt lat="46.15913" lon="6.31127">
        <ele>498</ele>
        <time>2026-01-12T15:18:54.999Z</time>
      </trkpt>
      <trkpt lat="46.1591" lon="6.31118">
        <ele>498</ele>
        <time>2026-01-12T15:18:56.999Z</time>
      </trkpt>
      <trkpt lat="46.15907" lon="6.3111">
        <ele>498</ele>
        <time>2026-01-12T15:18:58.999Z</time>
      </trkpt>
      <trkpt lat="46.15904" lon="6.31102">
        <ele>497</ele>
        <time>2026-01-12T15:19:00.999Z</time>
      </trkpt>
      <trkpt lat="46.15901" lon="6.31093">
        <ele>497</ele>
        <time>2026-01-12T15:19:02.999Z</time>
      </trkpt>
      <trkpt lat="46.15898" lon="6.31084">
        <ele>497</ele>
        <time>2026-01-12T15:19:04.999Z</time>
      </trkpt>
      <trkpt lat="46.15894" lon="6.31075">
        <ele>497</ele>
        <time>2026-01-12T15:19:06.999Z</time>
      </trkpt>
      <trkpt lat="46.1589" lon="6.31065">
        <ele>497</ele>
        <time>2026-01-12T15:19:08.999Z</time>
      </trkpt>
      <trkpt lat="46.15885" lon="6.31056">
        <ele>497</ele>
        <time>2026-01-12T15:19:10.999Z</time>
      </trkpt>
      <trkpt lat="46.15882" lon="6.31048">
        <ele>497</ele>
        <time>2026-01-12T15:19:12.999Z</time>
      </trkpt>
      <trkpt lat="46.15878" lon="6.31041">
        <ele>497</ele>
        <time>2026-01-12T15:19:14.999Z</time>
      </trkpt>
      <trkpt lat="46.15874" lon="6.31035">
        <ele>496</ele>
        <time>2026-01-12T15:19:16.999Z</time>
      </trkpt>
      <trkpt lat="46.15869" lon="6.31029">
        <ele>496</ele>
        <time>2026-01-12T15:19:18.999Z</time>
      </trkpt>
      <trkpt lat="46.15865" lon="6.31023">
        <ele>496</ele>
        <time>2026-01-12T15:19:20.999Z</time>
      </trkpt>
      <trkpt lat="46.1586" lon="6.31018">
        <ele>495</ele>
        <time>2026-01-12T15:19:22.999Z</time>
      </trkpt>
      <trkpt lat="46.15858" lon="6.31012">
        <ele>495</ele>
        <time>2026-01-12T15:19:25.999Z</time>
      </trkpt>
      <trkpt lat="46.15854" lon="6.31007">
        <ele>493</ele>
        <time>2026-01-12T15:19:28.999Z</time>
      </trkpt>
      <trkpt lat="46.15847" lon="6.30999">
        <ele>492</ele>
        <time>2026-01-12T15:19:32.999Z</time>
      </trkpt>
      <trkpt lat="46.15843" lon="6.30995">
        <ele>490</ele>
        <time>2026-01-12T15:19:34.999Z</time>
      </trkpt>
      <trkpt lat="46.15839" lon="6.30991">
        <ele>489</ele>
        <time>2026-01-12T15:19:36.999Z</time>
      </trkpt>
      <trkpt lat="46.15834" lon="6.30986">
        <ele>489</ele>
        <time>2026-01-12T15:19:38.999Z</time>
      </trkpt>
      <trkpt lat="46.1583" lon="6.30981">
        <ele>489</ele>
        <time>2026-01-12T15:19:40.999Z</time>
      </trkpt>
      <trkpt lat="46.15825" lon="6.30976">
        <ele>489</ele>
        <time>2026-01-12T15:19:42.999Z</time>
      </trkpt>
      <trkpt lat="46.1582" lon="6.30971">
        <ele>489</ele>
        <time>2026-01-12T15:19:44.999Z</time>
      </trkpt>
      <trkpt lat="46.15815" lon="6.30965">
        <ele>489</ele>
        <time>2026-01-12T15:19:46.999Z</time>
      </trkpt>
      <trkpt lat="46.15816" lon="6.30955">
        <ele>489</ele>
        <time>2026-01-12T15:19:48.999Z</time>
      </trkpt>
      <trkpt lat="46.1582" lon="6.3095">
        <ele>489</ele>
        <time>2026-01-12T15:19:50.999Z</time>
      </trkpt>
      <trkpt lat="46.15823" lon="6.30943">
        <ele>489</ele>
        <time>2026-01-12T15:19:52.999Z</time>
      </trkpt>
      <trkpt lat="46.15825" lon="6.30935">
        <ele>490</ele>
        <time>2026-01-12T15:19:54.999Z</time>
      </trkpt>
      <trkpt lat="46.15828" lon="6.30926">
        <ele>490</ele>
        <time>2026-01-12T15:19:56.999Z</time>
      </trkpt>
      <trkpt lat="46.15829" lon="6.30917">
        <ele>490</ele>
        <time>2026-01-12T15:19:58.999Z</time>
      </trkpt>
      <trkpt lat="46.15832" lon="6.30908">
        <ele>490</ele>
        <time>2026-01-12T15:20:00.999Z</time>
      </trkpt>
      <trkpt lat="46.15835" lon="6.309">
        <ele>491</ele>
        <time>2026-01-12T15:20:02.999Z</time>
      </trkpt>
      <trkpt lat="46.15835" lon="6.30893">
        <ele>491</ele>
        <time>2026-01-12T15:20:04.999Z</time>
      </trkpt>
      <trkpt lat="46.15838" lon="6.30885">
        <ele>491</ele>
        <time>2026-01-12T15:20:06.999Z</time>
      </trkpt>
      <trkpt lat="46.15839" lon="6.30876">
        <ele>491</ele>
        <time>2026-01-12T15:20:08.999Z</time>
      </trkpt>
      <trkpt lat="46.15841" lon="6.30867">
        <ele>491</ele>
        <time>2026-01-12T15:20:10.999Z</time>
      </trkpt>
      <trkpt lat="46.15842" lon="6.30859">
        <ele>491</ele>
        <time>2026-01-12T15:20:12.999Z</time>
      </trkpt>
      <trkpt lat="46.15843" lon="6.30851">
        <ele>491</ele>
        <time>2026-01-12T15:20:14.999Z</time>
      </trkpt>
      <trkpt lat="46.15844" lon="6.30842">
        <ele>491</ele>
        <time>2026-01-12T15:20:16.999Z</time>
      </trkpt>
      <trkpt lat="46.15845" lon="6.30835">
        <ele>491</ele>
        <time>2026-01-12T15:20:18.999Z</time>
      </trkpt>
      <trkpt lat="46.15846" lon="6.30826">
        <ele>491</ele>
        <time>2026-01-12T15:20:20.999Z</time>
      </trkpt>
      <trkpt lat="46.15846" lon="6.30818">
        <ele>490</ele>
        <time>2026-01-12T15:20:22.999Z</time>
      </trkpt>
      <trkpt lat="46.15847" lon="6.30811">
        <ele>490</ele>
        <time>2026-01-12T15:20:25.999Z</time>
      </trkpt>
      <trkpt lat="46.15848" lon="6.30804">
        <ele>490</ele>
        <time>2026-01-12T15:20:27.999Z</time>
      </trkpt>
      <trkpt lat="46.15848" lon="6.30797">
        <ele>490</ele>
        <time>2026-01-12T15:20:30.040Z</time>
      </trkpt>
      <trkpt lat="46.1585" lon="6.30788">
        <ele>490</ele>
        <time>2026-01-12T15:20:31.999Z</time>
      </trkpt>
      <trkpt lat="46.1585" lon="6.30779">
        <ele>491</ele>
        <time>2026-01-12T15:20:34.999Z</time>
      </trkpt>
      <trkpt lat="46.1585" lon="6.30771">
        <ele>491</ele>
        <time>2026-01-12T15:20:36.999Z</time>
      </trkpt>
      <trkpt lat="46.1585" lon="6.30765">
        <ele>490</ele>
        <time>2026-01-12T15:20:38.999Z</time>
      </trkpt>
      <trkpt lat="46.15848" lon="6.30757">
        <ele>490</ele>
        <time>2026-01-12T15:20:41.999Z</time>
      </trkpt>
      <trkpt lat="46.15848" lon="6.30748">
        <ele>490</ele>
        <time>2026-01-12T15:20:43.999Z</time>
      </trkpt>
      <trkpt lat="46.15849" lon="6.3074">
        <ele>490</ele>
        <time>2026-01-12T15:20:46.999Z</time>
      </trkpt>
      <trkpt lat="46.1585" lon="6.30731">
        <ele>490</ele>
        <time>2026-01-12T15:20:49.999Z</time>
      </trkpt>
      <trkpt lat="46.15851" lon="6.30725">
        <ele>490</ele>
        <time>2026-01-12T15:20:52.999Z</time>
      </trkpt>
      <trkpt lat="46.1585" lon="6.30718">
        <ele>490</ele>
        <time>2026-01-12T15:20:57.999Z</time>
      </trkpt>
      <trkpt lat="46.15851" lon="6.3071">
        <ele>491</ele>
        <time>2026-01-12T15:21:00.999Z</time>
      </trkpt>
      <trkpt lat="46.15852" lon="6.30702">
        <ele>491</ele>
        <time>2026-01-12T15:21:04.999Z</time>
      </trkpt>
      <trkpt lat="46.15856" lon="6.30697">
        <ele>491</ele>
        <time>2026-01-12T15:21:07.999Z</time>
      </trkpt>
      <trkpt lat="46.15857" lon="6.30689">
        <ele>491</ele>
        <time>2026-01-12T15:21:10.999Z</time>
      </trkpt>
      <trkpt lat="46.15858" lon="6.30679">
        <ele>490</ele>
        <time>2026-01-12T15:21:13.999Z</time>
      </trkpt>
      <trkpt lat="46.15858" lon="6.30672">
        <ele>490</ele>
        <time>2026-01-12T15:21:17.999Z</time>
      </trkpt>
      <trkpt lat="46.15858" lon="6.30664">
        <ele>490</ele>
        <time>2026-01-12T15:21:20.999Z</time>
      </trkpt>
      <trkpt lat="46.15857" lon="6.30657">
        <ele>490</ele>
        <time>2026-01-12T15:21:23.999Z</time>
      </trkpt>
      <trkpt lat="46.15856" lon="6.30647">
        <ele>490</ele>
        <time>2026-01-12T15:21:26.999Z</time>
      </trkpt>
      <trkpt lat="46.15856" lon="6.30641">
        <ele>490</ele>
        <time>2026-01-12T15:21:28.999Z</time>
      </trkpt>
      <trkpt lat="46.15856" lon="6.30627">
        <ele>489</ele>
        <time>2026-01-12T15:21:32.999Z</time>
      </trkpt>
      <trkpt lat="46.15855" lon="6.30619">
        <ele>489</ele>
        <time>2026-01-12T15:21:35.999Z</time>
      </trkpt>
      <trkpt lat="46.15854" lon="6.30611">
        <ele>488</ele>
        <time>2026-01-12T15:21:39.000Z</time>
      </trkpt>
      <trkpt lat="46.15853" lon="6.30604">
        <ele>488</ele>
        <time>2026-01-12T15:21:42.000Z</time>
      </trkpt>
      <trkpt lat="46.15851" lon="6.30597">
        <ele>487</ele>
        <time>2026-01-12T15:21:45.000Z</time>
      </trkpt>
      <trkpt lat="46.15848" lon="6.30589">
        <ele>487</ele>
        <time>2026-01-12T15:21:48.000Z</time>
      </trkpt>
      <trkpt lat="46.15842" lon="6.30587">
        <ele>486</ele>
        <time>2026-01-12T15:21:51.000Z</time>
      </trkpt>
      <trkpt lat="46.15837" lon="6.30593">
        <ele>486</ele>
        <time>2026-01-12T15:21:53.000Z</time>
      </trkpt>
      <trkpt lat="46.15831" lon="6.30594">
        <ele>486</ele>
        <time>2026-01-12T15:21:54.999Z</time>
      </trkpt>
      <trkpt lat="46.15824" lon="6.30594">
        <ele>486</ele>
        <time>2026-01-12T15:21:56.999Z</time>
      </trkpt>
      <trkpt lat="46.15818" lon="6.30596">
        <ele>486</ele>
        <time>2026-01-12T15:21:58.999Z</time>
      </trkpt>
      <trkpt lat="46.1581" lon="6.30598">
        <ele>486</ele>
        <time>2026-01-12T15:22:00.999Z</time>
      </trkpt>
      <trkpt lat="46.15803" lon="6.30599">
        <ele>486</ele>
        <time>2026-01-12T15:22:02.999Z</time>
      </trkpt>
      <trkpt lat="46.15795" lon="6.30598">
        <ele>486</ele>
        <time>2026-01-12T15:22:04.999Z</time>
      </trkpt>
      <trkpt lat="46.15788" lon="6.30598">
        <ele>486</ele>
        <time>2026-01-12T15:22:05.999Z</time>
      </trkpt>
      <trkpt lat="46.15779" lon="6.30599">
        <ele>486</ele>
        <time>2026-01-12T15:22:07.999Z</time>
      </trkpt>
      <trkpt lat="46.15771" lon="6.30601">
        <ele>486</ele>
        <time>2026-01-12T15:22:09.999Z</time>
      </trkpt>
      <trkpt lat="46.15766" lon="6.30601">
        <ele>485</ele>
        <time>2026-01-12T15:22:10.999Z</time>
      </trkpt>
      <trkpt lat="46.15757" lon="6.30604">
        <ele>485</ele>
        <time>2026-01-12T15:22:12.999Z</time>
      </trkpt>
      <trkpt lat="46.15752" lon="6.30606">
        <ele>485</ele>
        <time>2026-01-12T15:22:13.999Z</time>
      </trkpt>
      <trkpt lat="46.15744" lon="6.30608">
        <ele>485</ele>
        <time>2026-01-12T15:22:15.999Z</time>
      </trkpt>
      <trkpt lat="46.15736" lon="6.30607">
        <ele>485</ele>
        <time>2026-01-12T15:22:17.999Z</time>
      </trkpt>
      <trkpt lat="46.15731" lon="6.30609">
        <ele>485</ele>
        <time>2026-01-12T15:22:18.999Z</time>
      </trkpt>
      <trkpt lat="46.15725" lon="6.30611">
        <ele>485</ele>
        <time>2026-01-12T15:22:19.999Z</time>
      </trkpt>
      <trkpt lat="46.1572" lon="6.30608">
        <ele>485</ele>
        <time>2026-01-12T15:22:20.999Z</time>
      </trkpt>
      <trkpt lat="46.15714" lon="6.30608">
        <ele>485</ele>
        <time>2026-01-12T15:22:21.999Z</time>
      </trkpt>
      <trkpt lat="46.15708" lon="6.3061">
        <ele>485</ele>
        <time>2026-01-12T15:22:22.999Z</time>
      </trkpt>
      <trkpt lat="46.15702" lon="6.30611">
        <ele>485</ele>
        <time>2026-01-12T15:22:23.999Z</time>
      </trkpt>
      <trkpt lat="46.15697" lon="6.30611">
        <ele>484</ele>
        <time>2026-01-12T15:22:24.999Z</time>
      </trkpt>
      <trkpt lat="46.15692" lon="6.30611">
        <ele>484</ele>
        <time>2026-01-12T15:22:25.999Z</time>
      </trkpt>
      <trkpt lat="46.15686" lon="6.3061">
        <ele>483</ele>
        <time>2026-01-12T15:22:26.999Z</time>
      </trkpt>
      <trkpt lat="46.1568" lon="6.30612">
        <ele>483</ele>
        <time>2026-01-12T15:22:27.999Z</time>
      </trkpt>
      <trkpt lat="46.15674" lon="6.30612">
        <ele>482</ele>
        <time>2026-01-12T15:22:28.999Z</time>
      </trkpt>
      <trkpt lat="46.15669" lon="6.30613">
        <ele>482</ele>
        <time>2026-01-12T15:22:30.054Z</time>
      </trkpt>
      <trkpt lat="46.15654" lon="6.30613">
        <ele>481</ele>
        <time>2026-01-12T15:22:32.999Z</time>
      </trkpt>
      <trkpt lat="46.15647" lon="6.30615">
        <ele>480</ele>
        <time>2026-01-12T15:22:33.999Z</time>
      </trkpt>
      <trkpt lat="46.1564" lon="6.30615">
        <ele>480</ele>
        <time>2026-01-12T15:22:34.999Z</time>
      </trkpt>
      <trkpt lat="46.15635" lon="6.30616">
        <ele>480</ele>
        <time>2026-01-12T15:22:35.999Z</time>
      </trkpt>
      <trkpt lat="46.15629" lon="6.30616">
        <ele>480</ele>
        <time>2026-01-12T15:22:36.999Z</time>
      </trkpt>
      <trkpt lat="46.15623" lon="6.30617">
        <ele>480</ele>
        <time>2026-01-12T15:22:37.999Z</time>
      </trkpt>
      <trkpt lat="46.15617" lon="6.30617">
        <ele>480</ele>
        <time>2026-01-12T15:22:39.000Z</time>
      </trkpt>
      <trkpt lat="46.15611" lon="6.30617">
        <ele>480</ele>
        <time>2026-01-12T15:22:40.000Z</time>
      </trkpt>
      <trkpt lat="46.15604" lon="6.30618">
        <ele>480</ele>
        <time>2026-01-12T15:22:40.999Z</time>
      </trkpt>
      <trkpt lat="46.15599" lon="6.30618">
        <ele>480</ele>
        <time>2026-01-12T15:22:41.999Z</time>
      </trkpt>
      <trkpt lat="46.15593" lon="6.30617">
        <ele>479</ele>
        <time>2026-01-12T15:22:43.000Z</time>
      </trkpt>
      <trkpt lat="46.15588" lon="6.30616">
        <ele>479</ele>
        <time>2026-01-12T15:22:43.999Z</time>
      </trkpt>
      <trkpt lat="46.15583" lon="6.30614">
        <ele>479</ele>
        <time>2026-01-12T15:22:44.999Z</time>
      </trkpt>
      <trkpt lat="46.15577" lon="6.30614">
        <ele>478</ele>
        <time>2026-01-12T15:22:46.000Z</time>
      </trkpt>
      <trkpt lat="46.15571" lon="6.30612">
        <ele>478</ele>
        <time>2026-01-12T15:22:46.999Z</time>
      </trkpt>
      <trkpt lat="46.15565" lon="6.3061">
        <ele>478</ele>
        <time>2026-01-12T15:22:47.999Z</time>
      </trkpt>
      <trkpt lat="46.15559" lon="6.3061">
        <ele>478</ele>
        <time>2026-01-12T15:22:48.999Z</time>
      </trkpt>
      <trkpt lat="46.15554" lon="6.30608">
        <ele>477</ele>
        <time>2026-01-12T15:22:49.999Z</time>
      </trkpt>
      <trkpt lat="46.15548" lon="6.30606">
        <ele>477</ele>
        <time>2026-01-12T15:22:50.999Z</time>
      </trkpt>
      <trkpt lat="46.15542" lon="6.30604">
        <ele>477</ele>
        <time>2026-01-12T15:22:51.999Z</time>
      </trkpt>
      <trkpt lat="46.15536" lon="6.30603">
        <ele>477</ele>
        <time>2026-01-12T15:22:52.999Z</time>
      </trkpt>
      <trkpt lat="46.15531" lon="6.30601">
        <ele>477</ele>
        <time>2026-01-12T15:22:53.999Z</time>
      </trkpt>
      <trkpt lat="46.15525" lon="6.30601">
        <ele>477</ele>
        <time>2026-01-12T15:22:54.999Z</time>
      </trkpt>
      <trkpt lat="46.15519" lon="6.306">
        <ele>476</ele>
        <time>2026-01-12T15:22:55.999Z</time>
      </trkpt>
      <trkpt lat="46.15513" lon="6.306">
        <ele>476</ele>
        <time>2026-01-12T15:22:56.999Z</time>
      </trkpt>
      <trkpt lat="46.15507" lon="6.30602">
        <ele>476</ele>
        <time>2026-01-12T15:22:57.999Z</time>
      </trkpt>
      <trkpt lat="46.15501" lon="6.30604">
        <ele>475</ele>
        <time>2026-01-12T15:22:58.999Z</time>
      </trkpt>
      <trkpt lat="46.15496" lon="6.30607">
        <ele>475</ele>
        <time>2026-01-12T15:22:59.999Z</time>
      </trkpt>
      <trkpt lat="46.15491" lon="6.30608">
        <ele>475</ele>
        <time>2026-01-12T15:23:00.999Z</time>
      </trkpt>
      <trkpt lat="46.15485" lon="6.30603">
        <ele>475</ele>
        <time>2026-01-12T15:23:01.999Z</time>
      </trkpt>
      <trkpt lat="46.15481" lon="6.30599">
        <ele>475</ele>
        <time>2026-01-12T15:23:02.999Z</time>
      </trkpt>
      <trkpt lat="46.15479" lon="6.30593">
        <ele>476</ele>
        <time>2026-01-12T15:23:03.999Z</time>
      </trkpt>
      <trkpt lat="46.15477" lon="6.30587">
        <ele>477</ele>
        <time>2026-01-12T15:23:04.999Z</time>
      </trkpt>
    </trkseg>
  </trk>
</gpx>